[[{"header":{"parameterUnit":"m.s-1","parameterCategory":1,"la1":30.6,"la2":28.766,"lo1":-90.7593,"lo2":-88.6598,"dy":0.0162,"dx":0.0183,"nx":116,"ny":114,"refTime":"2024-04-18T06:00:00:Z","depth":0,"parameterNumber":2,"parameterNumberName":"U-component_of_WINDS"},"data":[0.0,0.0,0.0,0.0,0.0,0.0,0.0,0.0,0.0,0.0,0.0,0.0,0.0,0.0,0.0,0.0,0.0,0.0,0.0,0.0,0.0,0.0,0.0,0.0,0.0,0.0,0.0,0.0,0.0,0.0,0.0,0.0,0.0,0.0,0.0,0.0,0.0,0.0,0.0,0.0,0.0,0.0,0.0,0.0,0.0,0.0,0.0,0.0,0.0,0.0,0.0,0.0,0.0,0.0,0.0,0.0,0.0,0.0,0.0,0.0,0.0,0.0,0.0,0.0,0.0,0.0,0.0,0.0,0.0,0.0,0.0,0.0,0.0,0.0,0.0,0.0,0.0,0.0,0.0,0.0,0.0,0.0,0.0,0.0,0.0,0.0,0.0,0.0,0.0,0.0,0.0,0.0,0.0,0.0,0.0,0.0,0.0,0.0,0.0,0.0,0.0,0.0,0.0,0.0,0.0,0.0,0.0,0.0,0.0,0.0,0.0,0.0,0.0,0.0,0.0,0.0,0.0,0.0,0.0,0.0,0.0,0.0,0.0,0.0,0.0,0.0,0.0,0.0,0.0,0.0,0.0,0.0,0.0,0.0,0.0,0.0,0.0,0.0,0.0,0.0,0.0,0.0,0.0,0.0,0.0,0.0,0.0,0.0,0.0,0.0,0.0,0.0,0.0,0.0,0.0,0.0,0.0,0.0,0.0,0.0,0.0,0.0,0.0,0.0,0.0,0.0,0.0,0.0,0.0,0.0,0.0,0.0,0.0,0.0,0.0,0.0,0.0,0.0,0.0,0.0,0.0,0.0,0.0,0.0,0.0,0.0,0.0,0.0,0.0,0.0,0.0,0.0,0.0,0.0,0.0,0.0,0.0,0.0,0.0,0.0,0.0,0.0,0.0,0.0,0.0,0.0,0.0,0.0,0.0,0.0,0.0,0.0,0.0,0.0,0.0,0.0,0.0,0.0,0.0,0.0,0.0,0.0,0.0,0.0,0.0,0.0,0.0,0.0,0.0,0.0,0.0,0.0,0.0,0.0,0.0,0.0,0.0,0.0,0.0,0.0,0.0,0.0,0.0,0.0,0.0,0.0,0.0,0.0,0.0,0.0,0.0,0.0,0.0,0.0,0.0,0.0,0.0,0.0,0.0,0.0,0.0,0.0,0.0,0.0,0.0,0.0,0.0,0.0,0.0,0.0,0.0,0.0,0.0,0.0,0.0,0.0,0.0,0.0,0.0,0.0,0.0,0.0,0.0,0.0,0.0,0.0,0.0,0.0,0.0,0.0,0.0,0.0,0.0,0.0,0.0,0.0,0.0,0.0,0.0,0.0,0.0,0.0,0.0,0.0,0.0,0.0,0.0,0.0,0.0,0.0,0.0,0.0,0.0,0.0,0.0,0.0,0.0,0.0,0.0,0.0,0.0,0.0,0.0,0.0,0.0,0.0,0.0,0.0,0.0,0.0,0.0,0.0,0.0,0.0,0.0,0.0,0.0,0.0,0.0,0.0,0.0,0.0,0.0,0.0,0.0,0.0,0.0,0.0,0.0,0.0,0.0,0.0,0.0,0.0,0.0,0.0,0.0,0.0,0.0,0.0,0.0,0.0,0.0,0.0,0.0,0.0,0.0,0.0,0.0,0.0,0.0,0.0,0.0,0.0,0.0,0.0,0.0,0.0,0.0,0.0,0.0,0.0,0.0,0.0,0.0,0.0,0.0,0.0,0.0,0.0,0.0,0.0,0.0,0.0,0.0,0.0,0.0,0.0,0.0,0.0,0.0,0.0,0.0,0.0,0.0,0.0,0.0,0.0,0.0,0.0,0.0,0.0,0.0,0.0,0.0,0.0,0.0,0.0,0.0,0.0,0.0,0.0,0.0,0.0,0.0,0.0,0.0,0.0,0.0,0.0,0.0,0.0,0.0,0.0,0.0,0.0,0.0,0.0,0.0,0.0,0.0,0.0,0.0,0.0,0.0,0.0,0.0,0.0,0.0,0.0,0.0,0.0,0.0,0.0,0.0,0.0,0.0,0.0,0.0,0.0,0.0,0.0,0.0,0.0,0.0,0.0,0.0,0.0,0.0,0.0,0.0,0.0,0.0,0.0,0.0,0.0,0.0,0.0,0.0,0.0,0.0,0.0,0.0,0.0,0.0,0.0,0.0,0.0,0.0,0.0,0.0,0.0,0.0,0.0,0.0,0.0,0.0,0.0,0.0,0.0,0.0,0.0,0.0,0.0,0.0,0.0,0.0,0.0,0.0,0.0,0.0,0.0,0.0,0.0,0.0,0.0,0.0,0.0,0.0,0.0,0.0,0.0,0.0,0.0,0.0,0.0,0.0,0.0,0.0,0.0,0.0,0.0,0.0,0.0,0.0,0.0,0.0,0.0,0.0,0.0,0.0,0.0,0.0,0.0,0.0,0.0,0.0,0.0,0.0,0.0,0.0,0.0,0.0,0.0,0.0,0.0,0.0,0.0,0.0,0.0,0.0,0.0,0.0,0.0,0.0,0.0,0.0,0.0,0.0,0.0,0.0,0.0,0.0,0.0,0.0,0.0,0.0,0.0,0.0,0.0,0.0,0.0,0.0,0.0,0.0,0.0,0.0,0.0,0.0,0.0,0.0,0.0,0.0,0.0,0.0,0.0,0.0,0.0,0.0,0.0,0.0,0.0,0.0,0.0,0.0,0.0,0.0,0.0,0.0,0.0,0.0,0.0,0.0,0.0,0.0,0.0,0.0,0.0,0.0,0.0,0.0,0.0,0.0,0.0,0.0,0.0,0.0,0.0,0.0,0.0,0.0,0.0,0.0,0.0,0.0,0.0,0.0,0.0,0.0,0.0,0.0,0.0,0.0,0.0,0.0,0.0,0.0,0.0,0.0,0.0,0.0,0.0,0.0,0.0,0.0,0.0,0.0,0.0,0.0,0.0,0.0,0.0,0.0,0.0,0.0,0.0,0.0,0.0,0.0,0.0,0.0,0.0,0.0,0.0,0.0,0.0,0.0,0.0,0.0,0.0,0.0,0.0,0.0,0.0,0.0,0.0,0.0,0.0,0.0,0.0,0.0,0.0,0.0,0.0,0.0,0.0,0.0,0.0,0.0,0.0,0.0,0.0,0.0,0.0,0.0,0.0,0.0,0.0,0.0,0.0,0.0,0.0,0.0,0.0,0.0,0.0,0.0,0.0,0.0,0.0,0.0,0.0,0.0,0.0,0.0,0.0,0.0,0.0,0.0,0.0,0.0,0.0,0.0,0.0,0.0,0.0,0.0,0.0,0.0,0.0,0.0,0.0,0.0,0.0,0.0,0.0,0.0,0.0,0.0,0.0,0.0,0.0,0.0,0.0,0.0,0.0,0.0,0.0,0.0,0.0,0.0,0.0,0.0,0.0,0.0,0.0,0.0,0.0,0.0,0.0,0.0,0.0,0.0,0.0,0.0,0.0,0.0,0.0,0.0,0.0,0.0,0.0,0.0,0.0,0.0,0.0,0.0,0.0,0.0,0.0,0.0,0.0,0.0,0.0,0.0,0.0,0.0,0.0,0.0,0.0,0.0,0.0,0.0,0.0,0.0,0.0,0.0,0.0,0.0,0.0,0.0,0.0,0.0,0.0,0.0,0.0,0.0,0.0,0.0,0.0,0.0,0.0,0.0,0.0,0.0,0.0,0.0,0.0,0.0,0.0,0.0,0.0,0.0,0.0,0.0,0.0,0.0,0.0,0.0,0.0,0.0,0.0,0.0,0.0,0.0,0.0,0.0,0.0,0.0,0.0,0.0,0.0,0.0,0.0,0.0,0.0,0.0,0.0,0.0,0.0,0.0,0.0,0.0,0.0,0.0,0.0,0.0,0.0,0.0,0.0,0.0,0.0,0.0,0.0,0.0,0.0,0.0,0.0,0.0,0.0,0.0,0.0,0.0,0.0,0.0,0.0,0.0,0.0,0.0,0.0,0.0,0.0,0.0,0.0,0.0,0.0,0.0,0.0,0.0,0.0,0.0,0.0,0.0,0.0,0.0,0.0,0.0,0.0,0.0,0.0,0.0,0.0,0.0,0.0,0.0,0.0,0.0,0.0,0.0,0.0,0.0,0.0,0.0,0.0,0.0,0.0,0.0,0.0,0.0,0.0,0.0,0.0,0.0,0.0,0.0,0.0,0.0,0.0,0.0,0.0,0.0,0.0,0.0,0.0,0.0,0.0,0.0,0.0,0.0,0.0,0.0,0.0,0.0,0.0,0.0,0.0,0.0,0.0,0.0,0.0,0.0,0.0,0.0,0.0,0.0,0.0,0.0,0.0,0.0,0.0,0.0,0.0,0.0,0.0,0.0,0.0,0.0,0.0,0.0,0.0,0.0,0.0,0.0,0.0,0.0,0.0,0.0,0.0,0.0,0.0,0.0,0.0,0.0,0.0,0.0,0.0,0.0,0.0,0.0,0.0,0.0,0.0,0.0,0.0,0.0,0.0,0.0,0.0,0.0,0.0,0.0,0.0,0.0,0.0,0.0,0.0,0.0,0.0,0.0,0.0,0.0,0.0,0.0,0.0,0.0,0.0,0.0,0.0,0.0,0.0,0.0,0.0,0.0,0.0,0.0,0.0,0.0,0.0,0.0,0.0,0.0,0.0,0.0,0.0,0.0,0.0,0.0,0.0,0.0,0.0,0.0,0.0,0.0,0.0,0.0,0.0,0.0,0.0,0.0,0.0,0.0,0.0,0.0,0.0,0.0,0.0,0.0,0.0,0.0,0.0,0.0,0.0,0.0,0.0,0.0,0.0,0.0,0.0,0.0,0.0,0.0,0.0,0.0,0.0,0.0,0.0,0.0,0.0,0.0,0.0,0.0,0.0,0.0,0.0,0.0,0.0,0.0,0.0,0.0,0.0,0.0,0.0,0.0,0.0,0.0,0.0,0.0,0.0,0.0,0.0,0.0,0.0,0.0,0.0,0.0,0.0,0.0,0.0,0.0,0.0,0.0,0.0,0.0,0.0,0.0,0.0,0.0,0.0,0.0,0.0,0.0,0.0,0.0,0.0,0.0,0.0,0.0,0.0,0.0,0.0,0.0,0.0,0.0,0.0,0.0,0.0,0.0,0.0,0.0,0.0,0.0,0.0,0.0,0.0,0.0,0.0,0.0,0.0,0.0,0.0,0.0,0.0,0.0,0.0,0.0,0.0,0.0,0.0,0.0,0.0,0.0,0.0,0.0,0.0,0.0,0.0,0.0,0.0,0.0,0.0,0.0,0.0,0.0,0.0,0.0,0.0,0.0,0.0,0.0,0.0,0.0,0.0,0.0,0.0,0.0,0.0,0.0,0.0,0.0,0.0,0.0,0.0,0.0,0.0,0.0,0.0,0.0,0.0,0.0,0.0,0.0,0.0,0.0,0.0,0.0,0.0,0.0,0.0,0.0,0.0,0.0,0.0,0.0,0.0,0.0,0.0,0.0,0.0,0.0,0.0,0.0,0.0,0.0,0.0,0.0,0.0,0.0,0.0,0.0,0.0,0.0,0.0,0.0,0.0,0.0,0.0,0.0,0.0,0.0,0.0,0.0,0.0,0.0,0.0,0.0,0.0,0.0,0.0,0.0,0.0,0.0,0.0,0.0,0.0,0.0,0.0,0.0,0.0,0.0,0.0,0.0,0.0,0.0,0.0,0.0,0.0,0.0,0.0,0.0,0.0,0.0,0.0,0.0,0.0,0.0,0.0,0.0,0.0,0.0,0.0,0.0,0.0,0.0,0.0,0.0,0.0,0.0,0.0,0.0,0.0,0.0,0.0,0.0,0.0,0.0,0.0,0.0,0.0,0.0,0.0,0.0,0.0,0.0,0.0,0.0,0.0,0.0,0.0,0.0,0.0,0.0,0.0,0.0,0.0,0.0,0.0,0.0,0.0,0.0,0.0,0.0,0.0,0.0,0.0,0.0,0.0,0.0,0.0,0.0,0.0,0.0,0.0,0.0,0.0,0.0,0.0,0.0,0.0,0.0,0.0,0.0,0.0,0.0,0.0,0.0,0.0,0.0,0.0,0.0,0.0,0.0,0.0,0.0,0.0,0.0,0.0,0.0,0.0,0.0,0.0,0.0,0.0,0.0,0.0,0.0,0.0,0.0,0.0,0.0,0.0,-2.7584,0.0,0.0,0.0,0.0,0.0,0.0,0.0,0.0,0.0,0.0,0.0,0.0,0.0,0.0,0.0,0.0,0.0,0.0,0.0,0.0,0.0,0.0,0.0,0.0,-2.0794,-2.1164,-2.1551,-2.1742,-2.1978,-2.2319,0.0,0.0,0.0,0.0,0.0,-2.2815,-2.2785,-2.2777,-2.2777,-2.2694,-2.2553,-2.2342,-2.3188,-2.3018,-2.1992,0.0,0.0,0.0,0.0,0.0,0.0,0.0,0.0,0.0,0.0,0.0,0.0,0.0,0.0,0.0,0.0,0.0,0.0,0.0,0.0,0.0,0.0,0.0,0.0,0.0,0.0,0.0,0.0,0.0,0.0,0.0,0.0,0.0,0.0,0.0,0.0,0.0,0.0,0.0,0.0,0.0,0.0,0.0,0.0,0.0,0.0,0.0,0.0,0.0,0.0,0.0,0.0,0.0,0.0,0.0,0.0,0.0,0.0,0.0,0.0,0.0,0.0,0.0,0.0,0.0,0.0,0.0,0.0,0.0,0.0,0.0,-2.8197,0.0,0.0,0.0,0.0,0.0,0.0,0.0,0.0,0.0,0.0,0.0,0.0,0.0,0.0,0.0,0.0,0.0,0.0,0.0,0.0,0.0,-2.1441,-2.1527,-2.1551,-2.1623,-2.1813,-2.2189,-2.2526,-2.2754,-2.3209,-2.3494,-2.3588,-2.3659,-2.3702,-2.3681,-2.3631,-2.3596,-2.3596,-2.3518,-2.3557,-2.3686,-2.4863,-2.4286,-2.2281,-2.2444,0.0,0.0,0.0,0.0,0.0,0.0,0.0,0.0,0.0,0.0,0.0,0.0,0.0,0.0,0.0,0.0,0.0,0.0,0.0,0.0,0.0,0.0,0.0,0.0,0.0,0.0,0.0,0.0,0.0,0.0,0.0,0.0,0.0,0.0,0.0,0.0,0.0,0.0,0.0,0.0,0.0,0.0,0.0,0.0,0.0,0.0,0.0,0.0,0.0,0.0,0.0,0.0,0.0,0.0,0.0,0.0,0.0,0.0,0.0,0.0,0.0,0.0,0.0,-2.969,-2.9672,-2.9062,-2.9689,-2.9637,-2.9049,-2.8879,-2.8334,-2.7604,-2.7665,0.0,0.0,0.0,0.0,0.0,0.0,0.0,0.0,0.0,0.0,0.0,0.0,0.0,0.0,0.0,0.0,0.0,0.0,0.0,-2.1575,-2.2053,-2.21,-2.2278,-2.2692,-2.2797,-2.2888,-2.3037,-2.3209,-2.3385,-2.3509,-2.3967,-2.4141,-2.4036,-2.4036,-2.3994,-2.394,-2.4209,-2.4622,-2.5137,-2.5888,-2.605,-2.5692,-2.464,0.0,0.0,0.0,0.0,0.0,0.0,0.0,0.0,0.0,0.0,0.0,0.0,0.0,0.0,0.0,0.0,0.0,0.0,0.0,0.0,0.0,0.0,0.0,0.0,0.0,0.0,0.0,0.0,0.0,0.0,0.0,0.0,0.0,0.0,0.0,0.0,0.0,0.0,0.0,0.0,0.0,0.0,0.0,-2.4223,-2.4444,0.0,0.0,0.0,0.0,0.0,0.0,0.0,0.0,0.0,0.0,0.0,0.0,0.0,-3.0193,-3.0193,-3.1581,-3.2275,-3.2275,-3.2382,-3.2414,-3.2353,-3.1777,-3.1544,-3.1546,-3.0152,0.0,-2.8462,-2.8687,0.0,0.0,0.0,0.0,0.0,0.0,0.0,0.0,0.0,0.0,0.0,0.0,0.0,0.0,0.0,0.0,0.0,0.0,0.0,0.0,0.0,-2.293,-2.3285,-2.3554,-2.4147,-2.4296,-2.3751,-2.4296,-2.4388,-2.3799,-2.4219,-2.4446,-2.4369,-2.4078,-2.4115,-2.4525,-2.5373,-2.5916,-2.6223,-2.722,-2.7569,-2.7339,-2.6733,-2.611,-2.5466,-2.428,0.0,0.0,0.0,0.0,0.0,0.0,0.0,0.0,0.0,0.0,0.0,0.0,0.0,0.0,0.0,0.0,0.0,0.0,0.0,0.0,0.0,0.0,0.0,0.0,0.0,0.0,0.0,0.0,0.0,0.0,0.0,0.0,0.0,0.0,0.0,0.0,0.0,0.0,0.0,-2.4505,-2.4915,-2.4531,-2.5621,-2.6349,0.0,0.0,0.0,0.0,0.0,0.0,0.0,0.0,0.0,-3.0706,-3.1907,-3.2527,-3.2527,-3.3223,-3.3562,-3.358,-3.3723,-3.3488,-3.2948,-3.3355,-3.2951,-3.1879,-3.0985,-3.0142,-2.9362,-2.8937,-2.8452,-2.8041,0.0,0.0,0.0,0.0,-2.8874,-2.8237,0.0,0.0,0.0,0.0,0.0,0.0,0.0,0.0,0.0,0.0,0.0,0.0,-2.3142,-2.376,-2.4258,-2.4513,-2.5315,-2.5447,-2.4589,-2.509,-2.5032,-2.4139,-2.4549,-2.4751,-2.4731,-2.452,-2.4799,-2.559,-2.6873,-2.7745,-2.8269,-2.9392,-2.986,-2.9705,-2.9501,-2.8498,-2.6845,-2.5311,-2.4716,0.0,0.0,0.0,0.0,0.0,0.0,0.0,0.0,0.0,0.0,0.0,0.0,0.0,0.0,0.0,0.0,0.0,0.0,0.0,0.0,0.0,0.0,0.0,0.0,0.0,0.0,0.0,0.0,0.0,0.0,0.0,0.0,0.0,0.0,0.0,0.0,0.0,0.0,-2.5225,-2.5691,-2.4829,-2.6127,-2.6942,0.0,0.0,0.0,0.0,0.0,0.0,-3.0798,-3.1082,-3.1906,-3.3437,-3.4472,-3.5007,-3.5007,-3.54,-3.5489,-3.5311,-3.5495,-3.5114,-3.4227,-3.5054,-3.4532,-3.2925,-3.2296,-3.1574,-3.0728,-2.9278,-2.8268,-2.7718,-2.8901,-2.8765,-2.8039,-2.9401,-2.9518,-2.9101,0.0,0.0,0.0,0.0,0.0,0.0,0.0,0.0,0.0,0.0,0.0,-2.3142,-2.3775,-2.4442,-2.5067,-2.5658,-2.5774,-2.5712,-2.5461,-2.5002,-2.4637,-2.4385,-2.495,-2.5201,-2.5072,-2.5743,-2.6533,-2.745,-2.8814,-3.0353,-3.2139,-3.2901,-3.3558,-3.4071,-3.3481,-3.1672,-2.8889,-2.6325,-2.5602,-2.5942,0.0,0.0,0.0,0.0,0.0,0.0,0.0,0.0,0.0,0.0,0.0,0.0,0.0,0.0,0.0,0.0,0.0,0.0,0.0,0.0,0.0,0.0,0.0,0.0,0.0,0.0,0.0,0.0,0.0,0.0,0.0,0.0,0.0,0.0,0.0,0.0,0.0,0.0,0.0,-2.5464,-2.7486,0.0,0.0,0.0,0.0,-2.8587,-2.9429,-3.0693,-3.2478,-3.3241,-3.4072,-3.5044,-3.6595,-3.7416,-3.7416,-3.8879,-3.9253,-3.8576,-3.8576,-3.8295,-3.7713,-3.715,-3.6602,-3.5988,-3.4567,-3.3648,-3.2933,-3.0124,-2.9172,-2.9458,-2.9551,-2.967,-2.9775,-2.9869,-2.9878,-2.9859,0.0,0.0,0.0,0.0,0.0,-2.0166,-2.1085,-2.1748,-2.2542,-2.3655,-2.3911,-2.4236,-2.4872,-2.5957,-2.6911,-2.755,-2.8265,-2.8319,-2.742,-2.6995,-2.6358,-2.5466,-2.5479,-2.5769,-2.637,-2.7488,-2.8979,-3.0814,-3.2157,-3.3589,-3.5125,-3.5367,-3.5608,-3.5729,-3.5077,-3.4175,-3.2949,-2.9207,-2.7482,-2.7093,-2.4885,-2.4031,0.0,0.0,0.0,0.0,0.0,0.0,0.0,0.0,0.0,0.0,0.0,0.0,0.0,0.0,0.0,0.0,0.0,0.0,0.0,0.0,0.0,0.0,0.0,0.0,0.0,0.0,0.0,0.0,0.0,0.0,0.0,0.0,0.0,0.0,0.0,0.0,0.0,-2.899,-3.0961,0.0,-3.1253,-3.1035,-3.1428,-3.2477,-3.2388,-3.3335,-3.574,-3.6096,-3.6845,-3.8183,-3.9272,-3.9843,-3.9843,-4.0051,-4.0037,-3.975,-3.9111,-3.8609,-3.8251,-3.8334,-3.7554,-3.6125,-3.534,-3.4335,-3.312,-3.1603,-3.0767,-3.0434,-3.0434,-3.0481,-3.0496,-3.0053,-3.0257,-3.0654,0.0,0.0,0.0,0.0,0.0,-2.0191,-2.1359,-2.1931,-2.2621,-2.3784,-2.4457,-2.5266,-2.6354,-2.7506,-2.8677,-2.9826,-3.0138,-2.9826,-2.8676,-2.8054,-2.7179,-2.5915,-2.6401,-2.7017,-2.7749,-2.9793,-3.1754,-3.3572,-3.4922,-3.6288,-3.7561,-3.7576,-3.7655,-3.777,-3.6646,-3.6246,-3.6148,-3.2378,-3.0125,-2.8881,-2.6234,-2.5342,-2.5407,0.0,0.0,0.0,0.0,0.0,0.0,0.0,0.0,0.0,0.0,0.0,0.0,0.0,0.0,0.0,0.0,0.0,0.0,0.0,0.0,0.0,0.0,0.0,0.0,0.0,0.0,0.0,0.0,0.0,0.0,0.0,0.0,0.0,0.0,0.0,-3.1701,-3.234,-3.4305,-3.5325,-3.4572,-3.4295,-3.4463,-3.5292,-3.5233,-3.6072,-3.816,-3.8611,-3.9418,-4.0802,-4.1357,-4.1559,-4.1367,-4.1016,-4.0565,-4.0022,-3.9341,-3.8863,-3.8541,-3.8588,-3.7812,-3.6374,-3.587,-3.4956,-3.3734,-3.3249,-3.2732,-3.2166,-3.1327,-3.1007,-3.0911,-3.0166,-3.0276,-3.0673,0.0,0.0,0.0,0.0,0.0,-2.1185,-2.12,-2.2344,-2.319,-2.324,-2.4477,-2.6169,-2.8238,-2.9064,-3.031,-3.2346,-3.1169,-2.9962,-2.9108,-2.8008,-2.6881,-2.5762,-2.7709,-2.8951,-2.9278,-3.2608,-3.4781,-3.5665,-3.706,-3.8325,-3.9518,-3.9568,-3.9918,-4.0385,-3.8402,-3.7897,-3.8372,-3.5663,-3.346,-3.1469,-2.8312,-2.7418,-2.7708,0.0,0.0,0.0,0.0,0.0,0.0,0.0,0.0,0.0,0.0,0.0,0.0,0.0,0.0,0.0,0.0,0.0,0.0,0.0,0.0,0.0,0.0,0.0,0.0,0.0,0.0,0.0,0.0,0.0,0.0,0.0,0.0,0.0,-3.1757,-3.3438,-3.4806,-3.5328,-3.737,-3.8146,-3.6663,-3.6693,-3.6797,-3.68,-3.7885,-3.8866,-3.9651,-4.0633,-4.1642,-4.2674,-4.2729,-4.2483,-4.194,-4.1921,-4.1119,-3.9589,-3.9551,-3.9296,-3.8822,-3.8081,-3.7489,-3.7,-3.6357,-3.5642,-3.4984,-3.4984,-3.4984,-3.4737,-3.2255,-3.128,-3.1204,-3.0313,-2.9991,-2.9991,0.0,0.0,0.0,-2.0085,-2.029,-2.074,-2.1536,-2.2404,-2.3254,-2.4055,-2.5961,-2.7861,-2.9406,-3.0735,-3.1907,-3.2919,-3.1616,-3.0507,-2.9984,-2.82,-2.748,-2.8174,-2.8591,-3.0283,-3.3441,-3.4993,-3.686,-3.914,-4.0055,-4.0923,-4.1707,-4.1741,-4.1833,-4.1933,-4.0872,-4.0765,-4.1245,-3.8482,-3.7268,-3.6837,-3.2139,-2.9857,-2.9053,0.0,0.0,0.0,0.0,0.0,0.0,0.0,0.0,0.0,0.0,0.0,0.0,0.0,0.0,0.0,0.0,0.0,0.0,0.0,0.0,0.0,0.0,0.0,0.0,0.0,0.0,0.0,0.0,0.0,0.0,0.0,-3.1726,-3.291,-3.3247,-3.5706,-3.7949,-3.9181,-4.0877,-4.1774,-4.1343,-4.1356,-4.1279,-4.1046,-4.1319,-4.1541,-4.1561,-4.2371,-4.2721,-4.243,-4.3152,-4.3219,-4.25,-4.2336,-4.2046,-4.1587,-4.0619,-4.0074,-3.9925,-3.9096,-3.837,-3.7798,-3.7706,-3.725,-3.6585,-3.6678,-3.6708,-3.6462,-3.3979,-3.3373,-3.3714,-3.2246,-3.1715,-3.1715,0.0,0.0,0.0,-2.0479,-2.058,-2.0872,-2.1501,-2.2477,-2.3382,-2.3995,-2.6559,-2.8854,-3.0234,-3.1446,-3.2453,-3.3099,-3.1618,-3.0283,-2.9424,-2.8668,-2.8924,-3.051,-3.1823,-3.3792,-3.6602,-3.8073,-3.976,-4.1656,-4.19,-4.2537,-4.3524,-4.3201,-4.3218,-4.3467,-4.2149,-4.2131,-4.2856,-3.9991,-3.9161,-3.952,-3.579,-3.3431,-3.1882,-2.959,-2.8965,-2.9161,-2.7767,-2.7435,-2.757,-2.7335,0.0,0.0,0.0,0.0,0.0,0.0,0.0,0.0,0.0,0.0,0.0,0.0,0.0,0.0,0.0,0.0,0.0,0.0,0.0,0.0,0.0,0.0,0.0,0.0,-3.4099,-3.5842,-3.7106,-3.9158,-4.1101,-4.2612,-4.3871,-4.4613,-4.4613,-4.4302,-4.41,-4.3989,-4.3775,-4.352,-4.3156,-4.3651,-4.3716,-4.3174,-4.3748,-4.365,-4.2738,-4.2638,-4.2395,-4.2044,-4.0937,-4.0416,-4.0346,-3.9138,-3.8407,-3.809,-3.7823,-3.7523,-3.7203,-3.7278,-3.7349,0.0,0.0,0.0,0.0,0.0,-3.271,-3.2397,0.0,0.0,0.0,-2.0958,-2.1151,-2.134,-2.1371,-2.2638,-2.3565,-2.3547,-2.6549,-2.9221,-3.0516,-3.1332,-3.206,-3.2789,-3.1138,-2.9547,-2.8408,-2.944,-3.1016,-3.3039,-3.6179,-3.832,-3.9295,-4.1488,-4.2964,-4.3644,-4.3157,-4.3588,-4.487,-4.4172,-4.4221,-4.4852,-4.2909,-4.2803,-4.3873,-4.102,-4.0173,-4.0604,-3.9054,-3.7266,-3.5209,-3.248,-3.1809,-3.2119,-3.0589,-2.9322,-2.8543,-2.9592,0.0,0.0,0.0,0.0,0.0,0.0,0.0,0.0,0.0,0.0,0.0,0.0,0.0,0.0,0.0,0.0,0.0,0.0,0.0,0.0,0.0,0.0,0.0,0.0,-3.6786,-3.9611,-4.2019,-4.3086,-4.4087,-4.538,-4.6069,-4.651,-4.6596,-4.5862,-4.5477,-4.5664,-4.5243,-4.4789,-4.4324,0.0,0.0,0.0,0.0,-4.4069,-4.303,-4.3061,-4.2667,-4.185,-4.1051,-4.0661,-4.062,-3.9027,-3.8388,-3.8456,-3.7754,-3.7553,-3.7713,-3.7747,-3.7797,-3.7732,-3.6737,-3.6339,-3.6168,-3.4661,-3.3562,-3.2842,0.0,0.0,0.0,-2.1495,-2.1572,-2.1678,-2.1838,-2.3117,-2.3984,-2.3786,-2.636,-2.8474,-2.9135,-2.9864,-3.0593,-3.126,-2.9618,-2.8893,-2.9732,-3.1152,-3.3471,-3.678,-3.8501,-4.0538,-4.3004,-4.408,-4.4992,-4.5714,-4.5193,-4.5074,-4.5337,-4.4821,-4.4949,-4.5581,-4.464,-4.4977,-4.6118,-4.3835,-4.2858,-4.2735,-4.0761,-3.842,-3.5973,-3.4651,-3.4224,-3.4183,-3.3138,-3.2946,-3.3051,-3.2213,-3.0971,-2.9789,-3.0058,0.0,0.0,0.0,0.0,0.0,0.0,0.0,0.0,0.0,0.0,0.0,0.0,0.0,0.0,0.0,0.0,0.0,0.0,0.0,0.0,-3.6758,-3.9351,-4.1816,-4.4224,-4.5388,-4.6061,-4.6337,-4.5931,-4.588,-4.6544,-4.5862,-4.5226,-4.4848,-4.4946,-4.4806,-4.4337,-4.5116,-4.5391,-4.4959,-4.5795,-4.5644,-4.4418,-4.467,-4.4395,-4.3522,0.0,0.0,-4.2296,-4.133,-4.0899,-4.0909,-4.0868,-4.0875,-4.0929,-4.113,-4.0922,-4.0252,-3.8035,-3.7173,-3.7135,-3.6803,-3.6159,-3.5457,0.0,0.0,0.0,-2.1811,-2.1855,-2.1868,-2.1984,-2.2953,-2.3727,-2.3966,-2.6188,-2.7984,-2.8626,-2.9329,-2.9757,-2.9753,-2.9034,-2.9439,-3.1422,-3.4048,-3.7065,-4.0446,-4.2253,-4.4221,-4.6397,-4.623,-4.6625,-4.7744,-4.65,-4.6144,-4.6584,-4.5979,-4.5945,-4.6309,-4.5613,-4.5888,-4.6777,-4.4941,-4.3897,-4.3402,-4.2039,-4.0077,-3.7777,-3.674,-3.6414,-3.6354,-3.5362,-3.4771,-3.4414,-3.3724,-3.2392,-3.0987,-3.0987,-2.9445,-2.747,0.0,0.0,0.0,0.0,0.0,0.0,0.0,0.0,0.0,0.0,0.0,0.0,0.0,0.0,-2.9696,-3.2673,0.0,-3.6107,-3.9251,-4.1128,-4.2903,-4.4919,-4.5671,-4.6165,-4.6562,-4.6268,-4.6155,-4.6562,-4.5862,-4.5511,-4.5778,-4.5563,-4.5479,-4.5708,-4.6181,-4.6352,-4.6149,-4.6284,-4.5938,-4.507,-4.4777,-4.4432,-4.3986,-4.3188,-4.2797,-4.276,-4.1962,-4.159,-4.1605,-4.1678,-4.1749,-4.1815,-4.2096,-4.2001,-4.1569,-4.037,-3.9134,-3.8045,-3.8045,-3.7268,-3.6206,0.0,0.0,0.0,-2.2073,-2.2099,-2.2127,-2.2127,-2.2767,-2.3427,-2.3971,-2.5799,-2.7304,-2.7886,-2.8569,-2.8772,-2.8297,-2.9025,-3.0612,-3.3177,-3.6922,-4.0429,-4.35,-4.5958,-4.7838,-4.8999,-4.8357,-4.8523,-4.9568,-4.8044,-4.7567,-4.8018,-4.7342,-4.7043,-4.7087,-4.6488,-4.6552,-4.702,-4.578,-4.4834,-4.4115,-4.3385,-4.1829,-3.9927,-3.889,-3.8406,-3.8154,-3.7067,-3.5729,-3.4488,-3.4354,-3.2976,-3.1331,-3.1466,-3.024,-2.8547,-2.7335,-2.6333,0.0,0.0,0.0,0.0,0.0,0.0,0.0,0.0,0.0,-2.8426,-3.0504,-3.1033,-3.2226,-3.5902,-3.7181,-3.8563,-4.1393,-4.2628,-4.3681,-4.5022,-4.518,-4.5363,-4.5889,-4.6199,-4.6441,-4.6596,-4.5862,-4.5761,-4.663,-4.6126,-4.6144,-4.6863,-4.6896,-4.6937,-4.7113,-4.6397,-4.5838,-4.5547,-4.4674,-4.4246,-4.4246,-4.3429,-4.302,-4.3002,-4.2352,-4.2073,-4.2054,-4.1887,-4.1808,-4.1815,-4.2025,-4.2159,-4.2209,-4.233,-4.1158,-3.941,-3.9239,-3.8216,-3.686,0.0,0.0,0.0,0.0,0.0,-2.2558,-2.2602,-2.3251,-2.3682,-2.3505,-2.4879,-2.583,-2.5681,-2.6317,-2.6823,-2.6996,-2.9492,-3.2166,-3.4763,-3.853,-4.1992,-4.5018,-4.8027,-4.97,-4.9873,-5.102,-5.1369,-5.0887,-5.0895,-5.0359,-4.9274,-4.8779,-4.8305,-4.788,-4.7799,-4.7815,-4.788,-4.7677,-4.7241,-4.6491,-4.5219,-4.3582,-4.1827,-4.1168,-4.0115,-3.8858,-3.7709,-3.6088,-3.4414,-3.3799,-3.2273,-3.0731,-3.1316,-3.0554,-2.9352,-2.8592,0.0,-2.5663,-2.6015,-2.6289,0.0,-2.5917,-2.6566,-2.7766,0.0,0.0,-3.1418,-3.3482,-3.4706,-3.6149,-3.8557,-3.9932,-4.1306,-4.3134,-4.418,-4.4871,-4.5159,-4.4742,-4.4225,-4.3655,-4.4751,-4.5811,-4.6544,-4.5862,-4.5458,-4.5571,-4.5727,-4.5963,-4.6266,-4.613,-4.6251,-4.6753,-4.6269,-4.6115,-4.6364,-4.5565,-4.5138,-4.5138,-4.4283,-4.3875,-4.3856,-4.3763,-4.3726,-4.3689,-4.2983,-4.2344,-4.181,-4.1838,-4.1999,-4.2203,-4.2215,-4.2129,-4.1901,-4.1181,-4.0298,-3.9275,0.0,0.0,0.0,0.0,0.0,-2.2876,-2.2829,-2.3141,-2.3449,-2.3624,-2.4732,-2.5592,-2.5765,-2.6528,-2.7037,-2.7087,-2.9523,-3.2436,-3.5628,-3.9428,-4.3285,-4.7207,-4.9465,-5.1063,-5.1959,-5.1718,-5.1632,-5.1722,-5.0974,-5.0008,-4.8853,-4.8659,-4.8149,-4.7378,-4.7815,-4.7837,-4.76,-4.8413,-4.7916,-4.6514,-4.6096,-4.4681,-4.2636,-4.0917,-3.9149,-3.7428,-3.616,-3.4681,0.0,0.0,-3.0896,-3.0492,-3.0417,-2.9919,-2.9147,-2.8086,-2.7447,0.0,-2.7221,0.0,0.0,0.0,-2.8535,-2.9995,-3.124,-3.2647,-3.4023,-3.5245,-3.6832,-3.855,-4.0259,-4.1617,-4.2898,0.0,-4.4709,-4.5059,-4.5177,-4.4294,-4.3362,-4.2603,-4.3044,-4.3544,-4.3889,-4.4423,-4.4751,-4.4751,-4.5542,-4.6249,-4.6758,-4.6967,-4.7128,-4.7279,-4.6646,-4.6136,-4.5788,-4.4952,-4.4804,-4.5287,-4.4413,-4.4506,-4.5435,-4.4971,-4.4748,-4.4711,-4.3856,-4.3066,-4.2358,-4.1955,-4.19,-4.2083,-4.2178,-4.2276,-4.2363,-4.2022,-4.1359,-4.0468,0.0,0.0,0.0,0.0,0.0,-2.3139,-2.2982,-2.3045,-2.3225,-2.3557,-2.4654,-2.5687,-2.645,-2.7148,-2.7526,-2.7421,-2.941,-3.2106,-3.552,-3.934,-4.3266,-4.7389,-4.9648,-5.1321,-5.2442,-5.1787,-5.161,-5.2027,-5.1075,-5.0103,-4.9125,-4.8892,-4.8463,-4.7908,-4.8272,-4.8239,-4.7938,-4.8966,-4.8332,-4.6622,-4.6599,-4.5064,-4.2572,-4.0316,-3.7826,-3.5393,-3.4273,-3.278,0.0,0.0,-2.9314,-2.9455,-2.9219,-2.9031,-2.8733,-2.7976,-2.8187,-2.8515,-2.7929,0.0,0.0,-2.9234,-3.0893,-3.2565,-3.3269,-3.4839,-3.6423,-3.7229,-3.8566,-3.995,-4.1121,-4.2152,-4.3075,-4.4028,-4.4453,-4.4751,-4.4885,-4.3726,-4.2499,-4.1498,-4.1205,-4.1067,-4.1067,-4.2844,-4.4087,-4.4276,-4.5152,-4.6068,-4.6955,-4.7232,-4.7415,-4.7529,-4.6648,-4.6104,-4.5955,-4.4655,-4.4544,-4.5621,-4.4525,-4.4766,-4.6141,-4.5565,-4.5045,-4.4562,-4.3708,-4.2872,-4.2088,-4.1348,-4.1282,-4.1635,-4.1763,-4.2019,-4.2347,-4.2389,-4.1889,-4.1075,0.0,0.0,0.0,0.0,0.0,-2.3395,-2.3126,-2.3107,-2.3107,-2.3112,-2.4458,-2.5981,-2.7476,-2.7683,-2.7701,-2.7686,-2.9109,-3.127,-3.4175,-3.7939,-4.1371,-4.4311,-4.8027,-5.0062,-5.0097,-5.1447,-5.1941,-5.1535,-5.1924,-5.1765,-5.0996,-5.0153,-4.9986,-5.0376,-4.9796,-4.955,-4.9534,-4.9567,-4.8817,-4.7605,-4.6897,-4.4589,-4.1375,-3.9876,-3.6741,-3.3032,-3.2462,0.0,0.0,-2.803,-2.7538,-2.7136,-2.7822,-2.804,0.0,-2.8996,-2.9613,-2.9652,0.0,0.0,-3.234,-3.1902,-3.351,-3.5363,-3.6019,-3.719,-3.8513,-3.9895,-4.0113,-4.0316,-4.1076,-4.1229,-4.156,-4.243,-4.3327,-4.3998,-4.4112,-4.2917,-4.1481,-3.9939,-3.9129,-3.8703,0.0,-4.1447,-4.3534,-4.4259,-4.4354,-4.5003,-4.6442,-4.623,-4.6393,-4.7094,-4.5958,-4.6067,-4.7608,-4.5212,-4.4822,-4.6438,-4.4785,-4.4469,-4.5342,-4.5305,-4.4413,-4.2835,-4.2017,-4.1219,-4.0416,-3.9542,-3.9769,-4.0659,-4.079,-4.1387,-4.2227,-4.2347,-4.1889,-4.1075,0.0,0.0,0.0,0.0,0.0,0.0,-2.3372,-2.336,-2.3301,-2.3114,-2.444,0.0,0.0,0.0,0.0,0.0,-2.874,-3.0416,-3.2826,-3.6423,-3.9827,-4.2836,-4.6512,-4.8689,-4.9172,-4.9872,-5.0135,-4.9959,-4.9809,-4.9513,-4.9056,-4.8744,-4.8562,-4.848,-4.8226,-4.8192,-4.8328,-4.8328,-4.7885,-4.6977,-4.4778,-4.2921,-4.1001,-3.6782,-3.3743,-3.1516,0.0,0.0,0.0,-2.6408,-2.6247,-2.6465,-2.6729,-2.6999,-2.745,-2.8622,-2.9092,-2.9586,0.0,0.0,-3.3855,-3.5801,-3.717,-3.819,-3.882,-3.9967,-4.0514,-3.9001,-3.9455,-3.9715,-3.8497,-3.9073,-4.0189,-4.1563,-4.256,-4.3373,-4.4009,-4.3347,-4.1843,-3.9267,-3.9652,0.0,0.0,0.0,0.0,-4.3465,-4.4309,-4.5229,-4.6323,-4.6873,-4.7102,-4.6907,-4.6852,-4.6852,-4.6903,-4.6085,-4.6215,-4.7293,-4.6717,-4.6048,-4.5324,-4.5844,-4.5175,-4.3578,-4.3318,-4.2426,-4.1163,-4.0884,-4.1022,-4.1348,-4.086,-4.0896,-4.1224,-4.0774,-4.0443,-4.0341,0.0,0.0,0.0,0.0,0.0,0.0,0.0,0.0,0.0,0.0,0.0,0.0,0.0,0.0,0.0,0.0,0.0,-2.9564,-3.1437,-3.4244,-3.6937,-3.9412,-4.2521,-4.4421,-4.4888,-4.5362,-4.5653,-4.5735,-4.5484,-4.5467,-4.5701,-4.5524,-4.582,-4.6442,-4.6156,-4.6272,-4.6598,-4.6087,-4.5208,-4.4019,-4.1598,-3.9707,-3.7949,-3.3827,-3.1407,0.0,0.0,0.0,-2.6377,-2.5859,-2.594,-2.6308,-2.633,-2.6918,-2.7767,-2.8621,-2.981,-3.1352,0.0,-3.5245,-3.6593,-3.8897,-3.9748,-4.0137,-4.0535,-4.0699,-4.0121,-3.7956,-3.7601,-3.7286,-3.5864,-3.6412,-3.7577,-3.9076,-4.037,-4.1535,-4.2671,-4.2523,-4.1709,-4.0008,-4.0463,-4.0429,0.0,0.0,0.0,-4.2916,-4.4246,-4.54,-4.629,-4.7258,-4.7698,-4.7423,-4.7535,-4.7506,-4.7316,-4.6775,-4.6754,-4.7274,-4.7553,-4.7014,-4.5751,-4.6252,-4.5584,-4.3968,-4.3392,-4.2556,-4.1571,-4.1293,-4.1388,-4.1679,-4.1213,-4.1071,-4.1108,-4.0685,-4.0752,-4.1189,0.0,0.0,0.0,0.0,0.0,0.0,0.0,0.0,0.0,0.0,0.0,0.0,0.0,0.0,0.0,0.0,0.0,0.0,-3.0024,0.0,0.0,-3.428,-3.6549,-3.7784,-3.7784,-3.859,-3.914,-3.9391,-3.9516,-4.0202,-4.1402,-4.0889,-4.195,-4.423,-4.3564,-4.3671,-4.4281,-4.2763,-4.1028,-3.9142,-3.7578,-3.5328,-3.2782,-3.1232,0.0,0.0,0.0,0.0,0.0,-2.6252,-2.6519,-2.6637,-2.6689,-2.7822,-2.9128,-2.9247,-3.1802,-3.4742,-3.5633,-3.8007,-4.04,-4.117,-4.1339,-4.1288,-4.117,-3.9495,-3.7702,-3.6761,-3.4878,-3.3372,0.0,0.0,-3.4058,-3.5509,-3.7183,-3.8862,-4.0458,-4.0813,-4.1192,0.0,0.0,0.0,0.0,0.0,0.0,-4.2705,0.0,-4.5361,-4.6344,-4.7293,-4.7994,-4.8438,-4.7922,-4.8027,-4.8787,-4.7335,-4.6605,-4.6568,-4.7348,-4.7274,-4.6494,-4.6457,-4.5547,-4.3912,-4.2389,-4.1702,-4.159,-4.0828,-4.0996,-4.1716,-4.1768,-4.1806,-4.1857,-4.1957,-4.259,-4.3322,0.0,0.0,0.0,0.0,0.0,0.0,0.0,0.0,0.0,0.0,0.0,0.0,0.0,0.0,0.0,0.0,0.0,0.0,0.0,0.0,0.0,0.0,0.0,0.0,0.0,0.0,0.0,-3.7786,-3.8019,-3.834,-3.8772,-3.8721,-3.9118,-3.9812,-3.9112,-3.9234,-3.9821,-3.8087,-3.7367,-3.7148,0.0,-3.2827,-3.1918,0.0,0.0,0.0,0.0,0.0,0.0,0.0,0.0,0.0,0.0,-2.9413,-3.0973,-3.2594,-3.415,-3.5955,-3.8971,-4.073,-4.2076,-4.3413,-4.3284,-4.2422,-4.0747,-3.9512,-3.7719,-3.4189,-3.3406,-3.2899,0.0,0.0,0.0,-3.7052,-3.8924,0.0,-4.2903,-4.3778,0.0,-4.2164,0.0,-4.3069,-4.2102,-4.3193,0.0,0.0,-4.4135,-4.4783,-4.6183,-4.714,-4.7754,-4.7974,-4.8161,-4.8439,-4.8787,-4.8448,-4.7999,-4.7404,-4.7608,-4.7274,-4.6475,-4.5881,-4.5026,-4.3986,-4.3578,-4.3039,-4.2482,-4.2259,-4.2649,-4.3262,-4.2099,-4.2021,-4.2482,-4.2025,-4.2001,-4.2345,0.0,0.0,0.0,0.0,0.0,0.0,0.0,0.0,0.0,0.0,0.0,0.0,0.0,0.0,0.0,0.0,0.0,0.0,0.0,0.0,0.0,0.0,0.0,0.0,0.0,0.0,0.0,0.0,0.0,0.0,-3.4438,-3.4676,-3.5191,-3.586,-3.5476,-3.5721,-3.6264,-3.4624,0.0,0.0,0.0,0.0,0.0,0.0,0.0,0.0,0.0,0.0,0.0,0.0,0.0,-2.9634,-3.0615,-3.1935,-3.3508,-3.5436,0.0,-3.8575,-4.1018,-4.2472,-4.3532,-4.4395,-4.3504,-4.2033,-4.046,-3.8497,-3.6135,-3.2953,-3.2104,0.0,-3.0345,0.0,0.0,0.0,0.0,0.0,-4.2183,-4.3555,-4.4122,0.0,-4.4251,0.0,-4.3578,-4.4405,-4.5058,0.0,-4.5414,-4.5824,-4.6556,-4.743,-4.7955,-4.8034,-4.8324,-4.8606,-4.8787,-4.884,-4.8466,-4.7701,-4.7701,-4.7274,-4.6475,-4.5658,-4.4822,-4.3986,0.0,-4.3225,-4.2797,-4.2797,-4.3262,-4.3912,-4.3002,-4.2927,-4.3277,-4.2888,-4.2827,-4.2931,0.0,0.0,0.0,0.0,0.0,0.0,0.0,0.0,0.0,0.0,-2.4688,-2.4873,0.0,0.0,0.0,0.0,0.0,0.0,0.0,0.0,0.0,0.0,0.0,0.0,0.0,0.0,0.0,0.0,0.0,0.0,0.0,0.0,0.0,0.0,0.0,0.0,0.0,0.0,0.0,0.0,0.0,0.0,0.0,0.0,0.0,0.0,0.0,0.0,0.0,0.0,-2.9989,-3.1055,-3.3186,-3.4945,-3.6495,-3.8041,-3.9851,-4.1525,-4.2371,-4.3582,-4.4581,-4.4479,-4.2726,-4.0798,-3.9741,-3.684,-3.3863,-3.2209,0.0,-3.0226,-3.0125,-3.0828,-3.199,-3.3618,0.0,-3.8151,-4.0637,-4.2251,-4.3761,-4.538,-4.5466,-4.5483,-4.569,-4.5374,-4.5532,-4.6372,-4.7169,-4.7466,-4.7183,-4.7882,-4.8306,-4.8306,-4.8438,-4.8569,-4.8751,-4.8787,-4.8432,-4.7684,-4.7701,-4.7274,-4.6475,-4.5658,-4.4878,-4.4135,-4.3318,-4.2965,-4.2946,-4.2835,-4.3262,-4.3986,-4.3875,-4.3912,-4.4005,-4.4005,-4.4116,-4.4158,0.0,0.0,0.0,0.0,0.0,0.0,0.0,0.0,0.0,0.0,-2.4605,-2.4236,0.0,0.0,0.0,0.0,0.0,0.0,0.0,0.0,0.0,0.0,0.0,0.0,0.0,0.0,0.0,0.0,0.0,0.0,0.0,0.0,0.0,0.0,0.0,0.0,0.0,0.0,0.0,0.0,0.0,0.0,0.0,0.0,0.0,0.0,0.0,0.0,0.0,0.0,-3.2632,-3.4015,-3.5695,-3.7642,-3.9622,-4.1085,-4.1796,-4.2405,-4.3836,-4.4412,-4.4445,-4.3775,-4.1922,-3.9589,-3.6986,-3.4923,0.0,0.0,-3.0347,-3.0818,-3.0226,-3.1305,-3.3186,-3.5924,0.0,0.0,0.0,0.0,-4.4665,0.0,0.0,0.0,0.0,0.0,0.0,0.0,-4.7629,-4.7578,-4.7513,-4.8002,-4.8306,-4.8306,-4.8438,-4.8531,-4.855,-4.8715,-4.8397,-4.7617,-4.7667,-4.7274,-4.6475,-4.5658,-4.5212,-4.5026,-4.4172,0.0,-4.3745,-4.3076,-4.3262,-4.3931,-4.3262,-4.341,-4.4005,-4.4005,-4.402,-4.4048,0.0,0.0,0.0,0.0,0.0,0.0,0.0,-2.5283,-2.6093,-2.7713,-2.7182,-2.6485,-2.5965,-2.5231,-2.4909,0.0,0.0,0.0,0.0,0.0,0.0,0.0,0.0,0.0,0.0,0.0,0.0,0.0,0.0,0.0,0.0,0.0,0.0,0.0,0.0,0.0,0.0,0.0,0.0,0.0,0.0,0.0,0.0,0.0,0.0,0.0,0.0,0.0,0.0,0.0,-3.2391,-3.4455,-3.7557,-3.952,-4.095,-4.2439,-4.2878,-4.3132,-4.4293,-4.4615,-4.4429,-4.3606,-4.1457,-3.8954,-3.6738,0.0,0.0,0.0,-3.07,-3.1089,-3.0734,-3.1622,0.0,0.0,0.0,0.0,0.0,0.0,0.0,0.0,0.0,0.0,0.0,0.0,-4.7169,-4.7747,-4.7892,-4.7975,-4.7975,-4.8172,-4.8306,-4.8306,-4.7958,-4.8015,-4.8513,-4.8163,-4.7643,-4.6916,-4.6967,-4.6351,-4.5194,-4.4804,-4.4618,-4.4599,-4.4191,-4.4005,-4.3968,-4.3578,-4.3652,-4.3968,-4.3578,-4.3652,-4.4005,-4.4005,-4.4005,-4.402,0.0,0.0,0.0,0.0,0.0,0.0,-2.5888,-2.6417,-2.748,-2.9859,-3.0165,-2.9359,-2.7279,-2.6722,-2.5871,0.0,0.0,0.0,0.0,0.0,0.0,0.0,0.0,0.0,0.0,0.0,0.0,0.0,0.0,0.0,0.0,0.0,0.0,0.0,0.0,0.0,0.0,0.0,0.0,0.0,0.0,0.0,0.0,0.0,0.0,0.0,0.0,0.0,0.0,0.0,-3.136,-3.3592,-3.7449,-3.9715,-4.117,-4.2168,-4.2885,-4.3527,-4.4164,-4.4479,-4.4378,-4.3403,-4.095,-3.8328,-3.6694,-3.4104,0.0,0.0,-3.097,-3.114,-3.0987,0.0,-3.2361,0.0,0.0,0.0,0.0,0.0,0.0,0.0,0.0,0.0,0.0,0.0,0.0,-4.7826,-4.7962,-4.8122,-4.8306,-4.8141,-4.8122,-4.8306,-4.7516,-4.7536,-4.8457,-4.7703,-4.6946,-4.6272,-4.6271,-4.5453,-4.3961,-4.3974,-4.3974,-4.3974,-4.3989,-4.4005,-4.4005,-4.4005,-4.4005,-4.4005,-4.4005,-4.4005,-4.4005,-4.4005,-4.4005,-4.4005,0.0,0.0,0.0,0.0,0.0,0.0,-2.5957,-2.7429,-2.922,-3.1659,-3.1966,-3.159,-3.0559,-2.9089,-2.7525,0.0,0.0,0.0,0.0,0.0,0.0,0.0,0.0,0.0,0.0,0.0,0.0,0.0,0.0,0.0,0.0,0.0,0.0,0.0,0.0,0.0,0.0,0.0,0.0,0.0,0.0,0.0,0.0,0.0,0.0,0.0,0.0,0.0,0.0,0.0,0.0,-3.1715,-3.3457,-3.6857,-4.0113,-3.9546,0.0,0.0,-4.3477,-4.4045,-4.4259,-4.276,-4.0189,-3.7432,-3.5199,0.0,0.0,-2.9501,-3.0279,-3.1004,-3.0328,-3.0801,-3.1765,0.0,0.0,-3.5832,0.0,0.0,0.0,0.0,0.0,0.0,0.0,0.0,0.0,-4.8522,-4.774,-4.7516,-4.8269,-4.7608,-4.7553,-4.8288,-4.7516,-4.748,-4.8306,-4.7647,-4.6892,-4.6118,-4.6187,-4.5372,-4.382,-4.3883,-4.3913,-4.3913,-4.3974,-4.4005,0.0,-4.4005,-4.4005,-4.4005,-4.4005,-4.4005,-4.4005,-4.4005,-4.4005,-4.4005,0.0,0.0,0.0,0.0,0.0,0.0,-2.659,-2.7477,-2.8907,-3.1818,-3.2614,-3.2614,-3.1771,-3.1092,-2.9444,-2.6327,0.0,0.0,0.0,0.0,0.0,0.0,0.0,0.0,0.0,0.0,0.0,-2.9318,0.0,0.0,0.0,0.0,0.0,0.0,0.0,0.0,0.0,0.0,0.0,0.0,0.0,0.0,0.0,0.0,0.0,0.0,0.0,0.0,0.0,0.0,0.0,0.0,-2.9313,-3.2158,0.0,0.0,-3.98,-4.1694,-4.3047,-4.3995,-4.4124,-4.2134,-3.9749,-3.7313,-3.5013,0.0,-3.1021,-3.0448,-3.0446,-3.0581,-3.0734,-3.0632,-3.0886,0.0,0.0,0.0,0.0,0.0,0.0,0.0,0.0,0.0,0.0,0.0,-4.7722,-4.7738,-4.7348,-4.7241,-4.7553,-4.7278,-4.7241,-4.7571,-4.6801,-4.6526,-4.6856,-4.6581,-4.6066,-4.5328,-4.5879,-4.5322,-4.3804,-4.3837,-4.3867,-4.3897,-4.3929,-4.3958,0.0,-4.4005,-4.4005,-4.4005,-4.4005,-4.4005,-4.4005,-4.4005,-4.4005,-4.4005,0.0,0.0,0.0,0.0,0.0,-2.461,-2.7025,-2.7604,-2.8817,-3.1818,-3.2687,-3.2832,-3.2252,-3.1781,-3.0337,-2.7447,-2.6506,0.0,0.0,0.0,0.0,0.0,0.0,0.0,0.0,0.0,-2.8993,-2.9802,-2.9228,-2.9373,0.0,0.0,0.0,0.0,0.0,0.0,0.0,0.0,0.0,0.0,0.0,0.0,0.0,0.0,0.0,0.0,0.0,0.0,0.0,0.0,0.0,0.0,0.0,0.0,0.0,0.0,-3.7584,-3.9834,-4.1627,-4.2658,-4.2838,-4.1001,-3.887,-3.6705,0.0,0.0,-3.114,-3.092,-3.0632,-3.0531,-3.0818,-3.0632,-3.0598,0.0,0.0,-3.1774,0.0,0.0,0.0,0.0,0.0,-4.4401,0.0,-4.777,-4.7957,-4.7168,-4.7094,-4.7003,-4.6746,-4.6746,-4.6947,-4.7443,-4.6214,-4.5773,-4.625,-4.5773,-4.5295,-4.4778,-4.5403,-4.4996,-4.3703,-4.3719,-4.3769,-4.3816,-4.3865,-4.3929,0.0,-4.3989,-4.4005,-4.4005,-4.4005,-4.4005,-4.4005,-4.4005,-4.4005,-4.4005,0.0,0.0,0.0,0.0,0.0,-2.461,-2.7025,-2.8075,-2.945,-3.1872,-3.2198,-3.2198,-3.2198,-3.0781,-2.9802,-2.9766,-2.9029,0.0,0.0,0.0,0.0,0.0,0.0,0.0,0.0,0.0,-2.8993,-2.9802,-2.9784,-3.0201,-3.098,-3.0165,-2.9784,0.0,0.0,0.0,0.0,0.0,0.0,0.0,0.0,0.0,0.0,0.0,0.0,0.0,0.0,0.0,0.0,0.0,0.0,0.0,0.0,-2.8682,-2.9331,0.0,-3.4438,-3.8091,-3.8836,-3.9588,-3.9977,-3.9208,-3.7313,-3.5228,0.0,0.0,-3.0987,-3.026,-3.0683,-3.097,-3.0243,-3.07,-3.119,-3.119,0.0,0.0,0.0,0.0,0.0,0.0,0.0,-4.2153,-4.4244,-4.6789,-4.7957,-4.7168,-4.7094,0.0,-4.5957,-4.5902,-4.6636,-4.8251,-4.5957,-4.548,-4.7076,-4.5498,-4.4727,-4.4691,-4.4727,-4.4287,-4.3515,-4.3565,-4.3599,-4.3615,-4.3816,-4.3897,0.0,-4.3974,-4.4005,-4.4005,-4.4005,-4.4005,-4.4005,-4.4005,-4.4005,-4.4005,0.0,0.0,0.0,0.0,0.0,0.0,-2.557,-2.6427,-2.7622,-2.9487,-3.0224,-3.0781,-3.1324,-3.0437,-2.9802,-2.9802,-2.8558,0.0,0.0,0.0,0.0,0.0,0.0,0.0,0.0,-2.9137,-2.9807,-3.0618,-3.0618,-3.1034,-3.1799,-3.0998,-3.0618,-3.0581,-2.9784,0.0,0.0,0.0,0.0,0.0,0.0,0.0,0.0,0.0,0.0,0.0,0.0,0.0,0.0,0.0,0.0,0.0,0.0,0.0,0.0,-2.9568,-3.2121,-3.5216,-3.7015,-3.8024,-3.8294,-3.7009,-3.5757,-3.4455,-3.2966,0.0,-3.1123,-3.0903,-3.0632,-3.0531,-3.0801,-3.0632,-3.0864,-3.2143,-3.2341,0.0,0.0,0.0,0.0,0.0,0.0,-4.5907,0.0,0.0,-4.7957,-4.7168,-4.8159,-4.8196,-4.6782,-4.7241,-4.7278,-4.6673,-4.5388,-4.4929,-4.5443,-4.4948,-4.4415,-4.3883,-4.4452,-4.4287,-4.3515,-4.3513,-4.3548,-4.3599,-4.3666,-4.3783,-4.3897,-4.3929,-4.3961,-4.4005,-4.4005,-4.4005,-4.4005,-4.4005,-4.4005,-4.4005,0.0,0.0,0.0,0.0,0.0,0.0,-2.4893,-2.5679,-2.6663,-2.7984,-2.8848,-2.9644,-3.0473,-2.9839,-2.9463,-2.9766,-2.8619,0.0,0.0,0.0,0.0,0.0,0.0,0.0,-2.86,-2.9391,-3.0346,-3.1437,-3.1763,-3.2325,-3.3085,-3.227,-3.1727,-3.1433,-3.0618,-3.0255,0.0,0.0,0.0,0.0,0.0,0.0,-2.86,0.0,0.0,0.0,0.0,0.0,0.0,0.0,0.0,0.0,0.0,0.0,0.0,0.0,-3.0313,-3.229,-3.4827,-3.5859,-3.5977,-3.5008,-3.4218,-3.3359,0.0,0.0,-3.119,-3.119,-3.0835,-3.0666,-3.1106,-3.0818,-3.0936,-3.2226,-3.213,0.0,0.0,0.0,0.0,0.0,0.0,0.0,0.0,-4.7764,-4.7988,-4.7341,-4.843,-4.8578,-4.7359,-4.7348,-4.7076,-4.6379,-4.5278,-4.4691,-4.4691,-4.4397,-4.3993,-4.3515,-4.4011,-4.3975,-4.3515,-4.3515,-4.3513,-4.3565,-4.3582,-4.3666,0.0,-4.3865,-4.3929,-4.3958,-4.3989,-4.4191,-4.4451,-4.4116,-4.4209,-4.4432,0.0,0.0,0.0,0.0,0.0,0.0,0.0,-2.5654,-2.6487,-2.7218,-2.8087,-2.8902,-2.9652,-2.906,-2.8902,-2.9658,-2.9105,0.0,0.0,0.0,0.0,0.0,0.0,0.0,-2.869,-2.9518,-3.0708,-3.2198,-3.3067,-3.3864,-3.4588,-3.39,-3.314,-3.2343,-3.1528,-3.1107,-3.0962,-3.0201,-2.9893,-2.9821,-2.8998,-2.869,0.0,0.0,0.0,0.0,0.0,0.0,0.0,0.0,0.0,0.0,0.0,0.0,0.0,0.0,0.0,0.0,0.0,-3.3169,-3.3152,-3.3102,-3.2594,-3.1972,-3.1275,0.0,0.0,-3.119,-3.1157,-3.1159,-3.1297,-3.1244,-3.1363,-3.1869,0.0,0.0,0.0,-3.5107,0.0,0.0,-4.2951,0.0,-4.5006,-4.6921,-4.799,-4.7642,-4.8028,-4.807,-4.7611,-4.6591,-4.6305,-4.6911,-4.548,-4.4691,-4.4691,-4.3901,-4.3515,-4.3515,-4.3515,-4.3515,-4.3515,-4.3515,-4.3515,0.0,-4.3565,-4.3599,-4.3615,-4.38,-4.3881,-4.3897,-4.3958,-4.4509,-4.5194,-4.4379,-4.4599,-4.5194,0.0,0.0,0.0,0.0,0.0,0.0,0.0,0.0,0.0,0.0,-2.7869,-2.8822,-2.9004,-2.8876,-2.8809,0.0,0.0,0.0,0.0,0.0,0.0,0.0,0.0,0.0,-2.9518,-3.0912,-3.1818,-3.2198,-3.3628,-3.4407,-3.4624,-3.5025,-3.4808,-3.4009,-3.3194,-3.2144,-3.0998,-3.0799,-3.0726,-3.0654,-2.9839,-2.9518,0.0,0.0,0.0,0.0,-2.7771,-2.7811,0.0,0.0,0.0,0.0,0.0,0.0,0.0,0.0,-2.8518,-2.9281,-3.0531,0.0,-3.0751,-3.0194,-3.0328,-3.0581,0.0,0.0,0.0,0.0,0.0,0.0,0.0,0.0,-3.1899,0.0,0.0,0.0,-3.5337,0.0,0.0,-4.1363,-4.4862,-4.6639,-4.5262,-4.6687,-4.7684,-4.7734,-4.7994,-4.7965,-4.7545,-4.7329,-4.6623,-4.5315,-4.4911,-4.4691,-4.4691,-4.3901,-4.3515,-4.3515,-4.3515,-4.3515,-4.3515,-4.3515,-4.3515,-4.3515,-4.3532,-4.3548,-4.3599,-4.3649,-4.3734,-4.3837,-4.3835,-4.4383,-4.5115,-4.493,-4.5053,-4.5361,0.0,0.0,0.0,0.0,0.0,0.0,0.0,0.0,0.0,0.0,-2.7807,-2.8798,-2.8798,-2.8798,-2.8773,0.0,0.0,0.0,0.0,0.0,0.0,0.0,0.0,-2.959,-3.0328,-3.1197,-3.218,-3.3302,-3.4537,-3.5349,-3.5711,-3.6146,-3.5729,-3.4555,-3.3755,-3.2922,-3.2071,-3.1723,-3.1546,-3.1437,-3.0273,0.0,0.0,0.0,0.0,0.0,-2.7742,-2.7753,0.0,-2.8493,-2.8904,-2.9124,0.0,0.0,0.0,0.0,-2.8094,-2.8601,-2.9325,-2.98,-3.0091,-3.0025,-3.0311,-3.0598,-3.0598,0.0,0.0,0.0,0.0,0.0,0.0,0.0,0.0,0.0,-3.3873,0.0,0.0,0.0,0.0,-4.194,-4.4693,-4.6355,0.0,-4.6458,-4.7064,-4.7269,-4.7607,-4.7635,-4.7288,-4.6985,-4.626,-4.5021,-4.4436,-4.4158,-4.4158,-4.3718,-4.3515,-4.3515,-4.3515,-4.3515,-4.3515,-4.3515,-4.3699,-4.403,-4.3644,-4.3734,-4.4081,-4.3747,-4.3651,-4.3719,-4.3788,-4.4556,-4.5619,-4.5249,-4.541,-4.5862,0.0,0.0,0.0,0.0,0.0,0.0,0.0,0.0,0.0,0.0,0.0,0.0,0.0,0.0,0.0,0.0,0.0,0.0,0.0,0.0,0.0,0.0,-2.9445,-2.9849,-3.1329,-3.1379,-3.2433,-3.4606,-3.5514,-3.6327,-3.7013,-3.7249,-3.6435,-3.4736,-3.381,-3.3393,-3.3357,-3.2669,-3.2379,-3.2234,-3.0636,0.0,0.0,0.0,0.0,0.0,0.0,0.0,0.0,-2.8354,-2.9055,-2.9454,-2.8847,0.0,0.0,0.0,0.0,0.0,-2.8575,-2.9319,-3.0053,-3.068,-3.0898,-3.0982,-3.1002,0.0,0.0,0.0,0.0,0.0,0.0,-3.118,0.0,0.0,0.0,0.0,-3.6814,-3.9155,-4.1014,-4.2037,-4.394,0.0,-4.5814,-4.6143,-4.6358,-4.6519,-4.6878,-4.6952,-4.6682,-4.5912,-4.5311,-4.493,-4.3926,-4.341,-4.341,-4.348,-4.3515,-4.3515,-4.3515,-4.3515,-4.3515,-4.3515,-4.3864,-4.4488,0.0,0.0,-4.447,-4.3842,-4.3582,-4.36,-4.3703,-4.4781,-4.6197,-4.5495,-4.584,-4.6533,0.0,0.0,0.0,0.0,0.0,0.0,0.0,0.0,0.0,0.0,0.0,0.0,0.0,0.0,0.0,0.0,0.0,0.0,0.0,0.0,0.0,-3.0799,-3.1347,-3.2071,-3.3013,-3.3031,-3.3556,-3.4606,-3.6091,-3.6886,-3.7031,-3.839,-3.7812,-3.555,-3.4063,-3.3393,-3.3393,-3.3266,-3.3212,-3.3085,-3.1469,0.0,0.0,0.0,0.0,0.0,0.0,0.0,0.0,-2.7301,-2.851,-2.9952,-2.7759,0.0,0.0,0.0,0.0,0.0,-2.8365,-2.8818,-2.8955,-2.913,-2.9544,-2.9959,-3.0073,0.0,0.0,0.0,0.0,0.0,0.0,-3.2104,-3.2693,0.0,0.0,-3.7349,0.0,0.0,-4.2068,-4.2834,0.0,-4.5384,-4.3968,-4.5333,-4.6116,-4.5708,-4.5681,-4.5552,-4.5158,-4.4178,-4.3455,-4.311,-4.3028,-4.2976,-4.2976,-4.3322,-4.3515,-4.3515,-4.3515,-4.3515,-4.3515,-4.3515,-4.357,-4.368,0.0,-4.357,-4.368,-4.3551,-4.3532,-4.3532,-4.3549,-4.4593,-4.6117,-4.5988,-4.6573,-4.7228,0.0,0.0,0.0,0.0,0.0,0.0,0.0,0.0,0.0,0.0,0.0,0.0,0.0,0.0,0.0,0.0,0.0,0.0,0.0,0.0,-3.1052,-3.2043,-3.2424,-3.2862,-3.3393,-3.3393,-3.4101,-3.5515,-3.6952,-3.7729,-3.7864,-3.7584,-3.6635,-3.5098,-3.3918,-3.3286,-3.3083,-3.3083,-3.2957,-3.2709,0.0,0.0,0.0,0.0,0.0,0.0,0.0,0.0,0.0,0.0,-2.8186,-2.9076,-2.7725,0.0,0.0,0.0,0.0,0.0,-2.7719,-2.8285,-2.8686,-2.9128,-2.9819,-3.0415,-3.0474,0.0,0.0,0.0,0.0,0.0,0.0,0.0,-3.4392,-3.6434,0.0,-3.8459,-4.0595,-4.0948,-4.1254,0.0,0.0,-4.4291,-4.3464,-4.459,-4.5347,-4.5274,-4.5257,-4.4951,-4.4291,-4.4,-4.3384,-4.2338,-4.2616,-4.2825,-4.2901,-4.3069,-4.3286,-4.3515,-4.3515,-4.3515,-4.3515,-4.3515,-4.3736,-4.4121,0.0,-4.3736,-4.4103,-4.368,-4.3515,-4.3515,-4.3515,-4.4577,-4.6156,-4.6633,-4.7145,-4.7433,0.0,0.0,0.0,0.0,0.0,0.0,0.0,0.0,0.0,0.0,0.0,0.0,0.0,0.0,0.0,0.0,0.0,0.0,0.0,-3.1062,-3.1664,-3.2541,-3.2741,-3.3122,-3.3687,-3.3674,-3.4555,-3.6414,-3.7685,-3.8331,-3.8324,-3.6609,-3.529,-3.4301,-3.3492,-3.2975,-3.2682,-3.2682,-3.2535,-3.223,0.0,0.0,0.0,0.0,0.0,0.0,0.0,0.0,0.0,0.0,0.0,0.0,0.0,0.0,0.0,-2.6773,-2.6486,-2.6583,-2.7211,-2.7906,-2.8605,-2.919,-3.0106,-3.0945,-3.1133,-3.0824,0.0,0.0,0.0,0.0,0.0,-3.2963,0.0,-3.8164,-3.8676,-3.9242,-4.0653,-4.0573,-4.0671,-4.1537,-4.2535,-4.3122,-4.3122,-4.381,-4.4292,-4.4347,-4.4484,-4.416,-4.3301,-4.3576,-4.3169,-4.186,-4.2277,-4.2537,-4.2557,-4.2768,-4.3069,-4.3515,-4.3515,-4.3515,-4.3515,-4.3515,-4.3828,-4.4378,-4.3754,-4.3846,-4.4378,-4.3754,-4.3515,-4.3515,-4.3515,-4.4541,-4.6175,-4.726,-4.7608,-4.7456,0.0,0.0,0.0,0.0,0.0,0.0,0.0,0.0,0.0,0.0,0.0,0.0,0.0,0.0,0.0,0.0,0.0,0.0,0.0,-3.0604,-3.1235,-3.1326,-3.1981,-3.3054,-3.457,-3.448,-3.5197,-3.6753,-3.7993,-3.8255,-3.7649,-3.6394,-3.5009,-3.353,-3.2737,-3.2368,-3.2351,-3.2351,-3.2334,-3.223,-3.1424,0.0,0.0,0.0,0.0,0.0,0.0,0.0,0.0,0.0,0.0,0.0,0.0,0.0,-2.7441,-2.6565,-2.6313,-2.6462,-2.712,-2.7848,-2.8428,-2.8478,-2.952,0.0,-3.1574,-3.161,0.0,-3.2518,0.0,0.0,0.0,-3.395,-3.6027,-3.8082,-3.9032,-4.0216,-4.2249,0.0,-4.158,-4.2814,-4.2628,-4.2371,-4.2371,-4.2886,-4.2906,-4.2178,-4.2585,-4.2514,-4.171,-4.1805,-4.1697,-4.126,-4.1709,-4.1839,-4.1604,-4.234,-4.2976,-4.3515,-4.3515,-4.3515,-4.3515,-4.3515,-4.3533,-4.3588,-4.3533,-4.3533,-4.3588,-4.3533,-4.3515,-4.3515,-4.3515,-4.4488,-4.6122,-4.7795,-4.7942,-4.7316,0.0,0.0,0.0,0.0,0.0,0.0,0.0,0.0,0.0,0.0,0.0,0.0,0.0,0.0,0.0,0.0,0.0,0.0,0.0,-3.0894,-3.1483,-3.1689,-3.1882,-3.24,-3.33,-3.4149,-3.4957,-3.5743,-3.6242,-3.6478,-3.6446,-3.5027,-3.3793,-3.2739,-3.244,-3.2162,-3.1932,-3.1932,-3.1822,-3.155,-3.0792,-2.9965,0.0,0.0,0.0,0.0,0.0,0.0,0.0,0.0,-2.6961,-2.7199,-2.6742,-2.6739,-2.6837,-2.6414,-2.6277,-2.6289,-2.6553,-2.7497,-2.8392,-2.8392,-2.9466,0.0,0.0,-3.1807,-3.254,-3.2835,-3.3983,0.0,0.0,0.0,-3.6795,-3.8757,-3.9535,-4.0463,-4.199,-4.1619,-4.1383,-4.1869,-4.213,-4.2117,-4.166,-4.2209,-4.2398,-4.195,-4.2098,-4.1986,-4.1534,-4.1825,-4.1713,-4.1082,-4.1534,-4.1648,-4.1388,-4.1678,-4.2282,-4.3142,-4.3375,-4.3515,-4.3515,-4.3515,-4.3515,-4.3515,-4.3515,-4.3515,-4.3515,-4.3515,-4.3515,-4.3551,-4.4048,-4.4929,-4.603,-4.7205,-4.7794,-4.7979,0.0,0.0,0.0,0.0,0.0,0.0,0.0,0.0,0.0,0.0,0.0,0.0,0.0,0.0,0.0,0.0,0.0,0.0,-3.0559,-3.1186,-3.1637,-3.1823,-3.1714,-3.1888,-3.2428,-3.3608,-3.455,-3.5253,-3.5299,-3.5169,-3.4871,-3.3658,-3.2715,-3.195,-3.195,-3.1804,-3.1543,-3.1543,-3.1408,-3.114,-3.0395,-2.9651,0.0,0.0,0.0,0.0,0.0,0.0,0.0,0.0,-2.6691,-2.6657,-2.6589,-2.652,-2.6416,-2.6294,-2.624,-2.6202,-2.6202,-2.728,-2.8343,0.0,0.0,0.0,-3.1261,-3.2324,-3.3378,-3.3788,-3.5084,0.0,0.0,0.0,0.0,0.0,-3.9655,-4.0332,-4.1142,-4.1019,-4.0849,-4.0849,-4.1288,-4.139,-4.0899,-4.1305,-4.1511,-4.1344,-4.1334,-4.1264,-4.1082,-4.1499,-4.1472,-4.0795,-4.118,-4.1293,-4.1065,-4.1168,-4.1635,-4.24,-4.2865,-4.3214,-4.3515,-4.3515,-4.3515,-4.3515,-4.3515,-4.3515,-4.3515,-4.3515,-4.3515,-4.3588,-4.4397,-4.5186,-4.5993,-4.6801,-4.7683,-4.8309,0.0,0.0,0.0,0.0,0.0,0.0,0.0,0.0,-2.7299,-2.7299,-2.7299,0.0,0.0,0.0,0.0,0.0,0.0,0.0,-3.1058,-3.1425,-3.1578,-3.1481,-3.137,-3.1613,-3.2276,-3.3,-3.4095,-3.5583,-3.5566,-3.4636,-3.2888,-3.2477,-3.1921,-3.119,-3.1207,-3.1207,-3.119,-3.119,-3.119,-3.114,-3.0395,-2.9651,-2.8925,0.0,0.0,0.0,0.0,0.0,0.0,0.0,-2.6657,-2.6606,-2.652,-2.6416,-2.6278,-2.6221,-2.6202,-2.6202,-2.6202,-2.728,-2.821,0.0,0.0,0.0,-3.2547,-3.3299,-3.422,-3.5727,0.0,-3.6241,-3.6986,0.0,0.0,-3.8294,-3.9234,-3.9901,-3.9901,-4.0011,-4.0096,-4.0096,-4.0096,-4.0096,-4.0096,-4.0096,-4.0096,-4.0096,-4.0096,-4.0096,-4.0096,-4.0556,-4.0669,-4.0305,-4.0604,-4.07,-4.051,-4.0902,-4.1168,-4.1303,-4.1909,-4.2655,-4.3479,-4.3479,-4.3497,-4.3515,-4.3515,-4.3515,-4.3515,-4.3515,-4.3515,-4.3588,-4.4378,-4.5186,-4.5993,-4.6782,-4.759,-4.8159,0.0,0.0,0.0,0.0,0.0,0.0,0.0,0.0,-2.7299,-2.7299,-2.7299,0.0,0.0,0.0,0.0,0.0,0.0,0.0,-3.0006,-3.095,-3.1297,-3.0747,-3.1055,-3.1314,-3.1532,-3.2259,-3.3359,-3.4827,-3.3271,-3.2507,-3.2494,-3.2354,-3.1921,-3.1207,-3.1752,-3.1701,-3.119,-3.119,-3.119,-3.114,-3.0395,-2.9973,-2.9634,0.0,0.0,0.0,0.0,0.0,0.0,0.0,0.0,0.0,-2.6589,-2.6503,-2.6416,-2.6294,-2.624,-2.6319,-2.6816,-2.7282,0.0,-2.9234,0.0,0.0,0.0,-3.4419,0.0,0.0,-3.7135,-3.7003,-3.7748,0.0,0.0,-3.8352,-3.914,-3.9781,-3.9901,-3.9935,-3.9986,-4.007,-4.0096,-4.0096,-4.0096,-4.0096,-4.0096,-4.0096,-4.0096,-4.0096,-4.0096,-4.0556,-4.0604,-4.0171,-4.058,-4.0652,-4.0362,-4.0468,-4.0754,-4.1168,-4.1348,-4.1997,-4.3087,-4.3087,-4.3232,-4.3515,-4.3515,-4.3515,-4.3515,-4.3515,-4.3515,-4.3533,-4.3754,-4.4342,-4.5094,-4.5315,-4.592,-4.6507,0.0,0.0,0.0,0.0,0.0,0.0,0.0,0.0,-2.7299,-2.7299,-2.7299,-2.7575,0.0,0.0,0.0,0.0,0.0,0.0,0.0,-3.0825,-3.0987,-3.0759,-3.1072,-3.1368,-3.1633,-3.1802,-3.2446,-3.363,-3.2293,-3.1718,-3.187,-3.2158,-3.2056,-3.1667,-3.2107,-3.2056,-3.1633,-3.1309,-3.119,-3.114,-3.0395,-2.9922,-2.9533,0.0,0.0,0.0,0.0,0.0,0.0,0.0,0.0,0.0,-2.6623,-2.6554,-2.6485,-2.6416,-2.6293,-2.6303,-2.6771,-2.7319,0.0,-2.9682,-3.1267,-3.3061,-3.5263,0.0,0.0,0.0,0.0,-3.7765,-3.8493,-3.8472,0.0,-3.869,-3.9237,-3.9642,-3.972,-3.9798,-3.9858,-4.0011,-4.0011,-4.0037,-4.0096,-4.0096,-4.0096,-4.0096,-4.0096,-4.0096,-4.0096,-4.0377,-4.0402,-4.0096,-4.0377,-4.0427,-4.0213,-4.0263,-4.0468,-4.0784,-4.0849,-4.1321,-4.22,-4.2616,-4.2976,-4.3268,-4.3268,-4.3357,-4.3497,-4.3322,-4.3174,-4.302,-4.302,-4.3314,-4.3754,-4.3754,-4.447,-4.5314,0.0,0.0,-2.6335,-2.7161,0.0,0.0,0.0,0.0,-2.7299,-2.7299,-2.7299,-2.7575,0.0,0.0,0.0,0.0,0.0,-3.0987,-3.1461,-3.0911,-3.0768,-3.1176,-3.1261,-3.1596,-3.2192,-3.1529,-3.1532,-3.2209,-3.2209,-3.187,-3.1207,-3.2022,-3.2361,-3.2293,-3.2361,-3.2327,-3.2158,-3.141,-3.1106,-3.1038,-3.0378,-2.9702,-2.901,-2.8196,0.0,0.0,0.0,0.0,0.0,0.0,0.0,0.0,-2.664,-2.6571,-2.6502,-2.6502,-2.6362,-2.6238,-2.636,0.0,0.0,-2.9417,-3.1868,0.0,-3.682,-3.7831,-3.8477,-3.9083,0.0,-3.851,-3.9183,-3.8742,-3.8526,-3.9199,-3.9405,-3.9501,-3.9501,-3.9616,-3.9729,-3.9875,-3.9875,-3.9935,-4.0062,-4.007,-4.0087,-4.0087,-4.0096,-4.0096,-4.0096,-4.0096,-4.0096,-4.0096,-4.0096,-4.0096,-4.0096,-4.0213,-4.028,-4.0263,-4.0412,-4.0652,-4.1053,-4.2098,-4.2638,-4.2774,-4.2701,-4.2869,-4.319,-4.2905,-4.2541,-4.2144,-4.2343,-4.2323,-4.2194,-4.2268,-4.3185,-4.4287,0.0,0.0,-2.6335,-2.7161,0.0,0.0,0.0,0.0,0.0,-2.7299,0.0,0.0,0.0,0.0,0.0,0.0,-3.1069,-3.1186,-3.0698,-3.0948,-3.0908,-3.0462,-3.0946,-3.1278,-3.1427,-3.1275,-3.1275,-3.1427,-3.1427,-3.1362,-3.1224,-3.2544,-3.2848,-3.2327,-3.2899,-3.251,-3.1396,-3.0649,-3.0345,-3.0328,-3.0176,-3.0006,-2.9786,-2.9025,-2.8247,0.0,0.0,0.0,0.0,0.0,0.0,0.0,-2.6691,-2.6589,-2.6502,-2.6502,-2.6362,-2.6336,-2.6919,-2.7732,0.0,0.0,-3.3766,-3.682,-3.8444,-3.8967,-3.8924,-3.8526,-3.8758,-3.9116,-3.9265,-3.9183,-3.9133,-3.9282,-3.9325,-3.9379,-3.9501,-3.9511,-3.959,-3.9729,-3.9729,-3.9755,-3.9781,-3.9884,-3.9935,-3.9935,-4.0037,-4.0096,-4.0096,-4.0096,-4.0096,-4.0096,-4.0096,-4.0096,-4.0096,-4.0138,-4.0138,-4.0121,-4.0171,-4.0296,-4.0517,-4.1253,-4.17,-4.185,-4.1216,-4.1035,-4.1196,-4.1724,-4.1542,-4.105,-4.2624,-4.247,-4.1425,-4.2066,-4.2121,-4.1939,0.0,0.0,0.0,0.0,0.0,0.0,0.0,0.0,0.0,0.0,0.0,0.0,0.0,0.0,0.0,0.0,-2.9933,-2.9878,-2.9789,-3.0056,-3.0393,-3.0658,-3.1009,-3.119,-3.119,-3.119,-3.119,-3.119,-3.119,-3.119,-3.1224,-3.2713,-3.3186,-3.2831,-3.3237,-3.278,-3.1684,-3.0937,-3.0429,-3.0123,-3.048,-3.0429,-3.0023,-2.9281,-2.8501,-2.7705,-2.6962,0.0,0.0,0.0,0.0,0.0,0.0,0.0,-2.6502,-2.6537,-2.638,-2.6286,-2.6723,0.0,0.0,-3.1951,0.0,-3.687,-3.798,-3.851,-3.8659,-3.8295,-3.8775,-3.9299,-3.9299,-3.9017,-3.8758,-3.8758,-3.8758,-3.8669,-3.8399,-3.8648,-3.8783,-3.8597,-3.8864,-3.9107,-3.9158,-3.9554,-3.9807,-3.9807,-3.9935,-4.0011,-4.0011,-4.0062,-4.0096,-4.0096,-4.0096,-4.0096,-4.0096,-4.0096,-4.0096,-4.0096,-4.0096,-4.0163,-4.0313,-4.0926,-4.1388,-4.166,-4.1087,-4.0792,-4.0738,-4.1352,-4.1053,-4.0328,-4.1541,-4.1263,-4.0206,-4.0478,-4.0799,-4.115,0.0,0.0,0.0,0.0,0.0,0.0,0.0,0.0,0.0,0.0,0.0,0.0,0.0,0.0,-2.8391,0.0,0.0,0.0,-2.9051,-2.9084,-2.959,-3.0787,-3.0818,-3.0818,-3.0818,-3.0818,-3.0818,-3.0818,-3.0954,-3.1072,-3.1224,-3.2713,-3.3406,-3.3406,-3.3406,-3.2916,-3.2056,-3.1193,-3.0463,-2.9956,-3.0429,-3.026,-2.9651,-2.9025,-2.8298,-2.7536,-2.6911,-2.6691,-2.6708,-2.6843,0.0,0.0,0.0,0.0,-2.6872,-2.679,-2.6599,-2.6388,-2.631,0.0,-2.942,-3.2911,-3.48,0.0,-3.6903,-3.7582,-3.803,-3.803,-3.8692,-3.9299,-3.9299,-3.8692,-3.8186,-3.8186,-3.8096,-3.7814,-3.7201,-3.7632,-3.7807,-3.7328,-3.7794,-3.8228,-3.8346,-3.8915,-3.9292,-3.9292,-3.9412,-3.9539,-3.9673,-3.9682,-3.9724,-3.9859,-3.9766,-3.9673,-3.9537,-3.9537,-3.9537,-3.9537,-3.9673,-3.9909,-4.0263,-4.0593,-4.1021,-4.1449,-4.1038,-4.0727,-4.0577,-4.1077,-4.0673,-3.98,-4.0327,-3.995,-3.9065,-3.8789,-3.9591,-4.0811,0.0,0.0,0.0,0.0,0.0,0.0,0.0,0.0,0.0,0.0,-2.7425,-2.7959,0.0,-2.7826,-2.8118,-2.8186,-2.8662,-2.8983,-2.9012,0.0,0.0,-2.9297,-2.9297,-2.9297,-2.9297,-2.9297,-2.9297,-2.9297,-2.9922,-3.0581,-3.1224,-3.2713,-3.3406,-3.3406,-3.3406,-3.2645,-3.1258,-2.989,-2.9247,-2.9094,-2.8501,-2.8196,-2.8094,-2.7993,-2.7503,-2.6826,-2.6725,-2.6691,-2.6793,-2.7435,-2.7655,0.0,0.0,0.0,-2.8353,-2.7679,-2.7352,-2.7092,0.0,0.0,-3.0013,0.0,-3.4419,-3.5413,0.0,0.0,-3.7251,0.0,0.0,0.0,0.0,0.0,0.0,0.0,0.0,0.0,0.0,-3.7185,-3.7218,-3.7144,-3.721,-3.7276,-3.7302,-3.7494,-3.762,-3.762,-3.7744,-3.8095,-3.8732,-3.8286,-3.831,-3.8967,-3.8458,-3.7889,-3.7252,-3.7235,-3.7235,-3.7252,-3.7889,-3.8877,-4.0104,-3.9534,-3.9585,-4.01,-3.9376,-3.9051,-3.9155,-4.0027,-3.9878,-3.9245,-4.0511,-4.0045,-3.8685,-3.8707,-3.9049,-3.9654,0.0,0.0,0.0,0.0,0.0,0.0,0.0,0.0,0.0,0.0,0.0,-2.7164,0.0,-2.7147,-2.713,-2.7043,-2.7469,-2.7911,-2.8298,-2.8332,-2.8518,-2.8976,-2.8993,-2.8993,-2.8993,-2.8993,-2.8993,-2.8993,-2.9313,-3.0296,-3.1836,-3.2476,-3.322,-3.3998,-3.3592,-3.2814,-3.1718,-3.0243,-2.9382,-2.8976,-2.8602,-2.8467,-2.8416,-2.7976,-2.7604,-2.7249,-2.6843,-2.6691,-2.681,-2.7553,-2.7807,-2.7942,-2.8756,0.0,0.0,0.0,-2.7522,0.0,-2.6919,-2.781,-2.9334,0.0,-3.2514,0.0,0.0,0.0,0.0,0.0,0.0,0.0,0.0,0.0,0.0,0.0,0.0,0.0,0.0,0.0,0.0,-3.5926,-3.6241,-3.6489,-3.6489,-3.6904,-3.7186,-3.7186,-3.6928,-3.6926,-3.726,-3.6743,-3.6609,-3.6946,-3.6719,-3.6468,-3.6129,-3.6129,-3.6129,-3.6146,-3.6907,-3.7625,-3.8251,-3.8328,-3.8751,-3.9384,-3.9093,-3.8745,-3.8414,-3.9348,-3.9318,-3.8802,-4.0038,-3.9882,-3.8974,-3.921,-3.9706,-4.0325,0.0,0.0,0.0,0.0,0.0,0.0,0.0,0.0,0.0,0.0,0.0,0.0,0.0,0.0,0.0,0.0,-2.6367,-2.6809,-2.7486,-2.7519,-2.7791,-2.84,-2.8328,-2.8311,-2.8417,-2.8328,-2.8311,-2.8417,-2.8604,-2.9839,-3.2022,-3.2209,-3.319,-3.4742,-3.4015,-3.3169,-3.2226,-3.092,-3.0057,-2.9534,-2.9145,-2.8993,0.0,0.0,-2.8094,-2.801,-2.7249,-2.7097,-2.7385,-2.7926,-2.8229,-2.8517,-2.9314,-2.9495,0.0,0.0,0.0,0.0,0.0,0.0,-2.8445,0.0,0.0,0.0,0.0,0.0,0.0,0.0,0.0,0.0,0.0,0.0,0.0,0.0,0.0,0.0,0.0,0.0,0.0,0.0,0.0,0.0,-3.5462,-3.5943,-3.6191,-3.6009,-3.5542,-3.5381,-3.558,-3.5153,-3.4987,-3.5149,-3.5076,-3.494,-3.4776,-3.4776,-3.4878,-3.5042,-3.5842,-3.6423,-3.6829,-3.7364,-3.7922,-3.8471,-3.8747,-3.8635,-3.8296,-3.8836,-3.8783,-3.8414,-3.9276,-3.9338,-3.9002,-3.9321,-4.0002,-4.0842,0.0,0.0,0.0,0.0,0.0,0.0,0.0,0.0,0.0,0.0,0.0,0.0,-2.5852,-2.5629,-2.554,-2.554,-2.589,-2.6314,-2.6725,-2.6759,-2.6776,-2.681,-2.645,0.0,-2.681,-2.6466,-2.6432,-2.681,-2.7519,-2.9042,-3.1258,-3.1972,-3.3457,-3.5498,-3.4776,-3.3626,-3.2242,0.0,0.0,0.0,0.0,0.0,0.0,0.0,0.0,0.0,0.0,0.0,0.0,0.0,0.0,0.0,-3.0852,-3.1072,-3.0782,0.0,0.0,0.0,0.0,-2.6895,0.0,0.0,0.0,0.0,0.0,0.0,0.0,0.0,0.0,0.0,0.0,0.0,0.0,0.0,0.0,0.0,0.0,0.0,0.0,0.0,0.0,0.0,0.0,0.0,0.0,0.0,-3.2901,-3.3183,-3.3895,-3.349,-3.355,-3.4253,-3.3785,-3.3169,-3.2479,-3.2462,-3.2814,-3.3525,-3.4269,-3.5391,-3.6795,-3.6846,-3.688,-3.6948,-3.7652,-3.8328,-3.8911,-3.8377,-3.8159,-3.8125,-3.8241,-3.8294,-3.8282,-3.8437,-3.9205,-4.0272,0.0,0.0,0.0,0.0,0.0,0.0,0.0,0.0,0.0,0.0,0.0,0.0,0.0,-2.5176,-2.5253,-2.5137,-2.5484,-2.5781,-2.5926,-2.5926,-2.5926,-2.5926,-2.5799,-2.5781,-2.5926,-2.5781,-2.5908,-2.6315,-2.6565,-2.8013,-3.0497,-3.0768,-3.1816,-3.3491,-3.3694,-3.3508,-3.2899,-3.1207,0.0,0.0,0.0,0.0,0.0,0.0,0.0,0.0,0.0,0.0,0.0,0.0,0.0,0.0,-3.097,-3.119,-3.0883,-2.9267,-2.805,0.0,0.0,0.0,0.0,0.0,0.0,0.0,0.0,0.0,0.0,0.0,0.0,0.0,0.0,0.0,0.0,0.0,0.0,0.0,0.0,0.0,0.0,0.0,0.0,0.0,0.0,0.0,0.0,0.0,0.0,-3.2095,-3.2359,-3.1869,-3.1687,-3.1954,-3.1896,-3.177,-3.1616,-3.1599,-3.1715,-3.2002,-3.275,-3.3647,-3.4624,-3.4624,-3.5419,-3.6761,-3.6028,-3.6417,-3.7574,-3.735,-3.7301,-3.7415,-3.8448,-3.8564,-3.8265,-3.8877,-3.9382,-3.9749,0.0,0.0,0.0,-2.5221,0.0,-2.5337,-2.4682,-2.4956,-2.4937,-2.4127,0.0,0.0,0.0,0.0,-2.4899,-2.4902,-2.5345,-2.5609,-2.55,-2.5503,-2.5503,-2.5503,-2.537,-2.5351,-2.5503,-2.537,-2.5503,-2.589,-2.6034,-2.7278,-2.953,-2.9933,-3.0886,-3.2327,-3.2797,-3.3034,0.0,0.0,0.0,-3.0768,0.0,0.0,-3.0059,0.0,0.0,0.0,0.0,0.0,0.0,0.0,0.0,0.0,-3.1055,-3.1021,-3.0511,-2.8933,-2.8069,0.0,-2.6265,0.0,0.0,0.0,0.0,0.0,0.0,0.0,0.0,0.0,0.0,0.0,0.0,0.0,0.0,0.0,0.0,0.0,0.0,0.0,0.0,0.0,0.0,0.0,0.0,0.0,0.0,0.0,0.0,0.0,-3.1234,-3.0896,-3.0829,-3.112,-3.1284,-3.1523,-3.1874,-3.1661,-3.1582,-3.1562,-3.2327,-3.2797,-3.3051,-3.3541,-3.4455,-3.5605,-3.4827,-3.5374,-3.6778,-3.6524,-3.6412,-3.6633,-3.816,-3.8496,-3.8199,-3.9084,-3.9429,-3.9427,-2.4333,-2.4866,-2.5327,-2.5327,-2.5342,-2.5358,-2.5327,-2.4795,-2.4364,-2.4364,0.0,0.0,0.0,0.0,0.0,-2.4906,-2.5526,-2.5767,-2.5508,-2.5481,-2.5465,-2.5465,-2.5082,-2.5079,-2.5465,-2.5079,-2.5079,-2.5484,-2.5872,-2.6849,-2.8381,-2.9494,-3.0796,-3.2185,-3.2239,-3.2239,-3.2239,0.0,-3.2276,-3.2209,0.0,-3.1593,-3.2239,0.0,0.0,0.0,-3.1624,-3.1593,0.0,-3.056,0.0,0.0,0.0,-3.0734,-2.9818,-2.8314,-2.7822,0.0,0.0,0.0,0.0,0.0,0.0,0.0,-2.6934,0.0,-2.7663,0.0,0.0,0.0,0.0,0.0,0.0,0.0,0.0,0.0,0.0,0.0,0.0,0.0,0.0,0.0,0.0,0.0,0.0,0.0,-3.0506,-3.0506,-3.0506,-3.063,-3.1066,-3.1926,-3.2013,-3.2408,-3.3165,-3.2583,-3.231,-3.2327,-3.3034,-3.3,-3.2378,-3.3783,-3.4032,-3.344,-3.415,-3.534,-3.6677,-3.5904,-3.5616,-3.5785,-3.7313,-3.7922,-3.8024,-3.8863,-3.9238,-3.9262,-2.4927,-2.561,-2.6087,-2.6087,-2.6503,-2.6657,-2.6164,-2.5933,-2.5795,0.0,0.0,0.0,-2.5764,-2.5795,-2.5786,-2.5902,-2.5644,-2.5423,-2.5363,-2.49,-2.4619,-2.4619,-2.4533,-2.4513,-2.4619,-2.4513,-2.4659,-2.5079,-2.5179,-2.5857,-2.7111,-2.7977,-2.8874,-2.9786,-3.0626,-3.0999,-3.102,-3.1358,0.0,-3.1458,-3.0803,-3.0655,0.0,0.0,0.0,0.0,0.0,-2.9749,-3.0172,0.0,-3.0528,-3.1394,0.0,0.0,-3.0717,-2.9734,-2.9351,0.0,-2.7374,0.0,0.0,0.0,0.0,0.0,-2.6286,-2.6501,-2.6658,0.0,0.0,0.0,0.0,0.0,0.0,0.0,0.0,0.0,0.0,0.0,0.0,0.0,0.0,0.0,0.0,0.0,0.0,0.0,-3.0506,-3.0506,-3.0506,-3.0547,-3.0713,-3.1053,-3.1074,-3.1504,-3.232,-3.221,-3.242,-3.2959,-3.2726,-3.2784,-3.3068,-3.2408,-3.2577,-3.3423,-3.3626,-3.4252,-3.5148,-3.5464,-3.5943,-3.6552,-3.7533,-3.8227,-3.8674,-3.8421,-3.8404,-3.835,-2.5687,-2.6334,-2.6834,-2.6834,-2.7134,-2.7257,-2.6872,-2.6318,-2.6041,0.0,0.0,0.0,-2.6325,-2.6872,-2.6942,-2.6395,-2.598,-2.5641,-2.5312,-2.4666,-2.4425,-2.4697,-2.4733,-2.4872,-2.5164,-2.5179,-2.5292,-2.5529,-2.5701,-2.6132,-2.6791,-2.7642,-2.8253,-2.8731,-2.969,-3.0086,-3.0043,0.0,0.0,0.0,-3.0518,0.0,0.0,-2.9679,-2.9695,0.0,0.0,0.0,-3.0201,-2.9776,-3.0225,0.0,0.0,0.0,0.0,0.0,0.0,0.0,0.0,0.0,0.0,0.0,0.0,0.0,-2.5839,-2.5901,-2.5889,0.0,-2.6354,0.0,0.0,0.0,0.0,0.0,0.0,0.0,0.0,0.0,0.0,0.0,0.0,0.0,0.0,-3.1135,-3.0952,-3.0522,-3.0506,-3.0506,-3.0506,-3.0506,-3.068,-3.1058,-3.1137,-3.155,-3.2386,-3.2534,-3.2816,-3.3237,-3.2925,-3.2814,-3.2916,-3.2374,-3.2408,-3.2983,-3.3592,-3.41,-3.4556,-3.5295,-3.6079,-3.688,-3.7618,-3.8159,-3.8481,-3.8095,-3.784,-3.7524,0.0,-2.7042,-2.7503,-2.7503,-2.7565,-2.7626,-2.7626,-2.6503,-2.5918,0.0,-2.6164,-2.6019,-2.6749,-2.7842,-2.8027,-2.6826,-2.6595,-2.6226,-2.5573,-2.4918,-2.481,-2.5389,-2.5419,-2.5733,-2.6402,-2.6402,-2.6402,-2.6402,-2.6748,-2.6907,-2.6922,-2.789,-2.8339,-2.8371,-2.9153,-2.9429,-2.9339,0.0,0.0,-3.0777,-3.0293,-3.0419,0.0,0.0,-3.0632,-3.1182,-3.0472,-3.0648,-3.0999,-2.9826,-2.9772,0.0,0.0,0.0,0.0,0.0,-2.9911,0.0,0.0,0.0,0.0,0.0,0.0,0.0,-2.5831,-2.5756,-2.5659,-2.5091,-2.5528,0.0,0.0,0.0,0.0,0.0,0.0,0.0,0.0,0.0,0.0,0.0,0.0,0.0,-3.0307,-3.0373,-3.0406,-3.0489,-3.0506,-3.0506,-3.0506,-3.0506,-3.0803,-3.1466,-3.1589,-3.2002,-3.274,-3.3024,-3.3232,-3.3383,-3.3288,-3.2966,-3.2446,-3.3017,-3.2916,-3.2378,-3.3783,-3.4421,-3.4539,-3.5216,-3.6045,-3.6981,-3.755,-3.7939,-3.8125,-3.7973,-3.7536,-3.7024,-2.7088,-2.775,-2.8211,-2.8211,-2.8658,-2.9027,-2.9027,-2.8319,-2.8042,-2.8735,-2.8704,-2.8849,-2.9541,-2.9356,-2.9119,-2.8842,-2.7827,-2.7134,-2.6995,-2.6364,-2.6041,-2.618,-2.618,-2.6241,-2.6402,-2.6402,-2.6402,-2.6402,-2.6364,-2.6364,-2.6364,0.0,0.0,-2.7349,-2.8389,-2.8873,-2.8873,0.0,0.0,-2.9508,-2.9042,0.0,-2.8983,-2.851,-2.866,-2.9051,-2.8645,-2.8805,-2.9289,-2.9506,-2.9343,-2.9258,0.0,0.0,0.0,-3.0064,0.0,0.0,0.0,0.0,0.0,0.0,0.0,0.0,-2.7238,-2.7401,-2.7369,0.0,0.0,0.0,0.0,0.0,0.0,0.0,0.0,0.0,0.0,0.0,0.0,0.0,0.0,0.0,-2.9546,-2.9612,-2.986,-3.0456,-3.0506,-3.0506,-3.0506,-3.0506,-3.0572,-3.0704,-3.0742,-3.1111,-3.184,-3.2024,-3.2754,-3.3996,-3.2879,-3.2647,-3.3169,-3.2713,-3.2446,-3.2344,-3.322,-3.3947,-3.4506,-3.4658,-3.5893,-3.7635,-3.7178,-3.8115,-3.9537,-3.8345,-3.7841,-3.7681,-2.7827,-2.8181,-2.8519,-2.8842,-2.8904,-2.9027,-2.9341,-2.855,-2.8273,-2.9273,-2.9981,0.0,0.0,0.0,0.0,0.0,0.0,-2.7396,-2.7396,-2.6765,-2.6534,-2.6872,-2.6888,-2.7057,-2.738,-2.7333,-2.7287,-2.7287,-2.7169,-2.7098,0.0,0.0,0.0,0.0,-2.8003,-2.8213,-2.8174,0.0,-2.8519,-2.8408,-2.8472,0.0,-2.8367,-2.7885,-2.7835,-2.8018,-2.785,-2.7934,-2.8247,-2.8885,-2.9114,0.0,0.0,-3.0169,-3.0416,0.0,-3.022,-3.0525,0.0,0.0,0.0,-2.8882,0.0,0.0,0.0,-2.7014,-2.6739,-2.6375,0.0,0.0,0.0,0.0,0.0,0.0,0.0,0.0,0.0,0.0,0.0,0.0,0.0,0.0,-2.8452,-2.8555,-2.8799,-2.9397,-2.9744,-2.9943,-2.9943,-3.029,-3.0506,-3.0506,-3.0506,-3.0671,-3.1052,-3.1544,-3.2195,-3.3016,-3.2739,-3.2862,-3.3355,-3.3275,-3.33,-3.3444,-3.4136,-3.4479,-3.4523,-3.4895,-3.5701,-3.6772,-3.6795,-3.7489,-3.8369,-3.7618,-3.7123,-3.6791,-2.8301,-2.8304,-2.8427,-2.9104,-2.8741,-2.8578,-2.9254,-2.8415,-2.8154,-2.9342,-3.0483,0.0,0.0,0.0,0.0,0.0,0.0,0.0,0.0,-2.708,-2.6957,-2.7494,-2.7525,-2.7771,-2.8323,-2.8226,-2.8162,-2.8162,-2.8029,0.0,0.0,0.0,0.0,0.0,0.0,0.0,0.0,0.0,0.0,-2.7635,0.0,-2.8271,-2.811,-2.7745,-2.76,-2.76,-2.76,-2.76,-2.7705,-2.8368,-2.8951,-2.9357,-2.9006,-2.9874,0.0,0.0,0.0,0.0,0.0,0.0,0.0,0.0,0.0,-2.8672,0.0,0.0,0.0,0.0,0.0,0.0,0.0,0.0,0.0,0.0,0.0,0.0,0.0,0.0,0.0,0.0,0.0,0.0,-2.7259,-2.7446,-2.7688,-2.8106,-2.8843,-2.9239,-2.9157,-2.9826,-3.0279,-3.0363,-3.0363,-3.0405,-3.0506,-3.1207,-3.1636,-3.1807,-3.251,-3.2986,-3.3278,-3.3907,-3.4314,-3.4479,-3.5026,-3.5049,-3.4742,-3.5155,-3.5442,-3.565,-3.6146,-3.6643,-3.6981,-3.6694,-3.6265,-3.5926,-2.7933,-2.7919,-2.7734,-2.8411,-2.8345,-2.844,-2.9113,-2.8997,-2.9077,0.0,0.0,0.0,0.0,0.0,0.0,0.0,0.0,0.0,-2.8774,0.0,-2.7847,-2.7923,-2.7923,-2.7953,-2.8029,-2.8029,-2.8005,-2.8005,-2.7905,-2.7815,0.0,0.0,0.0,0.0,-2.7625,0.0,0.0,0.0,-2.7625,0.0,-2.766,-2.7685,0.0,-2.7625,-2.76,-2.76,-2.76,-2.76,-2.7705,0.0,-2.8652,-2.8918,0.0,-2.9657,-2.9008,-2.9433,0.0,0.0,0.0,0.0,0.0,0.0,-3.1681,0.0,0.0,0.0,-2.8343,-2.717,0.0,0.0,0.0,0.0,0.0,0.0,0.0,0.0,0.0,0.0,0.0,0.0,0.0,0.0,0.0,-2.6559,-2.6916,-2.7232,-2.8194,-2.8619,-2.8268,-2.8876,-2.9438,-2.9875,-2.9875,-3.007,-3.0506,-3.0609,-3.1037,-3.1807,-3.1891,-3.2376,-3.3153,-3.3863,-3.4253,-3.4319,-3.4354,-3.4774,-3.543,-3.4734,-3.4885,-3.5532,-3.4979,-3.5994,-3.7618,-3.6225,-3.6129,-3.6694,-2.6279,-2.6666,-2.6898,-2.7535,-2.7885,-2.8192,-2.8505,-2.9154,-2.9689,0.0,0.0,0.0,0.0,0.0,0.0,0.0,0.0,-2.8511,0.0,0.0,0.0,-2.7995,-2.7995,-2.7995,-2.7995,-2.793,-2.788,-2.788,-2.7765,-2.7675,0.0,0.0,0.0,0.0,-2.76,0.0,-2.76,0.0,-2.7375,0.0,0.0,0.0,0.0,-2.745,-2.76,-2.76,-2.76,-2.76,-2.7645,0.0,-2.8558,0.0,0.0,0.0,0.0,0.0,0.0,0.0,0.0,0.0,0.0,0.0,0.0,0.0,-2.8435,0.0,-2.7735,0.0,0.0,0.0,0.0,0.0,0.0,0.0,-2.5137,0.0,0.0,0.0,0.0,0.0,0.0,0.0,0.0,0.0,0.0,0.0,-2.6852,-2.7472,-2.7458,-2.8117,-2.8799,-2.9393,-2.9393,-2.9483,-2.9683,-2.9683,-2.9867,-3.0241,-3.1027,-3.1824,-3.2611,-3.3649,-3.4412,-3.4874,-3.4777,-3.4778,-3.4852,-3.4959,-3.497,-3.4928,-3.4624,-3.5351,-3.6479,-3.5836,-3.5802,-3.6096,-2.4517,-2.5252,-2.5956,-2.6725,-2.7179,-2.7489,-2.7689,-2.8655,-2.9452,0.0,0.0,0.0,-3.1144,-3.1129,0.0,0.0,-2.9512,-2.9135,0.0,0.0,-2.8077,0.0,0.0,0.0,-2.7905,-2.779,-2.7765,-2.7765,-2.765,-2.76,0.0,0.0,0.0,0.0,0.0,-2.76,-2.76,0.0,-2.733,-2.6926,-2.7405,-2.7315,-2.6941,-2.7405,-2.76,-2.76,-2.76,-2.76,-2.763,-2.7809,-2.8528,0.0,-2.8408,0.0,0.0,0.0,0.0,0.0,-2.7824,0.0,0.0,0.0,0.0,0.0,0.0,0.0,0.0,0.0,0.0,0.0,0.0,0.0,0.0,0.0,0.0,-2.4694,0.0,0.0,0.0,0.0,0.0,0.0,0.0,0.0,0.0,0.0,0.0,-2.6254,-2.6346,-2.7203,-2.7974,-2.859,-2.8779,-2.8958,-2.9097,-2.9097,-2.9192,-2.9358,-3.0543,-3.1493,-3.2223,-3.3328,-3.4267,-3.5001,-3.4899,-3.4748,-3.4622,-3.5194,-3.5178,-3.4749,-3.4573,-3.4962,-3.5566,-3.5363,-3.543,-3.56,-2.2974,-2.387,0.0,-2.6012,-2.6092,-2.6148,-2.6663,-2.7391,0.0,0.0,0.0,0.0,0.0,0.0,0.0,0.0,0.0,-3.0205,-2.9592,0.0,-2.8304,0.0,0.0,-2.7625,0.0,-2.7625,-2.7625,-2.7625,-2.76,0.0,0.0,0.0,0.0,0.0,-2.76,-2.76,-2.76,-2.76,-2.7585,-2.757,-2.7585,-2.7585,-2.757,0.0,-2.76,-2.76,-2.76,0.0,0.0,-2.8338,-2.8607,0.0,0.0,0.0,0.0,0.0,0.0,0.0,0.0,0.0,0.0,-2.8727,0.0,0.0,0.0,0.0,-2.8378,0.0,0.0,0.0,0.0,0.0,0.0,0.0,0.0,0.0,0.0,0.0,0.0,0.0,0.0,0.0,0.0,0.0,0.0,0.0,0.0,0.0,-2.4702,-2.5931,-2.6862,-2.7342,-2.7973,-2.8567,-2.9097,-2.9097,-2.939,-2.9974,-3.074,-3.146,-3.2139,-3.2876,-3.3614,-3.4235,-3.4143,-3.4554,-3.5258,-3.5314,-3.5383,-3.5397,-3.4749,-3.4962,-3.5498,-3.4793,-3.4996,-3.56,-2.3025,-2.3392,0.0,0.0,0.0,0.0,0.0,-2.7295,0.0,0.0,0.0,0.0,0.0,-3.1378,-3.1174,0.0,0.0,-3.0109,-2.9506,-2.8843,0.0,0.0,0.0,-2.8048,0.0,0.0,0.0,0.0,0.0,0.0,0.0,0.0,0.0,0.0,0.0,-2.76,0.0,0.0,0.0,0.0,0.0,-2.748,-2.8203,0.0,-2.76,-2.76,-2.76,-2.76,0.0,-2.7869,-2.8218,-2.8562,-2.8349,-2.8438,-2.8502,-2.8079,-2.7779,0.0,0.0,0.0,-2.8229,-2.8004,0.0,0.0,0.0,0.0,0.0,0.0,0.0,0.0,0.0,0.0,0.0,0.0,0.0,0.0,0.0,0.0,0.0,0.0,0.0,0.0,0.0,0.0,0.0,0.0,0.0,0.0,0.0,-2.5023,-2.576,-2.6808,-2.7049,-2.7479,-2.8116,-2.8116,-2.8223,-2.8427,-2.9556,-3.0406,-3.1,-3.214,-3.3002,-3.3537,-3.3511,-3.3707,-3.4037,-3.3956,-3.4301,-3.4868,-3.455,-3.4913,-3.5498,-3.4776,-3.4979,-3.56,-2.342,-2.3509,0.0,0.0,0.0,0.0,0.0,0.0,0.0,0.0,-2.9718,0.0,-3.1217,0.0,-3.1357,0.0,-3.0862,-3.0534,-2.9481,-2.92,0.0,-2.828,-2.8251,0.0,0.0,0.0,0.0,0.0,0.0,-2.7959,0.0,0.0,0.0,0.0,0.0,-2.7824,-2.7615,-2.7854,-2.7585,0.0,0.0,-2.748,0.0,0.0,-2.775,-2.7929,0.0,-2.76,-2.76,-2.76,-2.7899,-2.8184,-2.7735,-2.7899,-2.8169,-2.772,-2.76,-2.76,-2.76,-2.76,0.0,-2.76,-2.76,0.0,-2.76,0.0,0.0,0.0,0.0,0.0,0.0,0.0,0.0,0.0,0.0,0.0,0.0,-2.3879,0.0,0.0,0.0,0.0,0.0,0.0,0.0,0.0,0.0,0.0,0.0,0.0,-2.5098,-2.6213,-2.6467,-2.6926,-2.7585,-2.76,-2.772,-2.7974,-2.9082,-2.9885,-3.0472,-3.1573,-3.2382,-3.2922,-3.2922,-3.3066,-3.3334,-3.3501,-3.3925,-3.4454,-3.4363,-3.4841,-3.5504,-3.5059,-3.5199,-3.56,-2.4008,-2.4109,0.0,0.0,-2.5015,0.0,0.0,0.0,-2.8177,0.0,-2.9242,-3.0536,-3.1216,-3.1802,-3.1914,-3.1327,-3.1802,-3.1369,-2.96,-2.9997,0.0,0.0,-2.7699,-2.7378,-2.6764,0.0,0.0,0.0,0.0,0.0,0.0,0.0,0.0,0.0,-2.8532,0.0,-2.7585,-2.8263,-2.8173,-2.76,-2.76,-2.7615,-2.7645,-2.7615,-2.8008,-2.8476,-2.7839,-2.76,-2.76,-2.76,-2.76,-2.76,-2.7575,-2.7575,-2.76,-2.7575,-2.7575,-2.76,-2.7575,-2.76,-2.76,-2.7575,-2.76,0.0,0.0,0.0,-2.8218,0.0,0.0,0.0,0.0,0.0,0.0,0.0,0.0,0.0,0.0,0.0,0.0,0.0,0.0,0.0,0.0,0.0,0.0,0.0,0.0,0.0,0.0,0.0,-2.4874,-2.5585,-2.6213,-2.6896,-2.7585,-2.76,-2.7929,-2.8562,-2.922,-2.9849,-3.0432,-3.1122,-3.1751,-3.2324,-3.2355,-3.2625,-3.3109,-3.3795,-3.4046,-3.4096,-3.4134,-3.47,-3.5514,-3.5594,-3.56,-3.56,-2.4057,-2.4452,-2.4783,0.0,-2.4623,-2.4939,0.0,0.0,0.0,0.0,-2.9644,-3.0379,-3.1,-3.1236,-3.1263,-3.108,-3.1236,0.0,0.0,0.0,0.0,-2.8971,-2.8939,-2.8467,-2.7393,-2.799,0.0,-2.7357,0.0,0.0,-2.7869,0.0,0.0,0.0,0.0,0.0,-2.6911,-2.7585,-2.7764,-2.76,-2.7488,-2.7761,-2.8133,0.0,-2.771,-2.8251,-2.7763,-2.7539,-2.7437,-2.7437,-2.7437,-2.7437,-2.7321,-2.7386,-2.7437,-2.7321,-2.7386,-2.7437,-2.7321,-2.7386,-2.7412,-2.7335,-2.7448,-2.7549,0.0,0.0,0.0,0.0,0.0,0.0,0.0,0.0,0.0,0.0,0.0,0.0,0.0,0.0,0.0,-2.4335,0.0,0.0,0.0,0.0,0.0,0.0,0.0,0.0,0.0,0.0,0.0,-2.557,-2.5779,-2.6408,-2.7585,-2.76,-2.769,-2.7869,-2.8532,-2.8936,-2.9131,-3.0253,-3.0846,-3.1016,-3.1528,-3.1537,-3.1232,-3.1812,-3.2128,-3.2347,-3.3153,-3.43,-3.5514,-3.5594,-3.56,-3.56,-2.4439,-2.5188,0.0,-2.5738,0.0,0.0,-2.6601,-2.7125,0.0,-2.88,-2.9614,0.0,-3.0581,-3.083,-3.0986,-3.0986,-3.0986,0.0,-3.0667,0.0,0.0,-2.9013,-2.8973,-2.8396,-2.722,-2.7569,0.0,-2.7219,0.0,0.0,-2.7225,0.0,0.0,0.0,0.0,-2.7011,-2.6632,-2.7255,-2.7612,-2.7798,-2.7454,-2.7362,0.0,-2.7262,-2.7231,-2.7268,-2.7088,-2.7167,-2.731,-2.731,-2.731,-2.7284,-2.7233,-2.7258,-2.7284,-2.7233,-2.7258,-2.7284,-2.7233,-2.7258,-2.7284,-2.7233,-2.7295,-2.7372,-2.7233,-2.7539,-2.768,0.0,-2.7066,-2.7081,0.0,0.0,0.0,0.0,0.0,0.0,0.0,0.0,0.0,0.0,-2.4081,0.0,0.0,0.0,0.0,0.0,0.0,0.0,0.0,0.0,0.0,-2.557,-2.5884,-2.6527,-2.7585,-2.7899,-2.7899,-2.76,-2.8263,-2.8607,-2.8637,-2.9639,-3.0253,-3.0507,-3.0627,-3.0763,-3.0954,-3.1235,-3.1578,-3.2055,-3.2937,-3.3819,-3.4593,-3.4769,-3.5161,-3.56,-2.5018,-2.6039,0.0,0.0,0.0,0.0,0.0,-2.7897,0.0,-2.8595,0.0,-3.0218,-3.0218,-3.0699,-3.0986,-3.0986,0.0,-3.0777,-3.0244,-3.0712,-3.0278,-2.8603,-2.849,-2.7954,-2.6804,-2.6854,-2.6793,0.0,0.0,0.0,0.0,0.0,0.0,0.0,0.0,0.0,0.0,-2.7019,-2.7477,-2.7798,-2.7182,-2.6674,-2.6317,-2.6765,-2.651,-2.5987,-2.6095,-2.6537,-2.7037,-2.6959,-2.6959,-2.6959,-2.7011,-2.7037,-2.7063,-2.713,-2.7089,-2.7063,-2.713,-2.7089,-2.7063,-2.713,-2.7181,-2.7181,-2.7155,-2.7155,-2.6993,-2.6434,-2.6674,-2.6699,0.0,0.0,0.0,0.0,0.0,0.0,0.0,0.0,0.0,0.0,0.0,0.0,0.0,0.0,0.0,0.0,0.0,0.0,0.0,0.0,0.0,-2.5585,-2.6168,-2.6881,-2.772,-2.8203,-2.8203,-2.7735,-2.8218,-2.8472,-2.8487,-2.9146,-2.9789,-3.0357,-2.9846,-3.0268,-3.1345,-3.1302,-3.1728,-3.2465,-3.3066,-3.3339,-3.3443,-3.3684,-3.4447,-3.5362,-2.5654,0.0,0.0,0.0,0.0,-2.836,-2.8765,-2.9022,-2.9287,-2.9735,-3.0424,-3.083,-3.083,-3.0934,-3.0986,-3.0986,-3.0986,0.0,0.0,0.0,0.0,-2.9218,-2.8999,-2.8347,-2.7219,-2.7209,-2.6955,0.0,0.0,0.0,0.0,0.0,0.0,0.0,0.0,0.0,-2.5792,-2.6218,0.0,-2.6482,-2.5814,-2.5758,-2.6003,-2.5563,-2.5315,-2.5203,-2.5231,-2.5673,-2.6229,-2.5728,-2.5536,-2.5632,-2.6015,-2.619,-2.6377,-2.6765,-2.6592,-2.6377,-2.6765,-2.6592,-2.6377,-2.6765,-2.7026,-2.7155,-2.691,-2.6977,-2.6985,-2.6883,-2.6426,-2.6207,-2.6758,0.0,0.0,0.0,0.0,0.0,0.0,0.0,0.0,0.0,0.0,-2.4476,0.0,0.0,0.0,0.0,0.0,0.0,0.0,0.0,0.0,0.0,-2.5719,0.0,0.0,0.0,-2.8004,-2.8412,-2.7989,-2.7779,-2.7809,-2.8457,-2.9131,-2.9756,-2.9651,-2.9998,-3.0672,-3.0664,-3.1344,-3.2425,-3.2641,-3.3013,-3.3417,-3.3582,-3.3836,-3.4186,0.0,0.0,0.0,0.0,0.0,0.0,0.0,-2.9675,-2.993,-3.0064,-3.0335,-3.0542,-3.0542,-3.0704,-3.0849,-3.0849,-3.0761,-3.071,-3.0849,-3.0761,-3.0334,-2.96,-2.9096,-2.8434,-2.7571,-2.6992,-2.6675,-2.6714,0.0,0.0,0.0,0.0,0.0,0.0,0.0,-2.537,0.0,0.0,0.0,-2.639,-2.546,-2.5231,-2.5411,-2.5096,-2.4823,-2.4538,-2.4538,-2.4766,-2.5063,-2.5091,-2.5091,-2.5133,-2.537,-2.5467,-2.5563,-2.5811,-2.5715,-2.5577,-2.5811,-2.5687,-2.5563,-2.5811,-2.596,-2.6041,-2.5892,-2.6165,-2.634,-2.6042,-2.5909,-2.6007,-2.6546,-2.6881,0.0,0.0,0.0,0.0,0.0,0.0,0.0,0.0,0.0,0.0,0.0,0.0,0.0,0.0,0.0,-2.3851,-2.361,0.0,-2.4507,0.0,0.0,0.0,-2.7965,0.0,-2.8124,-2.8094,-2.775,-2.76,-2.76,-2.7944,-2.8453,-2.9071,-2.9071,-2.9624,-3.0537,-3.0896,-3.1396,-3.1938,-3.2007,-3.2188,-3.2434,-3.2598,-3.2922,-3.3417,0.0,-2.8933,0.0,0.0,-2.937,0.0,-2.9535,-3.001,-3.0353,-3.0175,-3.016,-3.016,-3.016,-3.0464,-3.066,-3.066,-3.0482,-3.0457,-3.0622,-3.0482,-3.0188,-2.977,-2.9021,-2.8349,-2.7761,-2.6764,-2.6322,0.0,0.0,0.0,0.0,0.0,0.0,0.0,0.0,0.0,0.0,0.0,-2.5724,-2.6382,-2.525,-2.482,-2.4858,-2.466,-2.4308,-2.3897,-2.3897,-2.3897,-2.3943,-2.4452,-2.4582,-2.461,-2.4753,-2.4823,-2.4823,-2.4951,-2.4894,-2.4851,-2.4951,-2.4894,-2.4851,-2.4951,-2.5007,-2.5007,-2.5007,-2.537,-2.5564,-2.5105,-2.5398,-2.5729,-2.5851,-2.6258,0.0,0.0,0.0,0.0,0.0,0.0,0.0,0.0,0.0,0.0,-2.3341,0.0,0.0,0.0,0.0,-2.397,-2.3596,-2.4157,-2.4758,0.0,0.0,-2.6852,-2.7569,0.0,-2.8162,-2.7759,-2.766,-2.76,-2.76,-2.775,-2.8184,-2.8801,-2.8801,-2.9445,-3.0552,-3.1212,-3.1511,-3.1511,-3.1511,-3.1511,-3.1511,-3.167,-3.2094,-3.2734,0.0,0.0,0.0,0.0,0.0,0.0,-2.9498,-3.001,-3.0381,-3.0367,-3.0367,-3.0367,-3.0367,-3.0419,-3.0444,-3.0444,-3.0406,-3.0406,-3.0444,-3.0406,-3.015,-2.9548,-2.8826,-2.817,-2.7637,-2.6967,-2.6155,0.0,0.0,-2.4615,0.0,0.0,0.0,0.0,0.0,0.0,0.0,-2.5217,-2.562,-2.562,-2.4532,-2.4368,-2.4683,-2.3662,-2.3245,-2.3198,-2.3198,-2.3198,-2.3198,-2.3245,-2.3275,-2.3395,-2.4002,-2.4176,-2.4292,-2.4851,-2.4595,-2.4292,-2.4851,-2.4595,-2.4321,-2.4879,-2.5007,-2.5007,-2.5007,-2.5035,-2.5077,-2.5007,-2.5035,-2.5105,-2.5091,-2.5161,-2.5189,0.0,0.0,0.0,0.0,0.0,-2.5091,-2.3322,0.0,0.0,0.0,-2.3735,0.0,0.0,-2.3481,-2.3562,-2.3509,-2.4075,-2.4705,-2.5381,-2.5928,-2.6849,-2.8116,-2.7732,-2.7784,-2.833,-2.7833,-2.76,-2.7615,-2.8218,-2.8861,-2.9517,-2.9517,-2.9879,-3.0552,-3.1212,-3.1511,-3.1511,-3.1511,-3.1511,-3.1511,-3.1511,-3.1683,-3.1996,0.0,0.0,0.0,0.0,0.0,0.0,0.0,-2.9859,-3.0049,-3.0049,-3.0254,-3.0406,-3.0406,-3.0292,-3.0228,-3.0228,-3.0113,-3.0075,-3.0228,-3.0113,-2.9986,-2.9872,-2.9112,-2.8446,-2.7904,-2.7337,-2.6669,0.0,0.0,0.0,0.0,0.0,0.0,0.0,0.0,-2.4545,-2.4582,-2.4946,-2.5134,-2.5059,-2.4305,-2.413,-2.4243,-2.3409,-2.3108,-2.3108,-2.3108,-2.3108,-2.3108,-2.3108,-2.3108,-2.3138,-2.3424,-2.3514,-2.3543,-2.3796,-2.3679,-2.3543,-2.3796,-2.3679,-2.3573,-2.3783,-2.3872,-2.3872,-2.3872,-2.4163,-2.4337,-2.393,-2.4192,-2.4452,-2.4452,-2.4766,-2.5007,-2.5007,0.0,0.0,0.0,0.0,0.0,0.0,0.0,-2.3146,0.0,0.0,0.0,0.0,0.0,-2.2834,-2.3348,-2.3526,-2.4091,-2.512,0.0,-2.66,-2.7474,-2.734,-2.7584,-2.8219,-2.8006,-2.8106,-2.8518,-2.8854,-2.9411,-3.0133,-3.0133,-3.0507,-3.1122,-3.1391,-3.1511,-3.1511,-3.1511,-3.1511,-3.1511,-3.1511,-3.1626,-3.1841,-3.0228,0.0,-2.9694,0.0,-2.9669,-2.9454,-2.9767,-2.9792,-2.9792,-2.9792,-3.0049,-3.0228,-3.0228,-3.0113,-3.0011,-3.0011,-2.9869,-2.9869,-3.0011,-2.9869,-2.9869,-3.0011,-2.9152,0.0,-2.8109,-2.7406,-2.6801,-2.6248,-2.5996,0.0,0.0,0.0,0.0,0.0,-2.4808,-2.5046,-2.5046,-2.5046,-2.5146,-2.5234,-2.4531,-2.4243,-2.418,-2.3572,-2.3246,-2.3108,-2.3108,-2.3108,-2.3078,-2.3047,-2.3047,-2.3047,-2.3078,-2.3108,-2.3108,-2.3108,-2.3108,-2.3108,-2.3108,-2.3108,-2.3108,-2.3108,-2.3108,-2.3108,-2.3108,-2.3454,-2.3662,-2.3198,-2.3484,-2.3809,-2.3809,-2.4134,-2.4439,-2.4439,0.0,0.0,0.0,-2.4347,0.0,0.0,-2.2908,-2.2647,-2.245,-2.2606,0.0,0.0,0.0,-2.3016,-2.404,-2.3808,-2.4171,0.0,0.0,0.0,-2.7202,-2.7331,-2.7706,-2.8353,-2.8366,-2.8731,-2.9364,-2.9711,-3.022,-3.0806,-3.0806,-3.1062,-3.1511,-3.1511,-3.1511,-3.1511,-3.1511,-3.1511,-3.1511,-3.1511,-3.1597,-3.1727,-2.9792,-2.9792,-2.9779,-2.9792,-2.9792,-2.9779,-2.9792,-2.9792,-2.9792,-2.9792,-2.9792,-2.9792,-2.9792,-2.9792,-2.9792,-2.9792,-2.9792,-2.9792,-2.9792,-2.9792,-2.9792,0.0,0.0,-2.8109,-2.8109,-2.7065,-2.6223,-2.5598,0.0,0.0,-2.4788,0.0,-2.4775,-2.48,-2.536,-2.5586,-2.5586,-2.5586,-2.5912,-2.6386,-2.5259,-2.4775,-2.4713,-2.4192,-2.364,-2.3108,-2.3108,-2.3108,-2.3078,-2.2939,-2.2909,-2.2939,-2.3047,-2.3108,-2.3108,-2.3108,-2.3108,-2.3108,-2.3108,-2.3108,-2.3108,-2.3108,-2.3108,-2.3108,-2.3108,-2.3108,-2.3108,-2.3108,-2.3108,-2.3108,-2.3108,-2.3138,-2.3138,-2.3138,0.0,0.0,0.0,0.0,0.0,-2.3248,-2.363,-2.3727,-2.3049,-2.3529,0.0,0.0,0.0,0.0,0.0,0.0,0.0,-2.5965,-2.6509,0.0,-2.7681,-2.7829,-2.8232,-2.8905,-2.9015,-2.9394,-3.0013,-3.088,-3.1351,-3.1496,-3.1496,-3.1496,-3.1511,-3.1511,-3.1511,-3.1511,-3.1511,-3.1511,-3.1511,-3.1511,-3.1511,-3.1539,-3.0809,-3.0294,-2.9917,-3.0281,-3.0043,-2.9792,-2.9792,-2.9792,-2.9792,-2.9792,-2.9792,-2.9792,-2.9792,-2.9792,-2.9792,0.0,-2.9792,-2.9792,0.0,-2.9792,-2.9792,-2.9792,-2.9453,-2.89,-2.8122,-2.7758,-2.7118,-2.6223,0.0,0.0,0.0,-2.5971,-2.5971,-2.5984,-2.6147,-2.6223,-2.6223,-2.6223,-2.6008,-2.566,-2.5278,-2.4839,-2.4344,-2.3857,-2.3535,-2.3325,-2.2966,-2.283,-2.283,-2.2769,-2.2769,-2.2769,-2.28,-2.2878,-2.2969,-2.2969,-2.2969,-2.2939,-2.2848,-2.283,-2.283,-2.283,-2.2909,-2.2969,-2.2969,-2.3348,-2.3615,-2.3183,-2.3722,-2.4136,-2.3791,-2.3715,-2.3715,-2.3715,-2.3541,0.0,-2.3138,0.0,-2.3414,-2.2661,-2.2728,-2.2771,-2.2538,-2.2711,0.0,0.0,0.0,0.0,0.0,0.0,0.0,0.0,-2.6878,0.0,-2.8376,-2.8825,-2.9391,-3.0061,-3.0527,-3.1127,-3.1817,-3.1382,-3.1457,-3.1946,-3.1632,-3.1511,-3.1511,-3.1511,-3.1511,-3.1511,-3.1511,-3.1511,-3.1511,-3.1511,-3.1511,-3.1539,-3.0997,-3.0394,-2.9905,-3.0244,-3.0018,-2.9792,-2.9792,-2.9792,-2.9792,-2.9792,-2.9792,-2.9792,-2.9792,-2.9792,0.0,-2.9792,-2.9792,-2.9792,-2.9792,-2.9792,-2.9792,-2.9792,-2.939,-2.8825,-2.8122,-2.7708,0.0,-2.6499,-2.6499,-2.6499,-2.6499,-2.6499,-2.6499,-2.6499,-2.6499,-2.6465,-2.6383,-2.6136,-2.5859,-2.5518,-2.5308,-2.4945,-2.4513,-2.4214,-2.3845,-2.3452,-2.3108,-2.288,-2.269,-2.2616,-2.2586,-2.2586,-2.2586,-2.2635,-2.2726,-2.2787,-2.283,-2.28,-2.2708,-2.272,-2.272,-2.272,-2.2769,-2.288,-2.3077,-2.3493,-2.3766,-2.353,-2.4096,-2.4514,-2.4241,-2.4035,-2.3898,-2.4004,-2.3484,-2.3108,-2.3108,0.0,-2.2982,0.0,0.0,0.0,0.0,-2.2828,-2.3601,0.0,0.0,0.0,0.0,0.0,0.0,-2.6166,-2.7186,-2.8116,-2.9029,-2.9392,-3.006,-3.093,-3.1322,-3.1675,-3.1961,-3.1541,-3.1515,-3.1782,-3.1529,-3.1409,-3.1438,-3.1467,-3.1511,-3.1511,-3.1511,-3.1511,-3.1511,-3.1511,-3.1511,-3.1511,-3.057,-3.0193,-2.9804,0.0,-2.9817,0.0,-2.9792,-2.9792,-2.9792,-2.9792,-2.9792,-2.9792,-2.9792,-2.9792,-2.9792,-2.9792,0.0,0.0,0.0,-2.9792,-2.9779,-2.9729,-2.8725,-2.8134,-2.8047,-2.7077,-2.6537,-2.6499,-2.6499,-2.6499,-2.6499,-2.6499,-2.6499,-2.6499,-2.6452,-2.6361,-2.6129,-2.5574,-2.5534,-2.5826,-2.5323,-2.5127,-2.5114,-2.5077,-2.4415,-2.3506,-2.3469,-2.3138,-2.2678,-2.2512,-2.2438,-2.2438,-2.2438,-2.2426,-2.242,-2.2616,-2.2678,-2.269,-2.2659,-2.2659,-2.2659,-2.2659,-2.2678,-2.2837,-2.3415,-2.355,-2.3686,-2.412,-2.4247,-2.4362,-2.45,-2.4087,-2.3778,-2.3992,-2.3478,-2.3078,-2.3078,-2.3078,-2.312,0.0,0.0,0.0,-2.3166,-2.3738,-2.4063,0.0,0.0,0.0,0.0,0.0,-2.6096,-2.6717,-2.7398,-2.8352,-2.9595,-2.9681,-3.0348,-3.1553,-3.1466,-3.1253,-3.0952,-3.1479,-3.1512,-3.1146,-3.1249,-3.1278,-3.1307,-3.1438,-3.1511,-3.1511,-3.1511,-3.1511,-3.1511,-3.1511,-3.1511,-3.1511,0.0,0.0,-2.993,-3.0344,-3.0068,-2.9792,-2.9792,-2.9792,-2.9792,-2.9792,-2.9792,-2.9792,-2.9792,-2.9792,-2.9792,-2.9792,-2.9792,-2.9792,-2.9792,-2.9792,-2.9591,-2.9113,-2.8838,-2.8335,-2.7494,-2.7218,-2.6914,-2.6499,-2.6499,-2.6499,-2.6499,-2.6339,-2.627,-2.627,-2.6119,-2.6015,-2.5968,-2.5797,-2.5706,-2.5676,-2.5542,-2.5388,-2.5223,-2.479,-2.4268,-2.3696,-2.3252,-2.3023,-2.2914,-2.285,-2.285,-2.285,-2.285,-2.2573,-2.2278,-2.242,-2.2482,-2.2451,-2.2352,-2.2321,-2.2321,-2.2321,-2.2402,-2.2769,-2.3793,-2.4059,-2.414,-2.4206,-2.4893,-2.5394,-2.5022,-2.4538,-2.4168,-2.4233,-2.3511,-2.2939,-2.2939,-2.3047,-2.3271,0.0,-2.3791,-2.3771,-2.3799,-2.393,-2.4205,0.0,0.0,0.0,-2.6721,-2.6171,-2.588,-2.6031,-2.7487,-2.8671,-2.9596,-3.0468,-3.1361,-3.2234,-3.1279,-3.1266,-3.2065,-3.1344,-3.1276,-3.1629,-3.1279,-3.122,-3.1307,-3.1322,-3.1409,-3.1511,-3.1511,-3.1511,-3.1511,-3.1511,-3.1511,-3.1511,-3.1348,-3.0532,-2.988,-3.0181,-2.9993,-2.9792,-2.9792,-2.9792,-2.9753,-2.965,-2.9611,-2.9611,-2.9611,-2.9611,-2.9611,-2.9611,-2.974,-2.9792,-2.9792,-2.9792,-2.9602,-2.9149,-2.8988,-2.8462,-2.7538,-2.7299,-2.6864,-2.6223,-2.6223,-2.6223,-2.6211,-2.6119,-2.6062,-2.6062,-2.5945,-2.5828,-2.5758,-2.5758,-2.5653,-2.5453,-2.5453,-2.5382,-2.5276,-2.4987,-2.4566,-2.4073,-2.3785,-2.3376,-2.3047,-2.3288,-2.3047,-2.2666,-2.2939,-2.2618,-2.2228,-2.2278,-2.2309,-2.2278,-2.2216,-2.2366,-2.2606,-2.2859,-2.3003,-2.3272,-2.4138,-2.4366,-2.4451,-2.467,-2.5204,-2.5556,-2.5379,-2.4682,-2.4189,-2.43,-2.3441,-2.28,-2.28,-2.3089,-2.3524,-2.4191,-2.4466,-2.4636,-2.4732,-2.4732,-2.4779,-2.4858,-2.4813,0.0,-2.6171,-2.6138,-2.6237,-2.6509,-2.7498,-2.8389,-2.9093,-3.0002,-3.0709,-3.116,-3.0459,-3.0656,-3.1598,-3.0992,-3.0921,-3.1228,-3.1042,-3.1014,-3.1087,-3.1234,-3.1351,-3.1409,-3.1467,-3.1511,-3.1511,-3.1511,-3.1511,-3.1511,-3.0776,-3.0248,-2.9663,-2.9507,-2.9624,-2.9624,-2.9339,-2.9417,-2.9417,-2.9184,-2.9172,-2.9223,-2.9341,-2.9341,-2.9341,-2.9341,-2.9573,-2.9675,-2.9675,-2.9675,-2.9574,-2.9268,-2.8948,-2.845,-2.7643,-2.7109,-2.653,-2.591,-2.591,-2.591,-2.591,-2.5875,-2.5828,-2.5828,-2.5828,-2.5711,-2.5535,-2.5535,-2.5465,-2.5312,-2.5312,-2.5312,-2.5312,-2.5312,-2.4975,-2.4484,-2.4484,-2.3905,-2.3216,-2.3734,-2.3232,-2.251,-2.2987,-2.283,-2.2414,-2.233,-2.2366,-2.2414,-2.233,-2.2702,-2.3264,-2.3782,-2.3854,-2.395,-2.4506,-2.4604,-2.4771,-2.5216,-2.5372,-2.5443,-2.5548,-2.4696,-2.4049,-2.43,-2.3408,-2.2684,-2.2758,0.0,-2.3848,-2.4491,-2.5041,-2.5443,-2.5544,-2.5565,-2.5377,-2.4938,-2.5272,-2.5398,-2.5209,-2.5912,-2.667,-2.7354,-2.7496,-2.7865,-2.8465,-2.9062,-2.9393,-2.9421,-2.956,-2.9901,-3.0447,-3.0538,-3.0598,-3.0598,-3.0732,-3.0791,-3.0821,-3.1146,-3.1292,-3.1307,-3.1438,-3.1511,-3.1511,-3.1511,-3.1511,-3.1511,-2.8441,-2.8833,-2.8961,-2.8251,-2.8712,-2.8712,-2.7221,-2.7637,-2.8091,-2.8039,-2.8039,-2.8331,-2.9091,-2.917,-2.917,-2.917,-2.917,-2.9209,-2.9209,-2.9209,-2.9012,-2.8505,-2.8407,-2.794,-2.6893,-2.6351,-2.6019,-2.591,-2.591,-2.591,-2.591,-2.5723,-2.5653,-2.5641,-2.5465,-2.5382,-2.5347,-2.5347,-2.5347,-2.5312,-2.5312,-2.5312,-2.5312,-2.5312,-2.4975,-2.4484,-2.4484,-2.4145,-2.3758,-2.423,-2.4013,-2.3577,-2.3649,-2.3625,-2.3469,-2.3023,-2.3216,-2.3457,-2.3011,-2.3276,-2.3806,-2.4278,-2.4085,-2.4047,-2.4975,-2.518,-2.5204,-2.5288,-2.5661,-2.5841,-2.5431,-2.4538,-2.3972,-2.4406,-2.3341,-2.2609,-2.306,0.0,-2.4145,-2.432,-2.5207,-2.5694,-2.5393,-2.5344,-2.5373,-2.5485,-2.5146,-2.5523,-2.6829,-2.6151,-2.6227,-2.7294,-2.7332,-2.7657,-2.8326,-2.855,-2.8651,-2.8698,-2.9282,-2.9654,-2.9777,-3.0357,-3.0598,-3.0598,-3.0612,-3.0702,-3.0821,-3.1043,-3.122,-3.1307,-3.1438,-3.1511,-3.1511,-3.1511,-3.1511,-3.1511,-2.7905,-2.7765,-2.7557,-2.718,-2.7603,-2.7747,-2.6948,-2.7156,-2.7467,-2.7583,-2.7171,-2.7301,-2.8431,-2.8378,-2.8422,-2.8882,-2.8502,-2.8183,-2.8075,-2.8275,-2.8235,-2.7866,-2.7525,-2.6796,-2.5655,-2.5094,-2.4844,-2.4933,-2.4933,-2.5158,-2.5571,-2.55,-2.543,-2.5418,-2.5347,-2.5312,-2.5312,-2.5312,-2.5312,-2.5312,-2.5312,-2.5312,-2.5312,-2.5312,-2.5155,-2.4939,-2.4939,-2.4614,-2.4254,-2.4771,-2.4422,-2.3842,-2.4085,-2.3989,-2.3758,-2.3505,-2.3613,-2.3806,-2.3797,-2.3989,-2.4302,-2.4819,-2.4987,-2.5143,-2.5624,-2.5973,-2.6141,-2.6141,-2.6345,-2.6382,-2.5829,-2.4879,-2.4254,-2.4448,-2.3272,0.0,-2.3409,-2.3802,-2.4232,-2.4964,-2.5721,-2.6124,-2.6054,-2.6064,-2.6022,-2.5931,-2.5977,-2.6236,-2.6851,-2.6628,-2.6603,-2.6864,-2.6876,-2.7037,-2.7323,-2.7393,-2.7604,-2.7953,-2.8666,-2.9219,-2.9623,-3.0282,-3.0598,-3.0598,-3.0598,-3.0642,-3.0702,-3.0866,-3.1043,-3.122,-3.1351,-3.1438,-3.1511,-3.1511,-3.1511,-3.1511,-2.7404,-2.6993,-2.6568,-2.6358,-2.674,-2.694,-2.6552,-2.6682,-2.6867,-2.703,-2.6465,-2.6521,-2.7747,-2.7527,-2.7527,-2.8189,-2.7545,-2.7028,-2.6876,-2.6987,-2.7058,-2.7098,-2.6494,-2.5658,-2.4664,-2.409,-2.3831,-2.3829,-2.3829,-2.4156,-2.4755,-2.4933,-2.5016,-2.5052,-2.5241,-2.5312,-2.5312,-2.5312,-2.5312,-2.5312,-2.5312,-2.5312,-2.5312,-2.5312,-2.5312,-2.5312,-2.5312,-2.4975,-2.4568,-2.5131,-2.4699,-2.4047,-2.4398,-2.4338,-2.4131,-2.4011,-2.4059,-2.4218,-2.4602,-2.4795,-2.4987,-2.5384,-2.5901,-2.6298,-2.6298,-2.6719,-2.7042,-2.6922,-2.6994,-2.691,-2.6394,-2.542,-2.4747,-2.4867,0.0,-2.2919,-2.4011,-2.4263,-2.4635,-2.551,-2.613,-2.6505,-2.6442,-2.6441,-2.6388,-2.6203,-2.6574,-2.6716,-2.6524,-2.6901,-2.6939,-2.6512,-2.6499,-2.6499,-2.6499,-2.6499,-2.6748,-2.7297,-2.7953,-2.857,-2.9125,-2.9794,-3.0221,-3.0387,-3.0387,-3.0447,-3.0598,-3.0791,-3.0955,-3.1117,-3.1292,-3.1409,-3.1511,-3.1511,-3.1511,-3.1511,-2.5934,-2.6542,-2.6799,-2.6009,-2.6566,-2.6532,-2.486,-2.535,-2.5892,-2.5934,-2.5872,-2.6154,-2.7052,-2.6812,-2.6582,-2.6667,-2.6207,-2.5902,-2.5902,-2.5158,-2.5084,-2.5902,-2.5393,-2.4883,-2.4421,-2.3908,-2.3454,-2.3058,-2.3058,-2.3095,-2.3169,-2.3866,-2.4192,-2.4228,-2.4969,-2.5312,-2.5312,-2.5312,-2.5312,-2.5312,-2.5312,-2.5312,-2.5312,-2.5312,-2.5312,-2.5312,-2.5312,-2.4975,-2.4568,-2.5131,-2.4927,-2.4436,-2.4506,-2.4831,-2.5095,-2.4568,-2.4819,-2.5204,-2.524,-2.5612,-2.5985,-2.6021,-2.6417,-2.6837,-2.6837,-2.7246,-2.7486,-2.6994,-2.7282,-2.7462,-2.6934,-2.5949,-2.5408,-2.5901,0.0,0.0,-2.5047,-2.5624,-2.5769,-2.536,-2.6238,-2.6552,-2.5764,-2.5667,-2.5842,-2.6166,-2.6238,-2.6342,-2.6499,-2.6537,-2.6537,-2.6499,-2.6499,-2.6499,-2.6499,-2.6499,-2.6521,-2.6589,-2.7263,-2.7604,-2.767,-2.8344,-2.9016,-2.9685,-2.9685,-3.0038,-3.0612,-3.0955,-3.1087,-3.1146,-3.1395,-3.1511,-3.1511,-3.1511,-3.1511,-3.1511,-2.5365,-2.5411,-2.53,-2.5001,-2.5452,-2.5633,-2.4955,-2.5142,-2.5475,-2.5707,-2.5259,-2.5265,-2.6193,-2.5916,-2.5732,-2.604,-2.5433,-2.4999,-2.4999,-2.4155,-2.3777,-2.4102,-2.3939,-2.3644,-2.3247,-2.3022,-2.2815,-2.2615,-2.2615,-2.2761,-2.2995,-2.3279,-2.3427,-2.3427,-2.372,-2.3866,-2.3866,-2.3866,-2.4131,-2.4564,-2.4564,-2.4862,-2.5312,-2.5312,-2.5312,-2.5312,-2.5312,-2.518,-2.5035,-2.524,-2.5168,-2.5011,-2.5011,-2.5143,-2.5336,-2.5456,-2.5889,-2.6273,-2.6273,-2.6202,-2.6178,-2.6489,-2.6982,-2.739,-2.739,-2.7798,-2.8162,-2.7906,-2.8065,-2.8014,-2.7486,-2.6777,-2.6345,-2.6549,0.0,-2.5095,-2.6129,-2.619,-2.6021,-2.5817,-2.6166,-2.6154,-2.549,-2.5418,-2.5535,-2.5793,-2.6147,-2.6325,-2.6317,-2.643,-2.665,-2.7002,-2.7002,-2.7002,-2.7002,-2.7002,-2.7002,-2.7014,-2.8005,-2.8325,-2.802,-2.9087,-2.9759,-3.0091,-3.0091,-3.0287,-3.0612,-3.0821,-3.0984,-3.1102,-3.1292,-3.1438,-3.1511,-3.1511,-3.1511,-3.1511,-2.5283,-2.5039,-2.4834,-2.4834,-2.5078,-2.5283,-2.5283,-2.5283,-2.5391,-2.5645,-2.5157,-2.5058,-2.57,-2.5254,-2.5033,-2.5324,-2.4567,-2.4069,-2.4069,-2.3484,-2.3091,-2.3091,-2.3091,-2.2896,-2.2519,-2.251,-2.2399,-2.226,-2.2118,-2.2148,-2.2431,-2.2574,-2.2622,-2.2611,-2.2883,-2.2995,-2.2995,-2.2995,-2.3368,-2.3957,-2.3957,-2.4262,-2.4785,-2.4785,-2.468,-2.4612,-2.4826,-2.4933,-2.4969,-2.5194,-2.542,-2.5528,-2.536,-2.542,-2.5697,-2.6394,-2.6729,-2.697,-2.7294,-2.7031,-2.6695,-2.7054,-2.7534,-2.7969,-2.7969,-2.8246,-2.851,-2.851,-2.851,-2.8402,-2.8041,-2.7498,-2.7138,-2.7138,-2.6381,-2.6105,-2.7018,-2.6813,-2.661,-2.661,-2.661,-2.6334,-2.5624,-2.5709,-2.5829,-2.5838,-2.636,-2.6651,-2.67,-2.6874,-2.719,-2.7532,-2.7544,-2.762,-2.7795,-2.7632,-2.7544,-2.7544,-2.8388,-2.8576,-2.825,-2.9131,-2.9703,-2.9972,-2.9813,-3.0029,-3.0524,-3.0504,-3.0732,-3.1102,-3.1234,-3.138,-3.1511,-3.1511,-3.1511,-3.1511,-2.5693,-2.5693,-2.5693,-2.5693,-2.5693,-2.5693,-2.5693,-2.5693,-2.5693,-2.5693,-2.5693,-2.5693,-2.5684,-2.4904,-2.4414,-2.4414,-2.3588,-2.3101,-2.3091,-2.3091,-2.3091,-2.3091,-2.3091,-2.2896,-2.2519,-2.2519,-2.2314,-2.1894,-2.1455,-2.12,-2.1221,-2.1608,-2.1804,-2.1832,-2.2622,-2.2995,-2.2995,-2.2995,-2.3204,-2.3585,-2.3585,-2.3585,-2.3585,-2.3585,-2.3356,-2.3106,-2.3841,-2.4084,-2.424,-2.5016,-2.5673,-2.6009,-2.5492,-2.5685,-2.6322,-2.7404,-2.7318,-2.7138,-2.8222,-2.8126,-2.769,-2.769,-2.8126,-2.851,-2.851,-2.851,-2.851,-2.851,-2.851,-2.851,-2.851,-2.8089,-2.769,-2.769,-2.7246,-2.709,-2.7618,-2.769,-2.769,-2.7678,-2.7678,-2.7296,-2.6202,-2.661,-2.6744,-2.6421,-2.6907,-2.7372,-2.7779,-2.8012,-2.8109,-2.8122,-2.8122,-2.8386,-2.89,-2.8398,-2.8109,-2.8109,-2.8109,-2.8109,-2.8109,-2.8109,-2.8484,-2.9086,-2.856,-2.91,-3.0367,-2.997,-3.0326,-3.1132,-3.1234,-3.138,-3.1511,-3.1511,-3.1511,-3.1511,-2.5693,-2.5693,-2.5693,-2.5693,-2.5693,-2.5693,-2.5693,-2.5693,-2.5693,-2.5693,-2.5693,-2.5567,-2.5303,-2.5029,-2.4629,-2.4033,-2.374,-2.3467,-2.311,-2.3091,-2.3091,-2.3091,-2.3091,-2.3033,-2.2916,-2.2906,-2.2701,-2.2324,-2.1894,-2.1533,-2.119,-2.1036,-2.0982,-2.0972,-2.1203,-2.1318,-2.1318,-2.1318,-2.1881,-2.2772,-2.2772,-2.3275,-2.4035,-2.4035,-2.3859,-2.3651,-2.3885,-2.4337,-2.4922,-2.515,-2.588,-2.6621,-2.6465,-2.6777,-2.7308,-2.7594,-2.7834,-2.8114,-2.8426,-2.839,-2.827,-2.827,-2.839,-2.851,-2.851,-2.851,-2.851,-2.851,-2.851,-2.851,-2.851,-2.8378,-2.827,-2.827,-2.8138,-2.8089,-2.8246,-2.827,-2.8138,-2.7726,-2.7678,-2.7414,-2.6717,-2.6801,-2.6863,-2.6781,-2.7051,-2.7652,-2.8653,-2.8548,-2.8887,-2.9803,-2.949,-2.9553,-3.0066,-2.9126,-2.865,-2.865,-2.9101,-2.9076,-2.8662,-2.9101,-2.9235,-2.9077,-2.8943,-2.949,-3.0431,-3.0001,-3.0769,-3.2172,-3.1531,-3.1589,-3.1946,-3.1617,-3.1795,-3.2183,-2.5693,-2.5693,-2.5693,-2.5693,-2.5693,-2.5693,-2.5693,-2.5693,-2.5693,-2.5693,-2.5693,-2.5635,-2.5361,-2.5223,-2.491,-2.4346,-2.3984,-2.3682,-2.3408,-2.3188,-2.3091,-2.3091,-2.3091,-2.3091,-2.3091,-2.3091,-2.2974,-2.2721,-2.2168,-2.1748,-2.1475,-2.0899,-2.0605,-2.0615,-2.0752,-2.0732,-2.0625,-2.0977,-2.1551,-2.2211,-2.2382,-2.2849,-2.3401,-2.3401,-2.3165,-2.2889,-2.3162,-2.3674,-2.427,-2.4585,-2.5426,-2.6541,-2.7301,-2.7555,-2.7636,-2.7852,-2.806,-2.8283,-2.8283,-2.8283,-2.8271,-2.8351,-2.8431,-2.851,-2.851,-2.851,-2.851,-2.851,-2.851,-2.851,-2.851,-2.851,-2.851,-2.851,-2.851,-2.851,-2.851,-2.851,-2.839,-2.8065,-2.8041,-2.7825,-2.7258,-2.7402,-2.7522,-2.7522,-2.7728,-2.8161,-2.8937,-2.8954,-2.9383,-3.0463,-3.0242,-3.0369,-3.0922,-3.0244,-2.9691,-2.9277,-2.939,-2.939,-2.9289,-2.9628,-2.9505,-2.8995,-2.8813,-2.935,-3.0377,-2.9613,-3.0483,-3.2255,-3.1426,-3.1412,-3.1827,-3.1529,-3.1885,-3.2512,-2.5693,-2.5693,-2.5693,-2.5693,-2.5693,-2.5693,-2.5693,-2.5693,-2.5693,-2.5693,-2.5693,-2.5693,-2.5693,-2.5371,-2.5165,-2.5116,-2.4287,-2.3789,-2.3789,-2.3379,-2.3091,-2.3091,-2.3091,-2.3091,-2.3091,-2.3091,-2.3091,-2.3091,-2.2295,-2.1885,-2.1865,-2.1016,-2.0625,-2.0683,-2.1055,-2.1025,-2.0781,-2.1543,-2.1914,-2.1982,-2.2321,-2.2368,-2.2236,-2.2236,-2.1826,-2.1366,-2.2026,-2.2521,-2.2931,-2.3892,-2.4925,-2.6135,-2.7921,-2.8016,-2.7521,-2.8036,-2.803,-2.7893,-2.7893,-2.7893,-2.7921,-2.8139,-2.8299,-2.8471,-2.851,-2.851,-2.851,-2.851,-2.851,-2.851,-2.851,-2.8546,-2.857,-2.8522,-2.8546,-2.8558,-2.8522,-2.851,-2.851,-2.851,-2.851,-2.8318,-2.7798,-2.8222,-2.851,-2.851,-2.8657,-2.8776,-2.8864,-2.9219,-2.9727,-3.0366,-3.0513,-3.0834,-3.1311,-3.1223,-3.0758,-2.993,-2.9352,-2.9352,-2.9867,-2.9817,-2.9453,-2.8787,-2.8323,-2.8863,-3.0045,-2.8882,-2.9736,-3.1709,-3.0979,-3.0969,-3.1367,-3.1382,-3.1916,-3.2617,-2.5693,-2.5693,-2.5693,-2.5693,-2.5693,-2.5693,-2.5693,-2.5693,-2.5693,-2.5693,-2.5693,-2.5693,-2.5693,-2.5596,-2.5449,-2.5145,-2.4287,-2.3789,-2.3789,-2.3379,-2.3091,-2.3091,-2.3091,-2.3091,-2.3091,-2.3091,-2.3091,-2.3091,-2.2295,-2.1885,-2.1865,-2.1016,-2.0752,-2.1054,-2.1151,-2.1367,-2.1611,-2.1591,-2.1778,-2.2138,-2.2012,-2.2111,-2.2353,-2.2353,-2.2164,-2.1923,-2.2089,-2.2755,-2.3849,-2.5812,-2.7013,-2.7711,-2.8148,-2.8028,-2.782,-2.7926,-2.7921,-2.7893,-2.7893,-2.7893,-2.7933,-2.7962,-2.8111,-2.8299,-2.8471,-2.851,-2.851,-2.851,-2.851,-2.851,-2.851,-2.8847,-2.8991,-2.8582,-2.8859,-2.8979,-2.857,-2.851,-2.851,-2.851,-2.851,-2.8462,-2.8354,-2.8438,-2.851,-2.851,-2.855,-2.8799,-2.9399,-2.973,-3.0189,-3.0897,-3.0713,-3.067,-3.0783,-2.9905,-2.9993,-3.1035,-3.0507,-3.0319,-3.0419,-2.9993,-2.9239,-2.8285,-2.816,-2.8372,-2.8773,-2.8026,-2.9255,-3.1446,-3.0418,-3.0781,-3.1855,-3.202,-3.2586,-3.3425,-2.5693,-2.5693,-2.5693,-2.5693,-2.5693,-2.5693,-2.5693,-2.5693,-2.5693,-2.5693,-2.5693,-2.5693,-2.5693,-2.5693,-2.5644,-2.541,-2.4785,-2.4404,-2.4404,-2.3799,-2.3447,-2.3447,-2.3208,-2.3091,-2.3091,-2.3013,-2.3013,-2.3091,-2.25,-2.2187,-2.2168,-2.1504,-2.1318,-2.1553,-2.1634,-2.169,-2.1738,-2.1882,-2.1978,-2.2026,-2.2087,-2.2164,-2.2274,-2.2274,-2.2097,-2.1919,-2.2052,-2.2818,-2.4049,-2.5704,-2.6835,-2.758,-2.7938,-2.8002,-2.7881,-2.7748,-2.7626,-2.7557,-2.7557,-2.7557,-2.7656,-2.7994,-2.8163,-2.8256,-2.8319,-2.8431,-2.851,-2.851,-2.851,-2.851,-2.851,-2.8943,-2.9124,-2.8595,-2.8955,-2.9112,-2.8582,-2.851,-2.851,-2.851,-2.851,-2.851,-2.851,-2.851,-2.851,-2.851,-2.851,-2.8671,-2.9044,-2.9321,-2.9779,-3.0535,-3.0518,-3.0641,-3.0984,-3.0394,-3.0532,-3.1386,-3.0319,-2.9955,-3.0218,-2.993,-2.9315,-2.8486,-2.8222,-2.839,-2.8769,-2.7871,-2.8897,-3.0946,-3.0051,-3.0391,-3.1498,-3.1988,-3.2943,-3.4113,-2.5703,-2.5742,-2.5771,-2.5703,-2.5693,-2.5693,-2.5693,-2.5693,-2.5693,-2.5693,-2.5693,-2.5693,-2.5693,-2.5693,-2.5693,-2.5693,-2.5322,-2.5116,-2.5116,-2.4336,-2.3896,-2.3896,-2.3545,-2.3276,-2.3154,-2.2988,-2.2959,-2.3091,-2.2672,-2.2467,-2.25,-2.209,-2.1924,-2.197,-2.2119,-2.1982,-2.1677,-2.2148,-2.2155,-2.1881,-2.2168,-2.2176,-2.2052,-2.2052,-2.1874,-2.1741,-2.1963,-2.2775,-2.3877,-2.4851,-2.5861,-2.6823,-2.7574,-2.78,-2.7719,-2.7534,-2.733,-2.719,-2.719,-2.7231,-2.7405,-2.7997,-2.8226,-2.8298,-2.8312,-2.8542,-2.867,-2.8667,-2.8643,-2.8643,-2.8643,-2.9076,-2.9292,-2.8847,-2.922,-2.9388,-2.8859,-2.8775,-2.8775,-2.8775,-2.8775,-2.8751,-2.8655,-2.8643,-2.8607,-2.8522,-2.851,-2.851,-2.851,-2.8685,-2.9129,-2.9819,-3.0047,-3.0458,-3.111,-3.1122,-3.1122,-3.1097,-2.9729,-2.9377,-2.993,-2.9829,-2.9478,-2.8863,-2.8348,-2.8446,-2.8859,-2.7793,-2.8378,-2.9928,-2.9428,-2.9747,-3.058,-3.1539,-3.2967,-3.4593,-2.5762,-2.6045,-2.6182,-2.5752,-2.5693,-2.5693,-2.5693,-2.5693,-2.5693,-2.5693,-2.5693,-2.5693,-2.5693,-2.5693,-2.5693,-2.5693,-2.5322,-2.5116,-2.5116,-2.4609,-2.4336,-2.4336,-2.4277,-2.3936,-2.3387,-2.3332,-2.3239,-2.3091,-2.251,-2.2349,-2.25,-2.209,-2.1997,-2.2144,-2.2202,-2.2212,-2.228,-2.2183,-2.2113,-2.2022,-2.1847,-2.1785,-2.1731,-2.1731,-2.1731,-2.1696,-2.1741,-2.2501,-2.3651,-2.4808,-2.5663,-2.6434,-2.7267,-2.7412,-2.7272,-2.726,-2.7231,-2.719,-2.719,-2.733,-2.7493,-2.7563,-2.7911,-2.8341,-2.8802,-2.9243,-2.9445,-2.9239,-2.9184,-2.9184,-2.9184,-2.9629,-2.9965,-2.9881,-3.0314,-3.0482,-2.9941,-2.9869,-2.9869,-2.9869,-2.9869,-2.9689,-2.9232,-2.9184,-2.9003,-2.8546,-2.851,-2.851,-2.851,-2.8685,-2.8919,-2.9202,-2.9425,-2.9658,-3.0005,-3.0018,-3.0018,-3.0005,-2.9779,-2.9967,-3.0495,-3.0005,-2.9478,-2.8863,-2.8348,-2.7905,-2.7521,-2.6876,-2.7146,-2.7908,-2.7842,-2.8293,-2.924,-3.0759,-3.2643,-3.4518,-2.5771,-2.6084,-2.625,-2.5762,-2.5693,-2.5693,-2.5693,-2.5693,-2.5693,-2.5693,-2.5693,-2.5693,-2.5693,-2.5586,-2.5489,-2.5489,-2.5305,-2.5189,-2.5189,-2.4935,-2.4775,-2.4775,-2.4402,-2.3934,-2.3429,-2.3148,-2.2903,-2.2696,-2.2567,-2.2568,-2.2645,-2.2504,-2.2351,-2.2307,-2.2176,-2.2193,-2.223,-2.1963,-2.1874,-2.1874,-2.1741,-2.1696,-2.1696,-2.1696,-2.1696,-2.1696,-2.1696,-2.2467,-2.3574,-2.452,-2.5421,-2.631,-2.7074,-2.733,-2.733,-2.7231,-2.719,-2.7231,-2.733,-2.7649,-2.8051,-2.8467,-2.8927,-2.9491,-3.0153,-3.045,-3.035,-2.9491,-2.9532,-2.9653,-2.9352,-2.9965,-3.0434,-3.0134,-3.053,-3.0687,-3.0158,-3.0086,-3.0086,-3.0086,-3.0086,-2.9881,-2.9352,-2.9304,-2.9076,-2.8546,-2.851,-2.851,-2.851,-2.8685,-2.8882,-2.9091,-2.9314,-2.9521,-2.9792,-2.9792,-2.9792,-2.9792,-2.9792,-2.9917,-3.0143,-2.9905,-2.9654,-2.9377,-2.8812,-2.8612,-2.8612,-2.7745,-2.815,-2.9282,-2.8652,-2.9205,-3.0557,-3.1673,-3.3061,-3.4463]},{"header":{"parameterUnit":"m.s-1","parameterCategory":1,"la1":30.6,"la2":28.766,"lo1":-90.7593,"lo2":-88.6598,"dy":0.0162,"dx":0.0183,"nx":116,"ny":114,"refTime":"2024-04-18T06:00:00:Z","depth":0,"parameterNumber":3,"parameterNumberName":"V-component_of_WINDS"},"data":[0.0,0.0,0.0,0.0,0.0,0.0,0.0,0.0,0.0,0.0,0.0,0.0,0.0,0.0,0.0,0.0,0.0,0.0,0.0,0.0,0.0,0.0,0.0,0.0,0.0,0.0,0.0,0.0,0.0,0.0,0.0,0.0,0.0,0.0,0.0,0.0,0.0,0.0,0.0,0.0,0.0,0.0,0.0,0.0,0.0,0.0,0.0,0.0,0.0,0.0,0.0,0.0,0.0,0.0,0.0,0.0,0.0,0.0,0.0,0.0,0.0,0.0,0.0,0.0,0.0,0.0,0.0,0.0,0.0,0.0,0.0,0.0,0.0,0.0,0.0,0.0,0.0,0.0,0.0,0.0,0.0,0.0,0.0,0.0,0.0,0.0,0.0,0.0,0.0,0.0,0.0,0.0,0.0,0.0,0.0,0.0,0.0,0.0,0.0,0.0,0.0,0.0,0.0,0.0,0.0,0.0,0.0,0.0,0.0,0.0,0.0,0.0,0.0,0.0,0.0,0.0,0.0,0.0,0.0,0.0,0.0,0.0,0.0,0.0,0.0,0.0,0.0,0.0,0.0,0.0,0.0,0.0,0.0,0.0,0.0,0.0,0.0,0.0,0.0,0.0,0.0,0.0,0.0,0.0,0.0,0.0,0.0,0.0,0.0,0.0,0.0,0.0,0.0,0.0,0.0,0.0,0.0,0.0,0.0,0.0,0.0,0.0,0.0,0.0,0.0,0.0,0.0,0.0,0.0,0.0,0.0,0.0,0.0,0.0,0.0,0.0,0.0,0.0,0.0,0.0,0.0,0.0,0.0,0.0,0.0,0.0,0.0,0.0,0.0,0.0,0.0,0.0,0.0,0.0,0.0,0.0,0.0,0.0,0.0,0.0,0.0,0.0,0.0,0.0,0.0,0.0,0.0,0.0,0.0,0.0,0.0,0.0,0.0,0.0,0.0,0.0,0.0,0.0,0.0,0.0,0.0,0.0,0.0,0.0,0.0,0.0,0.0,0.0,0.0,0.0,0.0,0.0,0.0,0.0,0.0,0.0,0.0,0.0,0.0,0.0,0.0,0.0,0.0,0.0,0.0,0.0,0.0,0.0,0.0,0.0,0.0,0.0,0.0,0.0,0.0,0.0,0.0,0.0,0.0,0.0,0.0,0.0,0.0,0.0,0.0,0.0,0.0,0.0,0.0,0.0,0.0,0.0,0.0,0.0,0.0,0.0,0.0,0.0,0.0,0.0,0.0,0.0,0.0,0.0,0.0,0.0,0.0,0.0,0.0,0.0,0.0,0.0,0.0,0.0,0.0,0.0,0.0,0.0,0.0,0.0,0.0,0.0,0.0,0.0,0.0,0.0,0.0,0.0,0.0,0.0,0.0,0.0,0.0,0.0,0.0,0.0,0.0,0.0,0.0,0.0,0.0,0.0,0.0,0.0,0.0,0.0,0.0,0.0,0.0,0.0,0.0,0.0,0.0,0.0,0.0,0.0,0.0,0.0,0.0,0.0,0.0,0.0,0.0,0.0,0.0,0.0,0.0,0.0,0.0,0.0,0.0,0.0,0.0,0.0,0.0,0.0,0.0,0.0,0.0,0.0,0.0,0.0,0.0,0.0,0.0,0.0,0.0,0.0,0.0,0.0,0.0,0.0,0.0,0.0,0.0,0.0,0.0,0.0,0.0,0.0,0.0,0.0,0.0,0.0,0.0,0.0,0.0,0.0,0.0,0.0,0.0,0.0,0.0,0.0,0.0,0.0,0.0,0.0,0.0,0.0,0.0,0.0,0.0,0.0,0.0,0.0,0.0,0.0,0.0,0.0,0.0,0.0,0.0,0.0,0.0,0.0,0.0,0.0,0.0,0.0,0.0,0.0,0.0,0.0,0.0,0.0,0.0,0.0,0.0,0.0,0.0,0.0,0.0,0.0,0.0,0.0,0.0,0.0,0.0,0.0,0.0,0.0,0.0,0.0,0.0,0.0,0.0,0.0,0.0,0.0,0.0,0.0,0.0,0.0,0.0,0.0,0.0,0.0,0.0,0.0,0.0,0.0,0.0,0.0,0.0,0.0,0.0,0.0,0.0,0.0,0.0,0.0,0.0,0.0,0.0,0.0,0.0,0.0,0.0,0.0,0.0,0.0,0.0,0.0,0.0,0.0,0.0,0.0,0.0,0.0,0.0,0.0,0.0,0.0,0.0,0.0,0.0,0.0,0.0,0.0,0.0,0.0,0.0,0.0,0.0,0.0,0.0,0.0,0.0,0.0,0.0,0.0,0.0,0.0,0.0,0.0,0.0,0.0,0.0,0.0,0.0,0.0,0.0,0.0,0.0,0.0,0.0,0.0,0.0,0.0,0.0,0.0,0.0,0.0,0.0,0.0,0.0,0.0,0.0,0.0,0.0,0.0,0.0,0.0,0.0,0.0,0.0,0.0,0.0,0.0,0.0,0.0,0.0,0.0,0.0,0.0,0.0,0.0,0.0,0.0,0.0,0.0,0.0,0.0,0.0,0.0,0.0,0.0,0.0,0.0,0.0,0.0,0.0,0.0,0.0,0.0,0.0,0.0,0.0,0.0,0.0,0.0,0.0,0.0,0.0,0.0,0.0,0.0,0.0,0.0,0.0,0.0,0.0,0.0,0.0,0.0,0.0,0.0,0.0,0.0,0.0,0.0,0.0,0.0,0.0,0.0,0.0,0.0,0.0,0.0,0.0,0.0,0.0,0.0,0.0,0.0,0.0,0.0,0.0,0.0,0.0,0.0,0.0,0.0,0.0,0.0,0.0,0.0,0.0,0.0,0.0,0.0,0.0,0.0,0.0,0.0,0.0,0.0,0.0,0.0,0.0,0.0,0.0,0.0,0.0,0.0,0.0,0.0,0.0,0.0,0.0,0.0,0.0,0.0,0.0,0.0,0.0,0.0,0.0,0.0,0.0,0.0,0.0,0.0,0.0,0.0,0.0,0.0,0.0,0.0,0.0,0.0,0.0,0.0,0.0,0.0,0.0,0.0,0.0,0.0,0.0,0.0,0.0,0.0,0.0,0.0,0.0,0.0,0.0,0.0,0.0,0.0,0.0,0.0,0.0,0.0,0.0,0.0,0.0,0.0,0.0,0.0,0.0,0.0,0.0,0.0,0.0,0.0,0.0,0.0,0.0,0.0,0.0,0.0,0.0,0.0,0.0,0.0,0.0,0.0,0.0,0.0,0.0,0.0,0.0,0.0,0.0,0.0,0.0,0.0,0.0,0.0,0.0,0.0,0.0,0.0,0.0,0.0,0.0,0.0,0.0,0.0,0.0,0.0,0.0,0.0,0.0,0.0,0.0,0.0,0.0,0.0,0.0,0.0,0.0,0.0,0.0,0.0,0.0,0.0,0.0,0.0,0.0,0.0,0.0,0.0,0.0,0.0,0.0,0.0,0.0,0.0,0.0,0.0,0.0,0.0,0.0,0.0,0.0,0.0,0.0,0.0,0.0,0.0,0.0,0.0,0.0,0.0,0.0,0.0,0.0,0.0,0.0,0.0,0.0,0.0,0.0,0.0,0.0,0.0,0.0,0.0,0.0,0.0,0.0,0.0,0.0,0.0,0.0,0.0,0.0,0.0,0.0,0.0,0.0,0.0,0.0,0.0,0.0,0.0,0.0,0.0,0.0,0.0,0.0,0.0,0.0,0.0,0.0,0.0,0.0,0.0,0.0,0.0,0.0,0.0,0.0,0.0,0.0,0.0,0.0,0.0,0.0,0.0,0.0,0.0,0.0,0.0,0.0,0.0,0.0,0.0,0.0,0.0,0.0,0.0,0.0,0.0,0.0,0.0,0.0,0.0,0.0,0.0,0.0,0.0,0.0,0.0,0.0,0.0,0.0,0.0,0.0,0.0,0.0,0.0,0.0,0.0,0.0,0.0,0.0,0.0,0.0,0.0,0.0,0.0,0.0,0.0,0.0,0.0,0.0,0.0,0.0,0.0,0.0,0.0,0.0,0.0,0.0,0.0,0.0,0.0,0.0,0.0,0.0,0.0,0.0,0.0,0.0,0.0,0.0,0.0,0.0,0.0,0.0,0.0,0.0,0.0,0.0,0.0,0.0,0.0,0.0,0.0,0.0,0.0,0.0,0.0,0.0,0.0,0.0,0.0,0.0,0.0,0.0,0.0,0.0,0.0,0.0,0.0,0.0,0.0,0.0,0.0,0.0,0.0,0.0,0.0,0.0,0.0,0.0,0.0,0.0,0.0,0.0,0.0,0.0,0.0,0.0,0.0,0.0,0.0,0.0,0.0,0.0,0.0,0.0,0.0,0.0,0.0,0.0,0.0,0.0,0.0,0.0,0.0,0.0,0.0,0.0,0.0,0.0,0.0,0.0,0.0,0.0,0.0,0.0,0.0,0.0,0.0,0.0,0.0,0.0,0.0,0.0,0.0,0.0,0.0,0.0,0.0,0.0,0.0,0.0,0.0,0.0,0.0,0.0,0.0,0.0,0.0,0.0,0.0,0.0,0.0,0.0,0.0,0.0,0.0,0.0,0.0,0.0,0.0,0.0,0.0,0.0,0.0,0.0,0.0,0.0,0.0,0.0,0.0,0.0,0.0,0.0,0.0,0.0,0.0,0.0,0.0,0.0,0.0,0.0,0.0,0.0,0.0,0.0,0.0,0.0,0.0,0.0,0.0,0.0,0.0,0.0,0.0,0.0,0.0,0.0,0.0,0.0,0.0,0.0,0.0,0.0,0.0,0.0,0.0,0.0,0.0,0.0,0.0,0.0,0.0,0.0,0.0,0.0,0.0,0.0,0.0,0.0,0.0,0.0,0.0,0.0,0.0,0.0,0.0,0.0,0.0,0.0,0.0,0.0,0.0,0.0,0.0,0.0,0.0,0.0,0.0,0.0,0.0,0.0,0.0,0.0,0.0,0.0,0.0,0.0,0.0,0.0,0.0,0.0,0.0,0.0,0.0,0.0,0.0,0.0,0.0,0.0,0.0,0.0,0.0,0.0,0.0,0.0,0.0,0.0,0.0,0.0,0.0,0.0,0.0,0.0,0.0,0.0,0.0,0.0,0.0,0.0,0.0,0.0,0.0,0.0,0.0,0.0,0.0,0.0,0.0,0.0,0.0,0.0,0.0,0.0,0.0,0.0,0.0,0.0,0.0,0.0,0.0,0.0,0.0,0.0,0.0,0.0,0.0,0.0,0.0,0.0,0.0,0.0,0.0,0.0,0.0,0.0,0.0,0.0,0.0,0.0,0.0,0.0,0.0,0.0,0.0,0.0,0.0,0.0,0.0,0.0,0.0,0.0,0.0,0.0,0.0,0.0,0.0,0.0,0.0,0.0,0.0,0.0,0.0,0.0,0.0,0.0,0.0,0.0,0.0,0.0,0.0,0.0,0.0,0.0,0.0,0.0,0.0,0.0,0.0,0.0,0.0,0.0,0.0,0.0,0.0,0.0,0.0,0.0,0.0,0.0,0.0,0.0,0.0,0.0,0.0,0.0,0.0,0.0,0.0,0.0,0.0,0.0,0.0,0.0,0.0,0.0,0.0,0.0,0.0,0.0,0.0,0.0,0.0,0.0,0.0,0.0,0.0,0.0,0.0,0.0,0.0,0.0,0.0,0.0,0.0,0.0,0.0,0.0,0.0,0.0,0.0,0.0,0.0,0.0,0.0,0.0,0.0,0.0,0.0,0.0,0.0,0.0,0.0,0.0,0.0,0.0,0.0,0.0,0.0,0.0,0.0,0.0,0.0,0.0,0.0,0.0,0.0,0.0,0.0,0.0,0.0,0.0,0.0,0.0,0.0,0.0,0.0,0.0,0.0,0.0,0.0,0.0,0.0,0.0,0.0,0.0,0.0,0.0,0.0,0.0,0.0,0.0,0.0,0.0,0.0,0.0,0.0,0.0,0.0,0.0,0.0,0.0,0.0,0.0,0.0,0.0,0.0,0.0,0.0,0.0,0.0,0.0,0.0,0.0,0.0,0.0,0.0,0.0,0.0,0.0,0.0,0.0,0.0,0.0,0.0,0.0,0.0,0.0,0.0,0.0,0.0,0.0,0.0,0.0,0.0,0.0,0.0,0.0,0.0,0.0,0.0,0.0,0.0,0.0,0.0,0.0,0.0,0.0,0.0,1.1391,0.0,0.0,0.0,0.0,0.0,0.0,0.0,0.0,0.0,0.0,0.0,0.0,0.0,0.0,0.0,0.0,0.0,0.0,0.0,0.0,0.0,0.0,0.0,0.0,2.2643,2.2351,2.1978,2.1789,2.1551,2.1226,0.0,0.0,0.0,0.0,0.0,2.0633,2.0696,2.0734,2.0734,2.0795,2.1263,2.21,2.1813,2.1653,2.1565,0.0,0.0,0.0,0.0,0.0,0.0,0.0,0.0,0.0,0.0,0.0,0.0,0.0,0.0,0.0,0.0,0.0,0.0,0.0,0.0,0.0,0.0,0.0,0.0,0.0,0.0,0.0,0.0,0.0,0.0,0.0,0.0,0.0,0.0,0.0,0.0,0.0,0.0,0.0,0.0,0.0,0.0,0.0,0.0,0.0,0.0,0.0,0.0,0.0,0.0,0.0,0.0,0.0,0.0,0.0,0.0,0.0,0.0,0.0,0.0,0.0,0.0,0.0,0.0,0.0,0.0,0.0,0.0,0.0,0.0,0.0,1.1285,0.0,0.0,0.0,0.0,0.0,0.0,0.0,0.0,0.0,0.0,0.0,0.0,0.0,0.0,0.0,0.0,0.0,0.0,0.0,0.0,0.0,2.2058,2.2002,2.1978,2.1908,2.1718,2.1334,2.1006,2.0759,2.0309,1.9978,1.9837,1.9721,1.9669,1.9695,1.9785,1.9888,1.9888,2.0399,2.1211,2.2282,2.2387,2.2498,2.2575,2.1912,0.0,0.0,0.0,0.0,0.0,0.0,0.0,0.0,0.0,0.0,0.0,0.0,0.0,0.0,0.0,0.0,0.0,0.0,0.0,0.0,0.0,0.0,0.0,0.0,0.0,0.0,0.0,0.0,0.0,0.0,0.0,0.0,0.0,0.0,0.0,0.0,0.0,0.0,0.0,0.0,0.0,0.0,0.0,0.0,0.0,0.0,0.0,0.0,0.0,0.0,0.0,0.0,0.0,0.0,0.0,0.0,0.0,0.0,0.0,0.0,0.0,0.0,0.0,1.3219,1.3211,1.2901,1.2832,1.2657,1.2293,1.1888,1.152,1.1188,1.1037,0.0,0.0,0.0,0.0,0.0,0.0,0.0,0.0,0.0,0.0,0.0,0.0,0.0,0.0,0.0,0.0,0.0,0.0,0.0,2.1955,2.153,2.1482,2.1326,2.0885,2.0799,2.0699,2.0562,2.0309,2.0105,1.999,1.9408,1.916,1.9291,1.9291,1.9344,1.9473,2.1419,2.271,2.339,2.393,2.4186,2.4169,2.2977,0.0,0.0,0.0,0.0,0.0,0.0,0.0,0.0,0.0,0.0,0.0,0.0,0.0,0.0,0.0,0.0,0.0,0.0,0.0,0.0,0.0,0.0,0.0,0.0,0.0,0.0,0.0,0.0,0.0,0.0,0.0,0.0,0.0,0.0,0.0,0.0,0.0,0.0,0.0,0.0,0.0,0.0,0.0,1.6961,1.6605,0.0,0.0,0.0,0.0,0.0,0.0,0.0,0.0,0.0,0.0,0.0,0.0,0.0,1.3482,1.3482,1.4061,1.4328,1.4328,1.4375,1.4305,1.4151,1.3858,1.3512,1.3107,1.249,0.0,1.1463,1.0833,0.0,0.0,0.0,0.0,0.0,0.0,0.0,0.0,0.0,0.0,0.0,0.0,0.0,0.0,0.0,0.0,0.0,0.0,0.0,0.0,0.0,2.1289,2.1336,2.1069,2.1694,2.1733,2.0875,2.0843,2.0464,1.9706,1.9093,1.8801,1.8869,1.9239,1.9967,2.1086,2.2696,2.3957,2.483,2.5107,2.5708,2.6516,2.5314,2.4294,2.3437,2.2791,0.0,0.0,0.0,0.0,0.0,0.0,0.0,0.0,0.0,0.0,0.0,0.0,0.0,0.0,0.0,0.0,0.0,0.0,0.0,0.0,0.0,0.0,0.0,0.0,0.0,0.0,0.0,0.0,0.0,0.0,0.0,0.0,0.0,0.0,0.0,0.0,0.0,0.0,0.0,1.7238,1.6885,1.6546,1.6126,1.5989,0.0,0.0,0.0,0.0,0.0,0.0,0.0,0.0,0.0,1.3913,1.429,1.4482,1.4482,1.4792,1.4943,1.4951,1.4576,1.4431,1.4497,1.3688,1.3439,1.3573,1.2519,1.1835,1.1418,1.1217,1.0285,0.901,0.0,0.0,0.0,0.0,0.7232,0.704,0.0,0.0,0.0,0.0,0.0,0.0,0.0,0.0,0.0,0.0,0.0,0.0,2.0883,2.1394,2.1746,2.1783,2.2644,2.2613,2.1281,2.1146,2.0543,1.9287,1.8667,1.8398,1.8425,1.9373,2.0763,2.2541,2.4037,2.5257,2.6188,2.6698,2.7603,2.8874,2.7873,2.6286,2.4331,2.3346,2.2549,0.0,0.0,0.0,0.0,0.0,0.0,0.0,0.0,0.0,0.0,0.0,0.0,0.0,0.0,0.0,0.0,0.0,0.0,0.0,0.0,0.0,0.0,0.0,0.0,0.0,0.0,0.0,0.0,0.0,0.0,0.0,0.0,0.0,0.0,0.0,0.0,0.0,0.0,1.7054,1.6884,1.624,1.6089,1.5949,0.0,0.0,0.0,0.0,0.0,0.0,1.4321,1.4452,1.4624,1.4887,1.5348,1.5586,1.5586,1.5761,1.5801,1.5721,1.525,1.495,1.4838,1.3808,1.3429,1.3554,1.2276,1.1414,1.0881,1.1202,1.0219,0.8607,0.9078,0.8589,0.7644,0.7535,0.7394,0.7289,0.0,0.0,0.0,0.0,0.0,0.0,0.0,0.0,0.0,0.0,0.0,2.0883,2.1407,2.2008,2.257,2.3052,2.3156,2.2698,2.1554,2.0886,2.004,1.8881,1.8127,1.781,1.7925,1.9709,2.1391,2.2982,2.5381,2.6795,2.7268,2.9044,3.0215,3.0813,3.0213,2.947,2.8451,2.5091,2.3979,2.4245,0.0,0.0,0.0,0.0,0.0,0.0,0.0,0.0,0.0,0.0,0.0,0.0,0.0,0.0,0.0,0.0,0.0,0.0,0.0,0.0,0.0,0.0,0.0,0.0,0.0,0.0,0.0,0.0,0.0,0.0,0.0,0.0,0.0,0.0,0.0,0.0,0.0,0.0,0.0,1.5452,1.5909,0.0,0.0,0.0,0.0,1.4448,1.4513,1.4681,1.5016,1.5412,1.5617,1.5648,1.6293,1.661,1.661,1.731,1.7528,1.7175,1.7175,1.6601,1.5621,1.4775,1.3867,1.2877,1.1734,1.0649,0.9716,1.0299,0.9761,0.8516,0.8544,0.8124,0.7493,0.7517,0.7484,0.7479,0.0,0.0,0.0,0.0,0.0,1.8438,1.8613,1.8864,1.9168,1.9543,2.0242,2.0883,2.1431,2.2267,2.2984,2.353,2.356,2.3034,2.1909,2.0996,1.9998,1.8844,1.7924,1.7918,1.8896,2.0248,2.2036,2.4292,2.5867,2.7078,2.7878,2.8576,2.9484,3.0583,3.0024,3.0169,3.0591,2.7416,2.5572,2.461,2.2654,2.1355,0.0,0.0,0.0,0.0,0.0,0.0,0.0,0.0,0.0,0.0,0.0,0.0,0.0,0.0,0.0,0.0,0.0,0.0,0.0,0.0,0.0,0.0,0.0,0.0,0.0,0.0,0.0,0.0,0.0,0.0,0.0,0.0,0.0,0.0,0.0,0.0,0.0,1.7205,1.7384,0.0,1.7503,1.6763,1.6187,1.606,1.5841,1.5811,1.61,1.626,1.6549,1.705,1.7485,1.7739,1.7739,1.7363,1.7098,1.6975,1.5604,1.5014,1.5019,1.3858,1.3253,1.3015,1.1825,1.0743,0.9771,0.9662,0.9187,0.8583,0.8655,0.8489,0.8136,0.7667,0.7579,0.7679,0.0,0.0,0.0,0.0,0.0,1.7169,1.7568,1.7918,1.8277,1.8666,1.9672,2.0689,2.158,2.2424,2.3274,2.4153,2.3919,2.3146,2.1855,2.0665,1.9477,1.8357,1.8103,1.8655,2.0023,2.1596,2.3283,2.5126,2.6676,2.7719,2.8369,2.8833,2.9685,3.0791,3.0343,3.082,3.177,2.9539,2.7604,2.5834,2.3986,2.2818,2.2037,0.0,0.0,0.0,0.0,0.0,0.0,0.0,0.0,0.0,0.0,0.0,0.0,0.0,0.0,0.0,0.0,0.0,0.0,0.0,0.0,0.0,0.0,0.0,0.0,0.0,0.0,0.0,0.0,0.0,0.0,0.0,0.0,0.0,0.0,0.0,1.8256,1.8437,1.8723,1.8931,1.8967,1.8331,1.7845,1.7548,1.7137,1.7013,1.729,1.7241,1.7396,1.7741,1.7983,1.7909,1.7613,1.6937,1.6492,1.6271,1.4905,1.4289,1.4314,1.3193,1.256,1.2303,1.1267,1.0313,0.9474,0.9104,0.8847,0.8619,0.8504,0.8417,0.8246,0.7696,0.7584,0.7683,0.0,0.0,0.0,0.0,0.0,1.6663,1.6675,1.7496,1.8158,1.8157,1.908,2.0308,2.1815,2.2504,2.3415,2.4932,2.4188,2.2939,2.1343,1.9794,1.8475,1.7376,1.8646,1.9944,2.1174,2.3637,2.5097,2.544,2.78,2.888,2.8712,3.0021,3.0977,3.1553,3.1376,3.1589,3.2056,3.1345,3.0061,2.8273,2.527,2.4365,2.4568,0.0,0.0,0.0,0.0,0.0,0.0,0.0,0.0,0.0,0.0,0.0,0.0,0.0,0.0,0.0,0.0,0.0,0.0,0.0,0.0,0.0,0.0,0.0,0.0,0.0,0.0,0.0,0.0,0.0,0.0,0.0,0.0,0.0,1.7153,1.8678,1.9592,1.8883,1.987,2.0283,1.9494,1.9101,1.8901,1.8852,1.8427,1.8278,1.849,1.8411,1.816,1.7731,1.7699,1.7218,1.6257,1.6197,1.5887,1.5296,1.5232,1.4692,1.3652,1.2927,1.191,1.0697,0.9955,0.9301,0.8722,0.8722,0.8722,0.8661,0.8042,0.7835,0.7816,0.7593,0.7512,0.7512,0.0,0.0,0.0,1.5976,1.6031,1.6059,1.6045,1.6578,1.6973,1.6961,1.8862,2.0663,2.1859,2.2691,2.3503,2.4303,2.2708,2.1163,1.9987,1.8577,1.7931,1.8296,1.9014,2.0522,2.2929,2.405,2.5333,2.6775,2.7787,2.8455,2.8798,2.916,2.9977,3.11,3.066,3.135,3.2734,3.2076,3.1759,3.1392,2.8372,2.6707,2.5818,0.0,0.0,0.0,0.0,0.0,0.0,0.0,0.0,0.0,0.0,0.0,0.0,0.0,0.0,0.0,0.0,0.0,0.0,0.0,0.0,0.0,0.0,0.0,0.0,0.0,0.0,0.0,0.0,0.0,0.0,0.0,1.8133,1.862,1.8052,1.9336,2.0444,2.0833,2.1678,2.2153,2.1925,2.1816,2.1374,2.0409,2.0208,1.9703,1.8776,1.8976,1.8909,1.8504,1.8206,1.7792,1.7279,1.5987,1.5251,1.5085,1.4135,1.3555,1.3262,1.2845,1.2236,1.1376,1.0857,1.0243,0.9632,0.9272,0.9152,0.9091,0.8472,0.8321,0.8406,0.8077,0.7944,0.7944,0.0,0.0,0.0,1.5467,1.5333,1.52,1.5195,1.5775,1.622,1.6223,1.8425,2.0392,2.1417,2.2172,2.2777,2.3284,2.1477,1.9854,1.8881,1.7957,1.7768,1.8468,1.9837,2.1476,2.3318,2.4784,2.613,2.7441,2.8063,2.8691,2.9358,2.9208,2.9634,3.0577,3.0273,3.0963,3.2441,3.2456,3.2787,3.3088,3.1526,3.0035,2.8456,2.6007,2.5179,2.5071,2.3455,2.297,2.3083,2.2937,0.0,0.0,0.0,0.0,0.0,0.0,0.0,0.0,0.0,0.0,0.0,0.0,0.0,0.0,0.0,0.0,0.0,0.0,0.0,0.0,0.0,0.0,0.0,0.0,1.9096,2.0021,1.999,2.0875,2.1797,2.2657,2.3327,2.3721,2.3721,2.3556,2.3018,2.1992,2.1587,2.0816,1.961,1.9606,1.9122,1.8104,1.7842,1.7194,1.6139,1.5046,1.4494,1.4374,1.3499,1.3083,1.3109,1.2717,1.2248,1.1691,1.1293,1.0715,0.9969,0.9684,0.9486,0.0,0.0,0.0,0.0,0.0,0.8155,0.8115,0.0,0.0,0.0,1.488,1.4605,1.4326,1.428,1.5055,1.5672,1.5734,1.7781,1.9617,2.0632,2.1134,2.1625,2.2116,2.0366,1.8869,1.7967,1.7821,1.7997,1.855,2.1046,2.2685,2.3262,2.5673,2.7108,2.7604,2.843,2.9263,3.0052,2.9724,2.9827,3.0253,3.0115,3.0602,3.1657,3.2483,3.3189,3.377,3.4174,3.3335,3.1563,2.8547,2.7712,2.7921,2.5895,2.455,2.3898,2.4775,0.0,0.0,0.0,0.0,0.0,0.0,0.0,0.0,0.0,0.0,0.0,0.0,0.0,0.0,0.0,0.0,0.0,0.0,0.0,0.0,0.0,0.0,0.0,0.0,2.0129,2.1395,2.2401,2.2849,2.338,2.4192,2.456,2.473,2.4776,2.445,2.3926,2.3267,2.2496,2.1603,2.0669,0.0,0.0,0.0,0.0,1.6203,1.4137,1.4043,1.3863,1.3598,1.3338,1.3212,1.3149,1.2681,1.2242,1.1895,1.1588,1.1035,1.0326,1.0203,0.9863,0.9408,0.9117,0.9018,0.8976,0.8642,0.8368,0.8188,0.0,0.0,0.0,1.4093,1.3975,1.381,1.3481,1.4235,1.495,1.5263,1.7037,1.8624,1.9605,2.0096,2.0587,2.1135,1.9372,1.7967,1.7252,1.776,1.8937,2.0862,2.2453,2.3998,2.5585,2.6486,2.7168,2.7672,2.8515,2.8993,2.9162,2.9808,3.0319,3.0745,3.0323,3.0695,3.1622,3.1775,3.2664,3.3841,3.3826,3.3325,3.2319,3.0455,2.9816,2.9715,2.8053,2.7584,2.7672,2.703,2.5988,2.4996,2.5222,0.0,0.0,0.0,0.0,0.0,0.0,0.0,0.0,0.0,0.0,0.0,0.0,0.0,0.0,0.0,0.0,0.0,0.0,0.0,0.0,2.0744,2.1869,2.2941,2.3949,2.426,2.4491,2.4638,2.4486,2.4459,2.4748,2.445,2.3857,2.2975,2.2348,2.1612,2.0734,2.0442,1.9678,1.8336,1.7982,1.7066,1.5457,1.4838,1.4425,1.4141,0.0,0.0,1.3743,1.3429,1.3239,1.3144,1.269,1.2399,1.2221,1.1455,1.0726,1.0036,0.9483,0.9225,0.9216,0.9176,0.9015,0.8841,0.0,0.0,0.0,1.3563,1.3491,1.3433,1.3242,1.3791,1.4398,1.4831,1.6324,1.7614,1.828,1.8775,1.9049,1.9092,1.7923,1.7212,1.7239,1.8583,2.023,2.2189,2.3482,2.4765,2.6116,2.6489,2.7055,2.7774,2.8147,2.8764,2.9677,2.9859,3.041,3.1236,3.0766,3.0952,3.1626,3.1909,3.2779,3.3909,3.4271,3.4154,3.3643,3.222,3.1584,3.1325,2.987,2.9176,2.8813,2.8298,2.718,2.6059,2.6059,2.4707,2.305,0.0,0.0,0.0,0.0,0.0,0.0,0.0,0.0,0.0,0.0,0.0,0.0,0.0,0.0,1.9609,2.0615,0.0,2.0742,2.2207,2.2974,2.3598,2.4389,2.4476,2.4546,2.4757,2.4601,2.4606,2.4757,2.445,2.3945,2.3388,2.2904,2.2059,2.065,2.0501,1.9616,1.7773,1.7362,1.655,1.5244,1.4765,1.4437,1.4292,1.4032,1.3906,1.3894,1.3634,1.3513,1.3468,1.3241,1.3013,1.2734,1.1773,1.1156,1.0799,1.0206,0.9757,0.9442,0.9442,0.9249,0.8985,0.0,0.0,0.0,1.3132,1.305,1.3001,1.3001,1.3377,1.3834,1.4296,1.5501,1.6447,1.688,1.7336,1.7416,1.6918,1.6758,1.6968,1.7687,1.9632,2.144,2.3068,2.4436,2.5436,2.6122,2.6529,2.7036,2.7688,2.7878,2.8723,3.0297,3.0087,3.0623,3.176,3.1356,3.14,3.179,3.2279,3.3024,3.385,3.4279,3.4558,3.4479,3.3289,3.2802,3.2586,3.1241,2.998,2.8875,2.8762,2.767,2.6348,2.6461,2.5431,2.3954,2.2937,2.2096,0.0,0.0,0.0,0.0,0.0,0.0,0.0,0.0,0.0,2.0653,2.2112,2.1329,2.0878,2.2598,2.223,2.2152,2.3419,2.3812,2.4088,2.4445,2.4276,2.4183,2.44,2.4565,2.4693,2.4776,2.445,2.414,2.3952,2.3566,2.2568,2.0987,2.0574,1.9382,1.709,1.6601,1.5895,1.4799,1.4515,1.4377,1.4377,1.4111,1.3978,1.3972,1.3761,1.367,1.3664,1.361,1.3282,1.2734,1.1951,1.1543,1.1359,1.0898,1.0357,0.978,0.9738,0.9484,0.919,0.0,0.0,0.0,0.0,0.0,1.228,1.224,1.2559,1.2992,1.3468,1.4291,1.5026,1.5469,1.5891,1.5958,1.5468,1.6728,1.783,1.8533,2.0433,2.2327,2.3999,2.5537,2.6426,2.6518,2.7271,2.753,2.7271,2.8357,2.9221,2.99,3.0555,3.137,3.2295,3.2241,3.2252,3.2295,3.2386,3.2849,3.3469,3.2628,3.2841,3.357,3.2893,3.2921,3.3115,3.1782,3.0281,2.8813,2.836,2.708,2.5787,2.6336,2.5695,2.4575,2.3991,0.0,2.1344,2.0601,2.0218,0.0,2.0661,2.1037,2.1596,0.0,0.0,2.2514,2.3993,2.308,2.2424,2.3802,2.3757,2.3728,2.4466,2.4679,2.4681,2.452,2.3978,2.3453,2.3151,2.3794,2.4422,2.4748,2.445,2.417,2.4167,2.3614,2.2979,2.2316,2.0901,1.9454,1.7888,1.6898,1.5991,1.5065,1.4805,1.4666,1.4666,1.4389,1.4256,1.425,1.422,1.4208,1.4195,1.3966,1.3402,1.2683,1.2592,1.2043,1.1308,1.1262,1.0895,1.0447,1.0267,1.0094,0.9838,0.0,0.0,0.0,0.0,0.0,1.1719,1.1852,1.1887,1.2142,1.2894,1.3185,1.3607,1.4392,1.4667,1.4795,1.4784,1.5905,1.7292,1.8944,2.0909,2.3015,2.5166,2.637,2.715,2.7627,2.7499,2.7453,2.7574,2.7605,2.8221,2.9427,2.9746,3.0601,3.1957,3.2252,3.2115,3.1731,3.2272,3.2625,3.2797,3.2202,3.2239,3.2568,3.1824,3.1071,3.0376,3.0074,2.9101,0.0,0.0,2.5925,2.5586,2.5523,2.4718,2.3656,2.2794,2.1686,0.0,2.0606,0.0,0.0,0.0,2.1846,2.2246,2.3222,2.318,2.322,2.4167,2.3862,2.3739,2.4913,2.4821,2.4643,0.0,2.4974,2.4784,2.4529,2.3738,2.2995,2.2593,2.2887,2.3153,2.3336,2.362,2.3794,2.3794,2.3205,2.2308,2.1124,1.9816,1.8327,1.6626,1.5948,1.5381,1.4877,1.4606,1.4558,1.4714,1.4431,1.4461,1.4763,1.4612,1.4539,1.4527,1.425,1.3837,1.3356,1.2877,1.2312,1.1671,1.14,1.1032,1.0611,1.0526,1.036,1.0137,0.0,0.0,0.0,0.0,0.0,1.1192,1.1553,1.1427,1.1548,1.223,1.2359,1.2737,1.3696,1.3832,1.395,1.4198,1.4985,1.6447,1.8688,2.0698,2.2884,2.5197,2.6399,2.7288,2.7884,2.7536,2.7369,2.7373,2.7086,2.7488,2.8506,2.8943,2.9917,3.1335,3.2026,3.2005,3.1504,3.218,3.2218,3.1819,3.1505,3.1189,3.0789,2.9969,2.8633,2.7281,2.7816,2.7081,0.0,0.0,2.3791,2.3959,2.3661,2.2989,2.2197,2.1515,2.0715,2.0059,2.0106,0.0,0.0,2.1632,2.2342,2.2855,2.3349,2.3444,2.3597,2.4292,2.4157,2.4183,2.5076,2.4953,2.4806,2.491,2.4831,2.4615,2.437,2.3433,2.2538,2.2007,2.1851,2.1778,2.1778,2.2721,2.338,2.348,2.3068,2.2097,2.0538,1.9383,1.7905,1.6019,1.5326,1.498,1.4932,1.4509,1.4473,1.4823,1.4467,1.4545,1.4992,1.4805,1.4636,1.4479,1.4201,1.393,1.3624,1.2987,1.2473,1.2037,1.1582,1.1161,1.0755,1.0667,1.0493,1.0289,0.0,0.0,0.0,0.0,0.0,1.0693,1.1217,1.1301,1.1301,1.1335,1.1962,1.2672,1.3438,1.3502,1.3511,1.3541,1.4276,1.5548,1.7507,1.954,2.1536,2.3499,2.5537,2.6619,2.6637,2.7427,2.7328,2.6329,2.7318,2.7452,2.6901,2.852,2.9739,3.0569,3.1724,3.2178,3.2168,3.2189,3.1551,3.0401,2.9949,2.9095,2.8039,2.7151,2.5846,2.461,2.5419,0.0,0.0,2.1122,2.0377,2.0034,2.0354,2.0419,0.0,2.073,2.0257,1.9533,0.0,0.0,2.0702,2.1266,2.2444,2.3573,2.4067,2.3921,2.3949,2.4869,2.4102,2.3335,2.3775,2.3863,2.3874,2.4006,2.4202,2.4201,2.3951,2.3,2.1998,2.1236,2.0805,2.0525,0.0,2.198,2.3087,2.3471,2.3459,2.293,2.1718,2.0342,1.8803,1.7199,1.5545,1.4968,1.5469,1.469,1.4564,1.5089,1.4552,1.4449,1.4733,1.4721,1.4431,1.3918,1.3652,1.3393,1.3083,1.28,1.2539,1.2237,1.1793,1.1478,1.1216,1.0755,1.0493,1.0289,0.0,0.0,0.0,0.0,0.0,0.0,1.0744,1.0769,1.0896,1.1242,1.1953,0.0,0.0,0.0,0.0,0.0,1.3785,1.4671,1.6366,1.8559,2.0567,2.2359,2.4601,2.5957,2.6214,2.61,2.5891,2.5593,2.5242,2.5775,2.7122,2.7719,2.8963,3.0736,3.1169,3.1222,3.1011,3.1011,3.0506,2.9568,2.8185,2.7212,2.6372,2.4403,2.2867,2.1661,0.0,0.0,0.0,1.9011,1.8765,1.8965,1.9066,1.8818,1.8471,1.8322,1.809,1.8219,0.0,0.0,2.1413,2.3584,2.4023,2.4096,2.4671,2.4492,2.3924,2.3145,2.3067,2.293,2.2227,2.2559,2.3086,2.3515,2.3774,2.3919,2.3895,2.323,2.219,2.0879,2.1028,0.0,0.0,0.0,0.0,2.305,2.2699,2.2304,2.1971,2.0138,1.8554,1.748,1.619,1.5393,1.524,1.4974,1.5016,1.5366,1.5179,1.4962,1.4727,1.4896,1.4678,1.4159,1.4075,1.3785,1.3375,1.3284,1.2983,1.2592,1.2249,1.192,1.1481,1.083,1.0553,1.048,0.0,0.0,0.0,0.0,0.0,0.0,0.0,0.0,0.0,0.0,0.0,0.0,0.0,0.0,0.0,0.0,0.0,1.3825,1.5206,1.698,1.8668,2.0136,2.2076,2.3247,2.3492,2.33,2.3073,2.2865,2.2801,2.348,2.4749,2.5756,2.7192,2.895,2.9404,2.9549,2.9473,2.9149,2.8455,2.7373,2.5867,2.4691,2.3598,2.1602,2.0202,0.0,0.0,0.0,1.7791,1.7197,1.7251,1.7579,1.751,1.7397,1.7225,1.6985,1.7428,1.8468,0.0,2.1282,2.226,2.4365,2.4477,2.4176,2.4537,2.4033,2.3164,2.1914,2.1709,2.1473,2.0654,2.0917,2.1477,2.2277,2.2608,2.2964,2.3289,2.2908,2.2235,2.1273,2.1458,2.144,0.0,0.0,0.0,2.2162,2.2,2.1594,2.0974,1.9575,1.8369,1.7495,1.6426,1.578,1.5545,1.5254,1.5191,1.536,1.5451,1.5276,1.4865,1.5028,1.4811,1.4286,1.4099,1.3827,1.3507,1.3417,1.3248,1.3041,1.2698,1.2361,1.203,1.1379,1.1062,1.094,0.0,0.0,0.0,0.0,0.0,0.0,0.0,0.0,0.0,0.0,0.0,0.0,0.0,0.0,0.0,0.0,0.0,0.0,1.404,0.0,0.0,1.6951,1.8223,1.8941,1.8941,1.9293,1.9196,1.863,2.0189,2.065,2.0082,2.284,2.4526,2.5344,2.6435,2.7156,2.7469,2.6656,2.5451,2.4045,2.3084,2.1596,1.9844,1.8859,0.0,0.0,0.0,0.0,0.0,1.5657,1.5895,1.5926,1.58,1.6225,1.6775,1.6843,1.8315,2.0059,2.0625,2.1943,2.3266,2.3769,2.3867,2.3838,2.3769,2.2803,2.1768,2.1171,2.0137,1.9268,0.0,0.0,1.9367,2.045,2.0984,2.1542,2.2369,2.2333,2.2249,0.0,0.0,0.0,0.0,0.0,0.0,2.0886,0.0,2.1032,1.9078,1.8868,1.8363,1.7331,1.6442,1.607,1.6324,1.5551,1.5143,1.5131,1.5384,1.536,1.5107,1.5095,1.4799,1.4268,1.3773,1.355,1.3513,1.3266,1.332,1.3504,1.3019,1.2831,1.2797,1.2329,1.1962,1.1659,0.0,0.0,0.0,0.0,0.0,0.0,0.0,0.0,0.0,0.0,0.0,0.0,0.0,0.0,0.0,0.0,0.0,0.0,0.0,0.0,0.0,0.0,0.0,0.0,0.0,0.0,0.0,1.7821,1.783,1.8339,1.9278,1.9943,2.0909,2.2125,2.2016,2.2197,2.2587,2.2156,2.1956,2.1827,0.0,1.992,1.9273,0.0,0.0,0.0,0.0,0.0,0.0,0.0,0.0,0.0,0.0,1.7024,1.7837,1.8818,1.9717,2.0811,2.25,2.3516,2.4231,2.5001,2.499,2.4492,2.3525,2.2812,2.1777,1.9689,1.9287,1.8994,0.0,0.0,0.0,2.1016,2.1632,0.0,2.3355,2.3584,0.0,2.2419,0.0,2.284,2.2327,2.2008,0.0,0.0,2.0933,2.148,2.1535,2.001,1.8871,1.8415,1.741,1.6679,1.6324,1.5917,1.5596,1.5403,1.5469,1.536,1.5101,1.4908,1.463,1.4292,1.4159,1.3984,1.3803,1.3731,1.3857,1.4057,1.3527,1.3451,1.3547,1.2848,1.2591,1.2393,0.0,0.0,0.0,0.0,0.0,0.0,0.0,0.0,0.0,0.0,0.0,0.0,0.0,0.0,0.0,0.0,0.0,0.0,0.0,0.0,0.0,0.0,0.0,0.0,0.0,0.0,0.0,0.0,0.0,0.0,1.6983,1.7383,1.8222,1.942,1.9062,1.9143,1.9536,1.8995,0.0,0.0,0.0,0.0,0.0,0.0,0.0,0.0,0.0,0.0,0.0,0.0,0.0,1.7109,1.7676,1.8437,1.9346,2.0459,0.0,2.2327,2.3682,2.4521,2.507,2.5567,2.5117,2.4268,2.3359,2.2227,2.081,1.8978,1.8535,0.0,1.7519,0.0,0.0,0.0,0.0,0.0,2.3083,2.3587,2.3646,0.0,2.3529,0.0,2.3171,2.2382,2.1673,0.0,2.0636,2.0342,2.0183,1.9103,1.8408,1.8258,1.7589,1.6914,1.6324,1.6164,1.5864,1.5499,1.5499,1.536,1.5101,1.4835,1.4564,1.4292,0.0,1.4045,1.3906,1.3906,1.4057,1.4268,1.3972,1.3948,1.4009,1.3625,1.3298,1.3023,0.0,0.0,0.0,0.0,0.0,0.0,0.0,0.0,0.0,0.0,1.096,1.1074,0.0,0.0,0.0,0.0,0.0,0.0,0.0,0.0,0.0,0.0,0.0,0.0,0.0,0.0,0.0,0.0,0.0,0.0,0.0,0.0,0.0,0.0,0.0,0.0,0.0,0.0,0.0,0.0,0.0,0.0,0.0,0.0,0.0,0.0,0.0,0.0,0.0,0.0,1.7314,1.793,1.916,2.0176,2.1124,2.1963,2.3008,2.3975,2.4463,2.5099,2.5674,2.5615,2.4668,2.3555,2.3002,2.1269,1.9551,1.8549,0.0,1.7451,1.7393,1.762,1.8145,1.9311,0.0,2.1093,2.241,2.3,2.3575,2.4192,2.4238,2.4248,2.4358,2.2932,2.2085,2.2367,2.0388,1.8697,1.7524,1.7546,1.7582,1.7582,1.7331,1.6961,1.643,1.6324,1.6029,1.5551,1.5499,1.536,1.5101,1.4835,1.4582,1.434,1.4075,1.396,1.3954,1.3918,1.4057,1.4292,1.4256,1.4268,1.4298,1.4298,1.4016,1.3553,0.0,0.0,0.0,0.0,0.0,0.0,0.0,0.0,0.0,0.0,1.0762,1.0822,0.0,0.0,0.0,0.0,0.0,0.0,0.0,0.0,0.0,0.0,0.0,0.0,0.0,0.0,0.0,0.0,0.0,0.0,0.0,0.0,0.0,0.0,0.0,0.0,0.0,0.0,0.0,0.0,0.0,0.0,0.0,0.0,0.0,0.0,0.0,0.0,0.0,0.0,1.8792,1.9639,2.0557,2.1678,2.2818,2.3721,2.4131,2.4482,2.5245,2.5577,2.5596,2.5273,2.4264,2.2914,2.1407,2.0214,0.0,0.0,1.7477,1.7793,1.7451,1.7847,1.8728,2.0273,0.0,0.0,0.0,0.0,2.3749,0.0,0.0,0.0,0.0,0.0,0.0,0.0,2.0156,1.9102,1.8896,1.8067,1.7582,1.7582,1.7331,1.7126,1.7014,1.6537,1.6135,1.5817,1.5603,1.536,1.5101,1.4835,1.469,1.463,1.4352,0.0,1.4214,1.3996,1.4057,1.4274,1.4057,1.4105,1.4298,1.4298,1.425,1.41,0.0,0.0,0.0,0.0,0.0,0.0,0.0,1.0667,1.1009,1.1692,1.1643,1.1482,1.1357,1.1036,1.0895,0.0,0.0,0.0,0.0,0.0,0.0,0.0,0.0,0.0,0.0,0.0,0.0,0.0,0.0,0.0,0.0,0.0,0.0,0.0,0.0,0.0,0.0,0.0,0.0,0.0,0.0,0.0,0.0,0.0,0.0,0.0,0.0,0.0,0.0,0.0,1.8701,1.9893,2.1629,2.276,2.3643,2.4502,2.4756,2.4902,2.5508,2.5693,2.5586,2.5176,2.3935,2.249,2.1211,0.0,0.0,0.0,1.7725,1.7949,1.7744,1.8119,0.0,0.0,0.0,0.0,0.0,0.0,0.0,0.0,0.0,0.0,0.0,0.0,2.0632,2.0329,1.9107,1.8356,1.8356,1.7891,1.7582,1.7582,1.7337,1.718,1.7179,1.676,1.6231,1.5698,1.5544,1.5228,1.4684,1.4558,1.4497,1.4491,1.4358,1.4298,1.4286,1.4159,1.4183,1.4286,1.4159,1.4183,1.4298,1.4298,1.4298,1.425,0.0,0.0,0.0,0.0,0.0,0.0,1.079,1.1044,1.1488,1.2483,1.2611,1.2311,1.1614,1.1377,1.1082,0.0,0.0,0.0,0.0,0.0,0.0,0.0,0.0,0.0,0.0,0.0,0.0,0.0,0.0,0.0,0.0,0.0,0.0,0.0,0.0,0.0,0.0,0.0,0.0,0.0,0.0,0.0,0.0,0.0,0.0,0.0,0.0,0.0,0.0,0.0,1.8105,1.9394,2.1621,2.293,2.3769,2.4346,2.4822,2.5194,2.5498,2.5615,2.5557,2.5059,2.3643,2.2129,2.1132,1.964,0.0,0.0,1.7881,1.7978,1.7891,0.0,1.8637,0.0,0.0,0.0,0.0,0.0,0.0,0.0,0.0,0.0,0.0,0.0,0.0,1.9323,1.8171,1.7515,1.7582,1.7522,1.7515,1.7582,1.7353,1.7243,1.7279,1.6892,1.6337,1.5651,1.5594,1.5208,1.4496,1.4394,1.4394,1.4394,1.4346,1.4298,1.4298,1.4298,1.4298,1.4298,1.4298,1.4298,1.4298,1.4298,1.4298,1.4298,0.0,0.0,0.0,0.0,0.0,0.0,1.052,1.1152,1.188,1.2831,1.2956,1.2844,1.258,1.2198,1.1684,0.0,0.0,0.0,0.0,0.0,0.0,0.0,0.0,0.0,0.0,0.0,0.0,0.0,0.0,0.0,0.0,0.0,0.0,0.0,0.0,0.0,0.0,0.0,0.0,0.0,0.0,0.0,0.0,0.0,0.0,0.0,0.0,0.0,0.0,0.0,0.0,1.8311,1.9316,2.1279,2.3101,2.2832,0.0,0.0,2.5165,2.543,2.5489,2.4687,2.3203,2.1611,2.0322,0.0,0.0,1.6989,1.7438,1.79,1.751,1.7783,1.834,0.0,0.0,2.0118,0.0,0.0,0.0,0.0,0.0,0.0,0.0,0.0,0.0,1.9789,1.8206,1.7353,1.7569,1.7387,1.7367,1.7575,1.7353,1.734,1.7582,1.699,1.6548,1.6218,1.596,1.5568,1.5035,1.479,1.464,1.464,1.4394,1.4298,0.0,1.4298,1.4298,1.4298,1.4298,1.4298,1.4298,1.4298,1.4298,1.4298,0.0,0.0,0.0,0.0,0.0,0.0,1.0777,1.1136,1.1716,1.2855,1.3177,1.3177,1.2917,1.272,1.2158,1.1006,0.0,0.0,0.0,0.0,0.0,0.0,0.0,0.0,0.0,0.0,0.0,1.1845,0.0,0.0,0.0,0.0,0.0,0.0,0.0,0.0,0.0,0.0,0.0,0.0,0.0,0.0,0.0,0.0,0.0,0.0,0.0,0.0,0.0,0.0,0.0,0.0,1.6924,1.852,0.0,0.0,2.2978,2.4072,2.4853,2.54,2.5411,2.4326,2.2949,2.1543,2.0215,0.0,1.791,1.7535,1.7578,1.7656,1.7744,1.7686,1.7832,0.0,0.0,0.0,0.0,0.0,0.0,0.0,0.0,0.0,0.0,0.0,1.8738,1.8265,1.7585,1.7253,1.7367,1.7266,1.7253,1.7373,1.7034,1.6934,1.7054,1.6839,1.6483,1.6051,1.6134,1.5772,1.5083,1.4987,1.4838,1.4688,1.4592,1.4442,0.0,1.4298,1.4298,1.4298,1.4298,1.4298,1.4298,1.4298,1.4298,1.4298,0.0,0.0,0.0,0.0,0.0,0.9943,1.0953,1.1188,1.1679,1.2855,1.3206,1.3265,1.3031,1.284,1.2296,1.1264,1.0777,0.0,0.0,0.0,0.0,0.0,0.0,0.0,0.0,0.0,1.1714,1.2003,1.1809,1.1867,0.0,0.0,0.0,0.0,0.0,0.0,0.0,0.0,0.0,0.0,0.0,0.0,0.0,0.0,0.0,0.0,0.0,0.0,0.0,0.0,0.0,0.0,0.0,0.0,0.0,0.0,2.1699,2.2998,2.4033,2.4629,2.467,2.3672,2.2441,2.1191,0.0,0.0,1.7978,1.7852,1.7686,1.7627,1.7793,1.7686,1.7666,0.0,0.0,1.7931,0.0,0.0,0.0,0.0,0.0,2.041,0.0,1.8938,1.7514,1.7226,1.7199,1.7166,1.7072,1.7072,1.7146,1.7326,1.682,1.666,1.6834,1.666,1.6374,1.6022,1.619,1.5934,1.5315,1.5267,1.5124,1.4927,1.4783,1.4592,0.0,1.4346,1.4298,1.4298,1.4298,1.4298,1.4298,1.4298,1.4298,1.4298,0.0,0.0,0.0,0.0,0.0,0.9943,1.0953,1.1379,1.1936,1.2877,1.3009,1.3009,1.3009,1.2397,1.2003,1.1989,1.1728,0.0,0.0,0.0,0.0,0.0,0.0,0.0,0.0,0.0,1.1714,1.2003,1.1996,1.2164,1.2477,1.2149,1.1996,0.0,0.0,0.0,0.0,0.0,0.0,0.0,0.0,0.0,0.0,0.0,0.0,0.0,0.0,0.0,0.0,0.0,0.0,0.0,0.0,1.5735,1.6892,0.0,1.9883,2.1992,2.2422,2.2799,2.3023,2.2637,2.1543,2.039,0.0,0.0,1.7891,1.7471,1.7715,1.7881,1.7461,1.7725,1.8008,1.8008,0.0,0.0,0.0,0.0,0.0,0.0,0.0,2.0503,2.0047,1.8549,1.7514,1.7226,1.7199,0.0,1.6727,1.6707,1.6974,1.7562,1.6784,1.661,1.7192,1.6616,1.6279,1.6321,1.6279,1.6119,1.5784,1.5588,1.5493,1.5445,1.4927,1.4688,0.0,1.4394,1.4298,1.4298,1.4298,1.4298,1.4298,1.4298,1.4298,1.4298,0.0,0.0,0.0,0.0,0.0,0.0,1.0331,1.0711,1.1195,1.1951,1.2211,1.2397,1.2616,1.2259,1.2003,1.2003,1.1538,0.0,0.0,0.0,0.0,0.0,0.0,0.0,0.0,1.1772,1.2043,1.2332,1.2332,1.2499,1.2848,1.2485,1.2332,1.2317,1.1996,0.0,0.0,0.0,0.0,0.0,0.0,0.0,0.0,0.0,0.0,0.0,0.0,0.0,0.0,0.0,0.0,0.0,0.0,0.0,0.0,1.7028,1.8545,2.0332,2.1317,2.1953,2.2109,2.1367,2.0644,1.9893,1.9033,0.0,1.7969,1.7842,1.7686,1.7627,1.7783,1.7686,1.7596,1.7589,1.8158,0.0,0.0,0.0,0.0,0.0,0.0,1.9664,0.0,0.0,1.7514,1.7226,1.7528,1.7542,1.7085,1.7194,1.7208,1.6987,1.652,1.6409,1.6596,1.6415,1.6166,1.5972,1.6179,1.6119,1.5784,1.573,1.5635,1.5493,1.5302,1.5022,1.4688,1.4592,1.4496,1.4298,1.4298,1.4298,1.4298,1.4298,1.4298,1.4298,0.0,0.0,0.0,0.0,0.0,0.0,1.0026,1.0375,1.0806,1.1342,1.1655,1.1977,1.2273,1.2018,1.1904,1.1989,1.149,0.0,0.0,0.0,0.0,0.0,0.0,0.0,1.1591,1.1875,1.2222,1.2701,1.2833,1.306,1.3367,1.3038,1.2819,1.266,1.2332,1.2186,0.0,0.0,0.0,0.0,0.0,0.0,1.1591,0.0,0.0,0.0,0.0,0.0,0.0,0.0,0.0,0.0,0.0,0.0,0.0,0.0,1.7457,1.8643,2.0107,2.0703,2.0771,2.0263,1.9756,1.9212,0.0,0.0,1.8008,1.8008,1.7803,1.7705,1.7959,1.7793,1.7547,1.7271,1.7856,0.0,0.0,0.0,0.0,0.0,0.0,0.0,0.0,1.7977,1.7823,1.7936,1.7867,1.7861,1.7943,1.7526,1.7134,1.6881,1.6536,1.6321,1.6321,1.6159,1.6012,1.5784,1.6019,1.6005,1.5784,1.5784,1.573,1.5588,1.554,1.5302,0.0,1.4783,1.4592,1.4442,1.4346,1.4358,1.4443,1.4334,1.4364,1.4437,0.0,0.0,0.0,0.0,0.0,0.0,0.0,1.0332,1.0668,1.0997,1.1348,1.1677,1.1905,1.1704,1.1677,1.1945,1.1538,0.0,0.0,0.0,0.0,0.0,0.0,0.0,1.1628,1.1926,1.2368,1.3009,1.336,1.3682,1.3975,1.3697,1.3389,1.3067,1.2738,1.2529,1.247,1.2164,1.204,1.201,1.1753,1.1628,0.0,0.0,0.0,0.0,0.0,0.0,0.0,0.0,0.0,0.0,0.0,0.0,0.0,0.0,0.0,0.0,0.0,1.915,1.9141,1.9111,1.8818,1.8412,1.8057,0.0,0.0,1.8008,1.7988,1.7944,1.7979,1.7993,1.7745,1.6945,0.0,0.0,0.0,1.813,0.0,0.0,1.9915,0.0,1.8988,1.8482,1.8482,1.9309,1.8436,1.8272,1.9176,1.771,1.6968,1.7132,1.661,1.6321,1.6321,1.5979,1.5784,1.5784,1.5784,1.5784,1.5784,1.5784,1.5784,0.0,1.5588,1.5493,1.5445,1.4975,1.4736,1.4688,1.4442,1.4516,1.4684,1.4473,1.4491,1.4684,0.0,0.0,0.0,0.0,0.0,0.0,0.0,0.0,0.0,0.0,1.0838,1.1244,1.1315,1.1266,1.1276,0.0,0.0,0.0,0.0,0.0,0.0,0.0,0.0,0.0,1.1926,1.2489,1.2855,1.3009,1.3587,1.3901,1.3989,1.4196,1.4108,1.374,1.3411,1.2987,1.2485,1.2404,1.2375,1.2346,1.2018,1.1926,0.0,0.0,0.0,0.0,1.3321,1.4209,0.0,0.0,0.0,0.0,0.0,0.0,0.0,0.0,1.6465,1.6863,1.7627,0.0,1.7754,1.7389,1.751,1.7656,0.0,0.0,0.0,0.0,0.0,0.0,0.0,0.0,1.7546,0.0,0.0,0.0,1.7235,0.0,0.0,2.1762,2.015,1.9438,2.0687,1.9877,1.9874,2.119,2.0744,2.0113,1.9391,1.8882,1.7955,1.6549,1.6346,1.6321,1.6321,1.5979,1.5784,1.5784,1.5784,1.5784,1.5784,1.5784,1.5784,1.5784,1.5737,1.5635,1.5493,1.535,1.5166,1.4987,1.4933,1.4958,1.4986,1.4924,1.4802,1.4739,0.0,0.0,0.0,0.0,0.0,0.0,0.0,0.0,0.0,0.0,1.0674,1.109,1.109,1.109,1.1153,0.0,0.0,0.0,0.0,0.0,0.0,0.0,0.0,1.1955,1.2215,1.2565,1.3001,1.3455,1.3998,1.4282,1.4428,1.4604,1.4435,1.4005,1.3638,1.3301,1.2958,1.2777,1.2745,1.2701,1.2193,0.0,0.0,0.0,0.0,0.0,1.3381,1.4065,0.0,1.5511,1.598,1.6227,0.0,0.0,0.0,0.0,1.6261,1.6555,1.7059,1.7292,1.7373,1.7291,1.75,1.7666,1.7666,0.0,0.0,0.0,0.0,0.0,0.0,0.0,0.0,0.0,1.6981,0.0,0.0,0.0,0.0,2.2007,2.1078,2.0639,0.0,2.1172,2.1016,2.1604,2.0947,2.0343,2.0012,1.8745,1.7757,1.7169,1.6448,1.6072,1.6072,1.5912,1.5784,1.5784,1.5784,1.5784,1.5784,1.5784,1.5905,1.6025,1.5885,1.581,1.5827,1.5599,1.5404,1.5267,1.5131,1.5179,1.5264,1.514,1.5029,1.4902,0.0,0.0,0.0,0.0,0.0,0.0,0.0,0.0,0.0,0.0,0.0,0.0,0.0,0.0,0.0,0.0,0.0,0.0,0.0,0.0,0.0,0.0,1.1897,1.2098,1.2658,1.2638,1.3104,1.3982,1.4394,1.4677,1.4907,1.5002,1.4721,1.4078,1.366,1.3492,1.3477,1.3199,1.3082,1.3023,1.2339,0.0,0.0,0.0,0.0,0.0,0.0,0.0,0.0,1.6083,1.623,1.5951,1.6362,0.0,0.0,0.0,0.0,0.0,1.6832,1.7184,1.7439,1.7758,1.7929,1.7978,1.7944,0.0,0.0,0.0,0.0,0.0,0.0,1.715,0.0,0.0,0.0,0.0,1.9164,1.9736,2.0561,2.2117,2.2088,0.0,2.2531,2.2257,2.1988,2.1692,2.0566,2.0051,2.048,1.8375,1.745,1.8096,1.6752,1.6015,1.6015,1.5879,1.5784,1.5784,1.5784,1.5784,1.5784,1.5784,1.5965,1.6192,0.0,0.0,1.6186,1.5741,1.554,1.5547,1.5315,1.5365,1.5569,1.5388,1.5282,1.5176,0.0,0.0,0.0,0.0,0.0,0.0,0.0,0.0,0.0,0.0,0.0,0.0,0.0,0.0,0.0,0.0,0.0,0.0,0.0,0.0,0.0,1.2404,1.2665,1.2958,1.3338,1.3345,1.3558,1.3982,1.4582,1.4856,1.4915,1.5462,1.5277,1.4408,1.3762,1.3492,1.3492,1.344,1.3418,1.3367,1.2674,0.0,0.0,0.0,0.0,0.0,0.0,0.0,0.0,1.5485,1.5925,1.6221,1.5745,0.0,0.0,0.0,0.0,0.0,1.6918,1.7188,1.7226,1.7159,1.7533,1.7868,1.7714,0.0,0.0,0.0,0.0,0.0,0.0,1.725,1.7475,0.0,0.0,1.8368,0.0,0.0,2.2016,2.2656,0.0,2.3,2.4497,2.3098,2.2492,2.3352,2.1911,2.052,1.9577,1.9381,1.8839,1.7802,1.733,1.7091,1.7091,1.6251,1.5784,1.5784,1.5784,1.5784,1.5784,1.5784,1.5804,1.5844,0.0,1.5804,1.5844,1.5798,1.5737,1.5737,1.5689,1.5901,1.6161,1.6116,1.598,1.5688,0.0,0.0,0.0,0.0,0.0,0.0,0.0,0.0,0.0,0.0,0.0,0.0,0.0,0.0,0.0,0.0,0.0,0.0,0.0,0.0,1.2349,1.3437,1.3638,1.3654,1.3492,1.3492,1.4082,1.5304,1.5212,1.5531,1.6219,1.5472,1.4801,1.4225,1.3704,1.3702,1.4086,1.4086,1.433,1.4649,0.0,0.0,0.0,0.0,0.0,0.0,0.0,0.0,0.0,0.0,1.5744,1.5705,1.5766,0.0,0.0,0.0,0.0,0.0,1.6779,1.7164,1.7407,1.7545,1.7873,1.8095,1.7995,0.0,0.0,0.0,0.0,0.0,0.0,0.0,1.819,1.6174,0.0,1.9596,1.9909,2.1544,2.2867,0.0,0.0,2.4236,2.5031,2.4463,2.3669,2.2696,2.189,2.0663,1.8972,1.8507,1.836,1.8519,1.787,1.7466,1.7279,1.6857,1.6346,1.5784,1.5784,1.5784,1.5784,1.5784,1.5919,1.6059,0.0,1.5919,1.6052,1.5844,1.5784,1.5784,1.5784,1.6005,1.6288,1.6285,1.6118,1.5813,0.0,0.0,0.0,0.0,0.0,0.0,0.0,0.0,0.0,0.0,0.0,0.0,0.0,0.0,0.0,0.0,0.0,0.0,0.0,1.2432,1.3075,1.4403,1.4577,1.4488,1.4213,1.4294,1.516,1.6835,1.6191,1.632,1.7163,1.5823,1.4934,1.4516,1.4173,1.4338,1.4851,1.4851,1.5171,1.5676,0.0,0.0,0.0,0.0,0.0,0.0,0.0,0.0,0.0,0.0,0.0,0.0,0.0,0.0,0.0,1.5889,1.5875,1.6091,1.6675,1.7185,1.7615,1.7931,1.8268,1.8502,1.8568,1.8247,0.0,0.0,0.0,0.0,0.0,1.8366,0.0,1.8254,1.96,2.0592,2.0103,2.1915,2.3422,2.356,2.4373,2.4959,2.4959,2.4976,2.4111,2.193,2.1516,2.0651,1.8997,1.8105,1.8268,1.9575,1.8657,1.8056,1.801,1.7606,1.6857,1.5784,1.5784,1.5784,1.5784,1.5784,1.5952,1.6152,1.5925,1.5959,1.6152,1.5925,1.5784,1.5784,1.5784,1.6047,1.6408,1.6504,1.6335,1.6052,0.0,0.0,0.0,0.0,0.0,0.0,0.0,0.0,0.0,0.0,0.0,0.0,0.0,0.0,0.0,0.0,0.0,0.0,0.0,1.3947,1.4815,1.4942,1.5383,1.5855,1.6351,1.6631,1.7167,1.8075,1.7515,1.7032,1.6566,1.6971,1.6792,1.6038,1.5703,1.5569,1.5604,1.5604,1.564,1.5676,1.5412,0.0,0.0,0.0,0.0,0.0,0.0,0.0,0.0,0.0,0.0,0.0,0.0,0.0,1.6447,1.616,1.6085,1.6216,1.6823,1.7317,1.7678,1.7709,1.8401,0.0,1.9349,1.9514,0.0,1.9976,0.0,0.0,0.0,1.8147,1.8605,2.0195,2.0863,2.1047,2.0663,0.0,2.3525,2.2944,2.3812,2.4463,2.4463,2.3589,2.2813,2.2309,2.1348,2.0564,2.0119,1.9828,2.0056,2.0853,1.9894,1.9621,2.0068,1.8465,1.7037,1.5784,1.5784,1.5784,1.5784,1.5784,1.5791,1.5811,1.5791,1.5791,1.5811,1.5791,1.5784,1.5784,1.5784,1.6137,1.673,1.7042,1.6977,1.6697,0.0,0.0,0.0,0.0,0.0,0.0,0.0,0.0,0.0,0.0,0.0,0.0,0.0,0.0,0.0,0.0,0.0,0.0,0.0,1.416,1.4975,1.5757,1.6113,1.6732,1.7706,1.7213,1.7476,1.8557,1.8268,1.7792,1.7044,1.6801,1.6391,1.5879,1.5778,1.5991,1.6446,1.6446,1.6698,1.7085,1.6762,1.6482,0.0,0.0,0.0,0.0,0.0,0.0,0.0,0.0,1.5371,1.5388,1.5634,1.5908,1.6125,1.6107,1.6181,1.6347,1.6552,1.7141,1.7699,1.7699,1.8413,0.0,0.0,1.9492,1.9941,2.017,2.0876,0.0,0.0,0.0,2.0396,2.1043,2.1858,2.2199,2.1742,2.2892,2.3712,2.3448,2.4019,2.4316,2.4053,2.3881,2.3381,2.2364,2.1915,2.1278,2.0257,1.9559,1.984,2.1159,2.0257,1.9977,2.0466,1.9824,1.8549,1.6723,1.6109,1.5784,1.5784,1.5784,1.5784,1.5784,1.5784,1.5784,1.5784,1.5784,1.5784,1.5798,1.6032,1.6353,1.6754,1.7065,1.716,1.699,0.0,0.0,0.0,0.0,0.0,0.0,0.0,0.0,0.0,0.0,0.0,0.0,0.0,0.0,0.0,0.0,0.0,0.0,1.4372,1.4917,1.5687,1.6655,1.6862,1.7404,1.844,1.7917,1.8226,1.9391,1.9266,1.8601,1.7386,1.7103,1.6759,1.6411,1.6411,1.6733,1.726,1.726,1.7545,1.7978,1.7549,1.7119,0.0,0.0,0.0,0.0,0.0,0.0,0.0,0.0,1.5449,1.5546,1.5701,1.5856,1.599,1.6153,1.6278,1.6413,1.6413,1.7046,1.7668,0.0,0.0,0.0,1.9298,1.9808,2.0404,2.0858,2.1658,0.0,0.0,0.0,0.0,0.0,2.2722,2.311,2.2747,2.3207,2.3584,2.3584,2.3838,2.3896,2.3613,2.3848,2.3606,2.2623,2.256,2.2114,2.1159,2.024,2.0339,2.1748,2.0926,2.0701,2.115,2.0863,1.9914,1.8326,1.7264,1.6426,1.5784,1.5784,1.5784,1.5784,1.5784,1.5784,1.5784,1.5784,1.5784,1.5811,1.6159,1.6446,1.674,1.7092,1.7237,1.7285,0.0,0.0,0.0,0.0,0.0,0.0,0.0,0.0,1.4515,1.4515,1.4515,0.0,0.0,0.0,0.0,0.0,0.0,0.0,1.5358,1.649,1.7279,1.7495,1.7613,1.7977,1.8588,1.9053,1.9734,2.0595,2.0586,1.9496,1.7441,1.8235,1.8383,1.8008,1.8018,1.8018,1.8008,1.8008,1.8008,1.7978,1.7549,1.7119,1.6658,0.0,0.0,0.0,0.0,0.0,0.0,0.0,1.5546,1.5711,1.5856,1.599,1.6142,1.6345,1.6413,1.6413,1.6413,1.7046,1.7585,0.0,0.0,0.0,2.0338,2.0757,2.1383,2.2325,0.0,2.2646,2.3111,0.0,0.0,2.3409,2.3516,2.3503,2.3503,2.3276,2.3091,2.3091,2.3091,2.3091,2.3091,2.3091,2.3091,2.3091,2.3091,2.3091,2.3091,2.2192,2.2024,2.2803,2.2104,2.1926,2.2397,2.1463,2.0863,2.0593,1.9376,1.7777,1.5825,1.5825,1.5832,1.5784,1.5784,1.5784,1.5784,1.5784,1.5784,1.5811,1.6152,1.6446,1.674,1.7085,1.738,1.7528,0.0,0.0,0.0,0.0,0.0,0.0,0.0,0.0,1.4515,1.4515,1.4515,0.0,0.0,0.0,0.0,0.0,0.0,0.0,1.562,1.6717,1.7303,1.7087,1.7615,1.7988,1.8159,1.8578,1.9212,2.0107,1.9209,1.8579,1.8244,1.8492,1.8383,1.8018,1.8286,1.8256,1.8008,1.8008,1.8008,1.7978,1.7549,1.7305,1.7109,0.0,0.0,0.0,0.0,0.0,0.0,0.0,0.0,0.0,1.5701,1.5846,1.599,1.6153,1.6278,1.6446,1.6757,1.7006,0.0,1.8268,0.0,0.0,0.0,2.1507,0.0,0.0,2.3205,2.3122,2.3588,0.0,0.0,2.3502,2.3634,2.3667,2.3503,2.3406,2.3319,2.3135,2.3091,2.3091,2.3091,2.3091,2.3091,2.3091,2.3091,2.3091,2.3091,2.2192,2.2104,2.296,2.2148,2.2015,2.2662,2.2432,2.1784,2.0863,2.0503,1.9139,1.6864,1.6864,1.6487,1.5784,1.5784,1.5784,1.5784,1.5784,1.5784,1.5791,1.5925,1.6139,1.6413,1.6549,1.6714,1.6927,0.0,0.0,0.0,0.0,0.0,0.0,0.0,0.0,1.4515,1.4515,1.4515,1.4662,0.0,0.0,0.0,0.0,0.0,0.0,0.0,1.6824,1.7177,1.7226,1.7625,1.7974,1.8217,1.8315,1.8685,1.9368,1.8598,1.8266,1.8354,1.852,1.8461,1.8237,1.849,1.8461,1.8217,1.8076,1.8008,1.7978,1.7549,1.7275,1.7051,0.0,0.0,0.0,0.0,0.0,0.0,0.0,0.0,0.0,1.5643,1.5798,1.5914,1.599,1.6192,1.6436,1.6607,1.6947,0.0,1.8547,1.9585,2.0659,2.2035,0.0,0.0,0.0,0.0,2.3598,2.4053,2.3865,0.0,2.3884,2.3927,2.3937,2.3807,2.3677,2.3537,2.3276,2.3276,2.3232,2.3091,2.3091,2.3091,2.3091,2.3091,2.3091,2.3091,2.2555,2.2511,2.3091,2.2555,2.2467,2.2925,2.2838,2.2432,2.1686,2.1606,2.0602,1.8734,1.787,1.7091,1.6393,1.6393,1.6157,1.5832,1.6251,1.6088,1.5658,1.5658,1.5765,1.5925,1.5925,1.6186,1.6493,0.0,0.0,1.4039,1.4442,0.0,0.0,0.0,0.0,1.4515,1.4515,1.4515,1.4662,0.0,0.0,0.0,0.0,0.0,1.6606,1.7126,1.6871,1.6967,1.7639,1.7687,1.7967,1.8539,1.8203,1.8159,1.8549,1.8549,1.8354,1.8018,1.8442,1.8637,1.8598,1.8637,1.8617,1.852,1.8135,1.7959,1.792,1.7539,1.7148,1.6707,1.632,0.0,0.0,0.0,0.0,0.0,0.0,0.0,0.0,1.5614,1.5769,1.5885,1.5885,1.6155,1.6355,1.6233,0.0,0.0,1.8382,1.9913,0.0,2.3008,2.3639,2.4043,2.4363,0.0,2.4064,2.4425,2.4209,2.4074,2.4435,2.4325,2.4206,2.4206,2.398,2.3754,2.3547,2.3547,2.3406,2.3188,2.3135,2.3144,2.3144,2.3091,2.3091,2.3091,2.3091,2.3091,2.3091,2.3091,2.3091,2.3091,2.2925,2.2847,2.2838,2.2574,2.2015,2.1087,1.8964,1.7716,1.7282,1.7252,1.6725,1.5934,1.6847,1.6543,1.5495,1.5464,1.5404,1.5357,1.5384,1.5718,1.6119,0.0,0.0,1.4039,1.4442,0.0,0.0,0.0,0.0,0.0,1.4515,0.0,0.0,0.0,0.0,0.0,0.0,1.6825,1.6977,1.6973,1.7287,1.7398,1.7235,1.7687,1.8013,1.8144,1.8057,1.8057,1.8144,1.8144,1.8061,1.8027,1.8789,1.8965,1.8617,1.8994,1.8769,1.8081,1.7695,1.7519,1.751,1.7422,1.7324,1.7197,1.6758,1.6309,0.0,0.0,0.0,0.0,0.0,0.0,0.0,1.5449,1.5662,1.5885,1.5885,1.6155,1.6456,1.6739,1.7245,0.0,0.0,2.1151,2.3008,2.4022,2.429,2.4322,2.4074,2.4219,2.4383,2.4476,2.4425,2.4394,2.4487,2.4454,2.4368,2.4206,2.4153,2.4024,2.3754,2.3754,2.3711,2.3667,2.3493,2.3406,2.3406,2.3232,2.3091,2.3091,2.3091,2.3091,2.3091,2.3091,2.3091,2.3091,2.3057,2.3057,2.3047,2.296,2.274,2.2344,2.0737,1.8894,1.6961,1.6809,1.6527,1.6228,1.6646,1.6521,1.6067,1.5831,1.5458,1.5129,1.5311,1.5331,1.5316,0.0,0.0,0.0,0.0,0.0,0.0,0.0,0.0,0.0,0.0,0.0,0.0,0.0,0.0,0.0,0.0,1.6379,1.6519,1.664,1.6962,1.7239,1.7523,1.7813,1.8008,1.8008,1.8008,1.8008,1.8008,1.8008,1.8008,1.8027,1.8887,1.916,1.8955,1.9189,1.8926,1.8247,1.7861,1.7568,1.7435,1.7598,1.7568,1.7334,1.6863,1.6455,1.6036,1.5566,0.0,0.0,0.0,0.0,0.0,0.0,0.0,1.5885,1.5827,1.6087,1.6425,1.6537,0.0,0.0,1.9965,0.0,2.3039,2.3732,2.4064,2.4157,2.3929,2.4229,2.4497,2.4497,2.4321,2.4219,2.4219,2.4219,2.4104,2.3762,2.3916,2.3883,2.3363,2.3525,2.3614,2.3529,2.3591,2.3624,2.3624,2.3406,2.3276,2.3276,2.3188,2.3091,2.3091,2.3091,2.3091,2.3091,2.3091,2.3091,2.3091,2.3091,2.3013,2.275,2.1418,1.9796,1.8168,1.8401,1.8055,1.7397,1.8141,1.785,1.6911,1.6311,1.584,1.5434,1.4933,1.485,1.5028,0.0,0.0,0.0,0.0,0.0,0.0,0.0,0.0,0.0,0.0,0.0,0.0,0.0,0.0,1.5697,0.0,0.0,0.0,1.6437,1.6497,1.6912,1.773,1.7793,1.7793,1.7793,1.7793,1.7793,1.7793,1.7871,1.7939,1.8027,1.8887,1.9287,1.9287,1.9287,1.9004,1.8461,1.7964,1.7588,1.7295,1.7568,1.7471,1.7119,1.6758,1.6338,1.5938,1.5537,1.541,1.542,1.5498,0.0,0.0,0.0,0.0,1.6066,1.5899,1.6141,1.6409,1.6202,0.0,1.8339,2.0565,2.1745,0.0,2.306,2.3484,2.3764,2.3764,2.4178,2.4497,2.4497,2.4178,2.3919,2.3919,2.3805,2.3629,2.3246,2.3515,2.3567,2.2931,2.3217,2.3369,2.3212,2.344,2.3609,2.3609,2.3448,2.3348,2.3428,2.3142,2.2993,2.3071,2.2959,2.2847,2.2769,2.2769,2.2769,2.2769,2.2847,2.2868,2.2838,2.1754,2.0676,1.9715,2.0293,1.9864,1.8814,1.9813,1.9345,1.7929,1.7066,1.6497,1.6082,1.5036,1.4852,1.5157,0.0,0.0,0.0,0.0,0.0,0.0,0.0,0.0,0.0,0.0,1.4736,1.5102,0.0,1.5305,1.5666,1.5785,1.6093,1.6398,1.6624,0.0,0.0,1.6872,1.6872,1.6872,1.6872,1.6872,1.6872,1.6872,1.7275,1.7656,1.8027,1.8887,1.9287,1.9287,1.9287,1.8848,1.8047,1.7213,1.6843,1.6755,1.6455,1.632,1.6261,1.6202,1.5879,1.5488,1.543,1.541,1.5469,1.588,1.6007,0.0,0.0,0.0,1.6785,1.6467,1.6557,1.6683,0.0,0.0,1.8754,0.0,2.1507,2.2128,0.0,0.0,2.3277,0.0,0.0,0.0,0.0,0.0,0.0,0.0,0.0,0.0,0.0,2.3236,2.3256,2.3154,2.3195,2.3236,2.3196,2.3033,2.2941,2.2941,2.2735,2.2833,2.3215,2.2665,2.251,2.2896,2.2372,2.1875,2.1453,2.1444,2.1444,2.1453,2.1875,2.2389,2.3038,2.2539,2.1605,2.0377,2.0334,2.0112,1.9736,1.9957,1.9774,1.9247,1.8302,1.762,1.7072,1.678,1.6274,1.572,0.0,0.0,0.0,0.0,0.0,0.0,0.0,0.0,0.0,0.0,0.0,1.5802,0.0,1.5831,1.5822,1.5969,1.5899,1.5993,1.6338,1.6357,1.6465,1.6687,1.6697,1.6697,1.6697,1.6697,1.6697,1.6697,1.6924,1.7447,1.8334,1.875,1.918,1.9629,1.9394,1.8945,1.8266,1.7461,1.6921,1.6687,1.6514,1.6436,1.6406,1.6193,1.5977,1.5772,1.5498,1.541,1.5478,1.5948,1.6095,1.6173,1.656,0.0,0.0,0.0,1.6578,0.0,1.6739,1.7378,1.833,0.0,2.0317,0.0,0.0,0.0,0.0,0.0,0.0,0.0,0.0,0.0,0.0,0.0,0.0,0.0,0.0,0.0,0.0,2.2449,2.2646,2.2801,2.2801,2.2948,2.3012,2.3012,2.2574,2.2352,2.2554,2.186,2.1511,2.1708,2.136,2.1055,2.0859,2.0859,2.0859,2.0869,2.1309,2.1668,2.2029,2.2129,2.198,2.1607,2.1447,2.1147,2.0857,2.0977,2.0741,2.0253,1.9582,1.8916,1.8277,1.7766,1.742,1.7169,0.0,0.0,0.0,0.0,0.0,0.0,0.0,0.0,0.0,0.0,0.0,0.0,0.0,0.0,0.0,0.0,1.5921,1.5713,1.5909,1.5928,1.6045,1.6356,1.652,1.651,1.6365,1.652,1.651,1.6365,1.6473,1.7184,1.8442,1.8549,1.9114,2.0059,1.9639,1.915,1.8559,1.7852,1.7353,1.7009,1.6785,1.6697,0.0,0.0,1.6261,1.6172,1.5732,1.5644,1.5771,1.6123,1.6339,1.6506,1.6882,1.7115,0.0,0.0,0.0,0.0,0.0,0.0,1.7688,0.0,0.0,0.0,0.0,0.0,0.0,0.0,0.0,0.0,0.0,0.0,0.0,0.0,0.0,0.0,0.0,0.0,0.0,0.0,0.0,0.0,2.2159,2.2459,2.2615,2.2501,2.1994,2.1734,2.1857,2.1018,2.0609,2.0756,2.0456,2.0224,2.0078,2.0078,2.0137,2.0282,2.0693,2.0976,2.121,2.1572,2.1894,2.2155,2.2146,2.2026,2.1832,2.1749,2.1443,2.102,2.061,2.0152,1.9605,1.8913,1.8706,1.8613,0.0,0.0,0.0,0.0,0.0,0.0,0.0,0.0,0.0,0.0,0.0,0.0,1.703,1.7084,1.7146,1.7146,1.6613,1.6007,1.5469,1.5449,1.5459,1.5478,1.6011,0.0,1.5478,1.6021,1.6039,1.5478,1.5928,1.6768,1.8047,1.8412,1.9316,2.0546,2.0078,1.9414,1.8568,0.0,0.0,0.0,0.0,0.0,0.0,0.0,0.0,0.0,0.0,0.0,0.0,0.0,0.0,0.0,1.7812,1.7939,1.7817,0.0,0.0,0.0,0.0,1.6481,0.0,0.0,0.0,0.0,0.0,0.0,0.0,0.0,0.0,0.0,0.0,0.0,0.0,0.0,0.0,0.0,0.0,0.0,0.0,0.0,0.0,0.0,0.0,0.0,0.0,0.0,2.0509,2.0684,2.1129,2.0372,2.0159,2.0581,1.9802,1.915,1.8705,1.8695,1.8945,1.9355,1.9785,2.0381,2.119,2.122,2.1239,2.1278,2.1738,2.2129,2.2409,2.1768,2.148,2.146,2.1252,2.1117,2.1057,2.0815,2.0409,1.986,0.0,0.0,0.0,0.0,0.0,0.0,0.0,0.0,0.0,0.0,0.0,0.0,0.0,1.771,1.76,1.7765,1.723,1.6782,1.6557,1.6557,1.6557,1.6557,1.6754,1.6782,1.6557,1.6782,1.6585,1.5968,1.616,1.6707,1.7607,1.7764,1.8369,1.9336,1.9453,1.9346,1.8994,1.8018,0.0,0.0,0.0,0.0,0.0,0.0,0.0,0.0,0.0,0.0,0.0,0.0,0.0,0.0,1.7881,1.8008,1.7875,1.7197,1.6646,0.0,0.0,0.0,0.0,0.0,0.0,0.0,0.0,0.0,0.0,0.0,0.0,0.0,0.0,0.0,0.0,0.0,0.0,0.0,0.0,0.0,0.0,0.0,0.0,0.0,0.0,0.0,0.0,0.0,0.0,2.0104,2.0269,1.9577,1.9276,1.9438,1.8929,1.8527,1.8208,1.8198,1.8311,1.8477,1.8861,1.9377,1.999,1.999,2.0449,2.1171,2.0801,2.1025,2.1639,2.1401,2.1211,2.1168,2.1642,2.1597,2.121,2.1273,2.1161,2.0802,0.0,0.0,0.0,1.8451,0.0,1.9179,1.8097,1.8678,1.8963,1.8058,0.0,0.0,0.0,0.0,1.8131,1.8093,1.7912,1.7601,1.724,1.7202,1.7202,1.7202,1.7396,1.7424,1.7202,1.7396,1.7202,1.6613,1.6386,1.6716,1.7481,1.7412,1.7832,1.8617,1.8936,1.9072,0.0,0.0,0.0,1.7764,0.0,0.0,1.7311,0.0,0.0,0.0,0.0,0.0,0.0,0.0,0.0,0.0,1.793,1.791,1.766,1.6916,1.6575,0.0,1.5938,0.0,0.0,0.0,0.0,0.0,0.0,0.0,0.0,0.0,0.0,0.0,0.0,0.0,0.0,0.0,0.0,0.0,0.0,0.0,0.0,0.0,0.0,0.0,0.0,0.0,0.0,0.0,0.0,0.0,1.9564,1.9072,1.8846,1.8931,1.8658,1.8522,1.8542,1.8326,1.8188,1.8223,1.8617,1.8936,1.9082,1.9365,1.9893,2.0557,2.0107,2.0372,2.1181,2.1034,2.0917,2.0884,2.1755,2.1836,2.1447,2.1665,2.1687,2.1407,1.9011,1.9471,1.9832,1.9832,1.9844,1.9856,1.9832,1.9372,1.9035,1.9035,0.0,0.0,0.0,0.0,0.0,1.822,1.8631,1.8464,1.7368,1.7268,1.7257,1.7257,1.7809,1.7847,1.7257,1.7847,1.7847,1.723,1.6641,1.6777,1.7606,1.7504,1.787,1.8629,1.8613,1.8613,1.8613,0.0,1.8588,1.8549,0.0,1.8286,1.8613,0.0,0.0,0.0,1.835,1.8286,0.0,1.7733,0.0,0.0,0.0,1.7744,1.7259,1.6388,1.6225,0.0,0.0,0.0,0.0,0.0,0.0,0.0,1.6789,0.0,1.7244,0.0,0.0,0.0,0.0,0.0,0.0,0.0,0.0,0.0,0.0,0.0,0.0,0.0,0.0,0.0,0.0,0.0,0.0,0.0,1.9108,1.9108,1.9108,1.8908,1.8944,1.9183,1.8999,1.9137,1.9584,1.8954,1.8607,1.8617,1.9072,1.9053,1.8646,1.9455,1.9648,1.9307,1.9717,2.0352,2.1122,2.0781,2.0615,2.0713,2.1543,2.1894,2.1953,2.21,2.2031,2.1707,1.9519,2.0009,2.0382,2.0382,2.0706,2.0827,2.0442,2.0261,2.0153,0.0,0.0,0.0,2.0129,2.0153,2.0101,1.992,1.9678,1.942,1.9112,1.8721,1.8509,1.8509,1.8655,1.8682,1.8509,1.8682,1.8456,1.7847,1.7672,1.7688,1.7817,1.8169,1.8617,1.9113,1.8952,1.8904,1.887,1.8379,0.0,1.8208,1.8738,1.9016,0.0,0.0,0.0,0.0,0.0,1.877,1.8535,0.0,1.9402,1.938,0.0,0.0,1.7734,1.721,1.7246,0.0,1.6407,0.0,0.0,0.0,0.0,0.0,1.6425,1.656,1.6861,0.0,0.0,0.0,0.0,0.0,0.0,0.0,0.0,0.0,0.0,0.0,0.0,0.0,0.0,0.0,0.0,0.0,0.0,0.0,1.9108,1.9108,1.9108,1.9042,1.8959,1.889,1.8856,1.8976,1.9324,1.8973,1.9002,1.9318,1.8942,1.888,1.9092,1.8711,1.8809,1.9297,1.9414,1.9775,2.0293,2.0527,2.0752,2.1103,2.167,2.207,2.2272,2.1849,2.1562,2.1258,2.0069,2.0574,2.0918,2.0918,2.1199,2.1296,2.0995,2.0562,2.0346,0.0,0.0,0.0,2.0521,2.0995,2.1097,2.0622,2.0298,2.0033,1.982,1.9314,1.9083,1.9338,1.9324,1.9432,1.966,1.9672,1.9495,1.9151,1.8888,1.8726,1.8672,1.8953,1.9236,1.9471,1.9512,1.9584,1.965,0.0,0.0,0.0,1.8977,0.0,0.0,2.016,2.0171,0.0,0.0,0.0,1.9942,2.0226,2.0435,0.0,0.0,0.0,0.0,0.0,0.0,0.0,0.0,0.0,0.0,0.0,0.0,0.0,1.662,1.674,1.6973,0.0,1.786,0.0,0.0,0.0,0.0,0.0,0.0,0.0,0.0,0.0,0.0,0.0,0.0,0.0,0.0,1.9502,1.9388,1.9119,1.9108,1.9108,1.9108,1.9108,1.9124,1.9219,1.9128,1.9239,1.9556,1.9308,1.933,1.9578,1.9105,1.8945,1.9004,1.8691,1.8711,1.9043,1.9394,1.9687,1.9951,2.0429,2.083,2.1239,2.1719,2.2031,2.2217,2.1829,2.1409,2.1014,0.0,2.1127,2.1488,2.1488,2.1536,2.1584,2.1584,2.0706,2.0249,0.0,2.0442,2.0374,2.0899,2.1753,2.1897,2.0959,2.0779,2.049,2.0025,1.9468,1.9384,1.988,1.9904,2.0105,2.0581,2.0581,2.0581,2.0581,2.0065,1.9819,1.9831,1.9894,1.9935,1.9958,2.0271,2.0558,2.0687,0.0,0.0,1.863,1.9299,1.9896,0.0,0.0,2.1598,2.1834,2.1486,2.1609,2.1857,2.1079,2.1089,0.0,0.0,0.0,0.0,0.0,1.8061,0.0,0.0,0.0,0.0,0.0,0.0,0.0,1.7097,1.721,1.7389,1.7897,1.8293,0.0,0.0,0.0,0.0,0.0,0.0,0.0,0.0,0.0,0.0,0.0,0.0,0.0,1.8984,1.9025,1.9046,1.9098,1.9108,1.9108,1.9108,1.9108,1.9295,1.971,1.9548,1.9659,2.0063,1.9745,1.9624,1.9713,1.9413,1.9033,1.8685,1.9062,1.9004,1.8646,1.9455,1.9873,1.9941,2.0332,2.081,2.1298,2.168,2.1904,2.2012,2.1924,2.1508,2.0947,2.1163,2.168,2.2041,2.2041,2.239,2.2678,2.2678,2.2125,2.1909,2.245,2.2426,2.259,2.3132,2.2987,2.2751,2.2534,2.174,2.1199,2.1091,2.0598,2.0346,2.0454,2.0454,2.0502,2.0581,2.0581,2.0581,2.0581,2.0598,2.0598,2.0598,0.0,0.0,2.1464,2.1393,2.1365,2.1365,0.0,0.0,2.0375,2.1101,0.0,2.1642,2.2325,2.2291,2.1941,2.2279,2.2103,2.1722,2.2084,2.1911,2.16,0.0,0.0,0.0,2.0566,0.0,0.0,0.0,0.0,0.0,0.0,0.0,0.0,1.7186,1.7331,1.7562,0.0,0.0,0.0,0.0,0.0,0.0,0.0,0.0,0.0,0.0,0.0,0.0,0.0,0.0,0.0,1.8507,1.8548,1.8704,1.9077,1.9108,1.9108,1.9108,1.9108,1.915,1.9233,1.921,1.9393,1.9848,1.9624,1.9778,2.0326,1.9415,1.9039,1.915,1.8887,1.8685,1.8627,1.918,1.96,1.9922,2.001,2.0723,2.1728,2.1465,2.1951,2.2769,2.2139,2.1683,2.1373,2.174,2.2017,2.2282,2.2534,2.2582,2.2678,2.2975,2.2306,2.2089,2.2871,2.3424,0.0,0.0,0.0,0.0,0.0,0.0,2.1404,2.1404,2.0911,2.073,2.0995,2.1007,2.1139,2.1392,2.1451,2.1511,2.1511,2.166,2.1748,0.0,0.0,0.0,0.0,2.2274,2.2292,2.231,0.0,2.1834,2.1947,2.1896,0.0,2.2063,2.2732,2.2793,2.2537,2.2805,2.2671,2.2469,2.3079,2.3262,0.0,0.0,2.2273,2.22,0.0,2.1062,2.093,0.0,0.0,0.0,1.9527,0.0,0.0,0.0,1.8523,1.8679,1.8382,0.0,0.0,0.0,0.0,0.0,0.0,0.0,0.0,0.0,0.0,0.0,0.0,0.0,0.0,1.8477,1.8499,1.848,1.8414,1.8631,1.8756,1.8756,1.8973,1.9108,1.9108,1.9108,1.9212,1.945,1.9472,1.9681,1.9985,1.9574,1.9406,1.9452,1.9551,1.9469,1.926,1.9858,2.0007,1.9932,2.0146,2.0664,2.123,2.119,2.159,2.2097,2.1719,2.1325,2.1081,2.2211,2.2113,2.2209,2.2739,2.2505,2.2428,2.2959,2.2351,2.2145,2.3131,2.3923,0.0,0.0,0.0,0.0,0.0,0.0,0.0,0.0,2.13,2.1204,2.1626,2.165,2.1844,2.2278,2.2402,2.2451,2.2451,2.2647,0.0,0.0,0.0,0.0,0.0,0.0,0.0,0.0,0.0,0.0,2.3035,0.0,2.2187,2.2359,2.2871,2.3108,2.3108,2.3108,2.3108,2.3195,2.3803,2.4293,2.4416,2.3021,2.334,0.0,0.0,0.0,0.0,0.0,0.0,0.0,0.0,0.0,2.0879,0.0,0.0,0.0,0.0,0.0,0.0,0.0,0.0,0.0,0.0,0.0,0.0,0.0,0.0,0.0,0.0,0.0,0.0,1.8647,1.8512,1.8326,1.8078,1.8375,1.8627,1.8754,1.9231,1.9429,1.9297,1.9297,1.9231,1.9108,1.9312,1.9434,1.9492,1.9728,1.9771,1.97,2.0323,2.0364,2.0007,2.0581,2.0542,2.0059,2.0399,2.0566,2.0635,2.0869,2.1103,2.1298,2.1132,2.0937,2.0742,2.2268,2.1813,2.1668,2.2197,2.2345,2.2572,2.3106,2.322,2.3494,0.0,0.0,0.0,0.0,0.0,0.0,0.0,0.0,0.0,2.3249,0.0,2.25,2.2561,2.2561,2.2586,2.2647,2.2647,2.2678,2.2678,2.28,2.2878,0.0,0.0,0.0,0.0,2.3078,0.0,0.0,0.0,2.3078,0.0,2.3005,2.2975,0.0,2.3078,2.3108,2.3108,2.3108,2.3108,2.3195,0.0,2.4042,2.4211,0.0,2.4666,2.4072,2.4263,0.0,0.0,0.0,0.0,0.0,0.0,2.3018,0.0,0.0,0.0,2.0734,1.9922,0.0,0.0,0.0,0.0,0.0,0.0,0.0,0.0,0.0,0.0,0.0,0.0,0.0,0.0,0.0,1.8253,1.8284,1.9201,1.9287,1.9531,2.007,2.0597,2.0613,2.0009,2.0009,1.9715,1.9108,1.9127,1.9253,1.9492,1.9543,1.9646,1.9871,2.0397,2.0429,2.0165,2.0489,2.0586,2.0507,2.0307,2.0396,2.0566,2.0195,2.0781,2.1719,2.0967,2.0859,2.1132,2.2099,2.2031,2.2272,2.285,2.2732,2.288,2.376,2.3926,2.4042,0.0,0.0,0.0,0.0,0.0,0.0,0.0,0.0,2.3139,0.0,0.0,0.0,2.272,2.272,2.272,2.272,2.2769,2.283,2.283,2.2939,2.3017,0.0,0.0,0.0,0.0,2.3108,0.0,2.3108,0.0,2.292,0.0,0.0,0.0,0.0,2.2982,2.3108,2.3108,2.3108,2.3108,2.3145,0.0,2.391,0.0,0.0,0.0,0.0,0.0,0.0,0.0,0.0,0.0,0.0,0.0,0.0,0.0,2.172,0.0,2.1572,0.0,0.0,0.0,0.0,0.0,0.0,0.0,2.0538,0.0,0.0,0.0,0.0,0.0,0.0,0.0,0.0,0.0,0.0,0.0,1.8585,1.8925,1.9858,2.0381,2.0637,2.0677,2.0677,2.0549,2.0258,2.0258,2.0336,2.0446,2.1027,2.1064,2.0676,2.1592,2.1555,2.0799,2.0999,2.0845,2.0376,2.0541,2.0445,2.0166,1.999,2.041,2.1114,2.0742,2.0723,2.084,2.2564,2.2538,2.2863,2.3645,2.3213,2.3118,2.4176,2.4098,2.4117,0.0,0.0,0.0,2.5503,2.549,0.0,0.0,2.4166,2.3857,0.0,0.0,2.2991,0.0,0.0,0.0,2.28,2.2909,2.2939,2.2939,2.3047,2.3108,0.0,0.0,0.0,0.0,0.0,2.3108,2.3108,0.0,2.2882,2.2543,2.2945,2.2869,2.2556,2.2945,2.3108,2.3108,2.3108,2.3108,2.3133,2.3283,2.3885,0.0,2.3785,0.0,0.0,0.0,0.0,0.0,2.3296,0.0,0.0,0.0,0.0,0.0,0.0,0.0,0.0,0.0,0.0,0.0,0.0,0.0,0.0,0.0,0.0,2.0767,0.0,0.0,0.0,0.0,0.0,0.0,0.0,0.0,0.0,0.0,0.0,1.8857,1.9853,2.0499,2.0937,2.1156,2.1295,2.1282,2.1092,2.1092,2.1161,2.133,2.2191,2.2309,2.1837,2.2852,2.2681,2.1606,2.1807,2.1346,2.0496,2.0834,2.067,2.0164,1.9961,2.0185,2.0586,2.0468,2.0507,2.0605,2.3999,2.3304,0.0,2.4256,2.3649,2.3236,2.4008,2.3445,0.0,0.0,0.0,0.0,0.0,0.0,0.0,0.0,0.0,2.5289,2.4775,0.0,2.3697,0.0,0.0,2.3078,0.0,2.3078,2.3078,2.3078,2.3108,0.0,0.0,0.0,0.0,0.0,2.3108,2.3108,2.3108,2.3108,2.3095,2.3083,2.3095,2.3095,2.3083,0.0,2.3108,2.3108,2.3108,0.0,0.0,2.3778,2.4004,0.0,0.0,0.0,0.0,0.0,0.0,0.0,0.0,0.0,0.0,2.4104,0.0,0.0,0.0,0.0,2.376,0.0,0.0,0.0,0.0,0.0,0.0,0.0,0.0,0.0,0.0,0.0,0.0,0.0,0.0,0.0,0.0,0.0,0.0,0.0,0.0,0.0,2.0636,2.1663,2.1947,2.1314,2.1806,2.1772,2.1092,2.1092,2.1353,2.1878,2.2385,2.2857,2.3351,2.3831,2.3537,2.266,2.2868,2.2279,2.1185,2.1167,2.1051,2.0798,2.0164,2.0185,2.0546,2.0088,2.0205,2.0605,2.5128,2.4975,0.0,0.0,0.0,0.0,0.0,2.5342,0.0,0.0,0.0,0.0,0.0,2.9069,2.8944,0.0,0.0,2.765,2.622,2.6372,0.0,0.0,0.0,2.4328,0.0,0.0,0.0,0.0,0.0,0.0,0.0,0.0,0.0,0.0,0.0,2.3108,0.0,0.0,0.0,0.0,0.0,2.3007,2.3665,0.0,2.3108,2.3108,2.3108,2.3108,0.0,2.3333,2.3678,2.3966,2.3735,2.381,2.3916,2.3509,2.3258,0.0,0.0,0.0,2.3634,2.3446,0.0,0.0,0.0,0.0,0.0,0.0,0.0,0.0,0.0,0.0,0.0,0.0,0.0,0.0,0.0,0.0,0.0,0.0,0.0,0.0,0.0,0.0,0.0,0.0,0.0,0.0,0.0,2.1043,2.1472,2.1951,2.2149,2.2302,2.2414,2.2414,2.25,2.2713,2.3615,2.3863,2.3573,2.4495,2.442,2.3647,2.3683,2.3438,2.285,2.2051,2.1695,2.1524,2.0504,2.031,2.0546,2.0078,2.0195,2.0605,2.601,2.6166,0.0,0.0,0.0,0.0,0.0,0.0,0.0,0.0,2.914,0.0,3.0344,0.0,3.048,0.0,3.0065,2.9422,2.7552,2.8075,0.0,2.513,2.5774,0.0,0.0,0.0,0.0,0.0,0.0,2.3409,0.0,0.0,0.0,0.0,0.0,2.3296,2.312,2.3321,2.3095,0.0,0.0,2.3007,0.0,0.0,2.3233,2.3384,0.0,2.3108,2.3108,2.3108,2.3358,2.3597,2.3221,2.3358,2.3584,2.3208,2.3108,2.3108,2.3108,2.3108,0.0,2.3108,2.3108,0.0,2.3108,0.0,0.0,0.0,0.0,0.0,0.0,0.0,0.0,0.0,0.0,0.0,0.0,2.0037,0.0,0.0,0.0,0.0,0.0,0.0,0.0,0.0,0.0,0.0,0.0,0.0,2.1106,2.1995,2.2209,2.2543,2.3095,2.3108,2.3208,2.3421,2.4349,2.4636,2.4347,2.5284,2.53,2.4528,2.4528,2.4301,2.3832,2.2703,2.2242,2.2109,2.0852,2.0472,2.0653,2.0292,2.0322,2.0605,2.6663,2.6835,0.0,0.0,2.6826,0.0,0.0,0.0,2.8115,0.0,2.937,3.0008,3.0542,3.1116,3.1225,3.0651,3.1116,3.0692,2.8898,2.9414,0.0,0.0,2.7042,2.6728,2.5959,0.0,0.0,0.0,0.0,0.0,0.0,0.0,0.0,0.0,2.3941,0.0,2.3095,2.3715,2.364,2.3108,2.3108,2.312,2.3145,2.312,2.3502,2.3947,2.3308,2.3108,2.3108,2.3108,2.3108,2.3108,2.3138,2.3138,2.3108,2.3138,2.3138,2.3108,2.3138,2.3108,2.3108,2.3138,2.3108,0.0,0.0,0.0,2.3678,0.0,0.0,0.0,0.0,0.0,0.0,0.0,0.0,0.0,0.0,0.0,0.0,0.0,0.0,0.0,0.0,0.0,0.0,0.0,0.0,0.0,0.0,0.0,2.0918,2.1468,2.1995,2.2518,2.3095,2.3108,2.3384,2.3966,2.4519,2.5046,2.5536,2.6172,2.6057,2.5311,2.5335,2.4921,2.411,2.3172,2.2802,2.2621,2.1226,2.0747,2.0867,2.0654,2.0605,2.0605,2.6777,2.7157,2.7463,0.0,2.7108,2.7216,0.0,0.0,0.0,0.0,3.2069,3.272,3.3316,3.3496,3.3525,3.3402,3.3496,0.0,0.0,0.0,0.0,2.8284,2.9066,2.8654,2.6685,2.6854,0.0,2.6188,0.0,0.0,2.471,0.0,0.0,0.0,0.0,0.0,2.2531,2.3095,2.3246,2.3108,2.3271,2.3553,2.3869,0.0,2.3824,2.4182,2.3399,2.321,2.333,2.333,2.333,2.333,2.3437,2.339,2.333,2.3437,2.339,2.333,2.3437,2.339,2.336,2.345,2.3288,2.3168,0.0,0.0,0.0,0.0,0.0,0.0,0.0,0.0,0.0,0.0,0.0,0.0,0.0,0.0,0.0,2.0465,0.0,0.0,0.0,0.0,0.0,0.0,0.0,0.0,0.0,0.0,0.0,2.1455,2.1631,2.2159,2.3095,2.3108,2.3183,2.3333,2.3941,2.428,2.4443,2.5385,2.5711,2.5567,2.599,2.5825,2.5178,2.441,2.3991,2.3663,2.2205,2.1329,2.0867,2.0654,2.0605,2.0605,2.7142,2.7913,0.0,2.8522,0.0,0.0,2.9479,3.0059,0.0,3.1915,3.289,0.0,3.3964,3.424,3.4414,3.4414,3.4414,0.0,3.2959,0.0,0.0,2.9978,3.0531,3.0054,2.8126,2.7811,0.0,2.7278,0.0,0.0,2.5332,0.0,0.0,0.0,0.0,2.3018,2.2347,2.2971,2.3427,2.369,2.3552,2.3838,0.0,2.3803,2.3986,2.4445,2.3913,2.3616,2.348,2.348,2.348,2.3509,2.3569,2.3539,2.3509,2.3569,2.3539,2.3509,2.3569,2.3539,2.3509,2.3569,2.3467,2.3378,2.3569,2.3782,2.3798,0.0,2.3373,2.3386,0.0,0.0,0.0,0.0,0.0,0.0,0.0,0.0,0.0,0.0,2.0251,0.0,0.0,0.0,0.0,0.0,0.0,0.0,0.0,0.0,0.0,2.1455,2.1719,2.2259,2.3095,2.3358,2.3358,2.3108,2.3715,2.4004,2.4029,2.487,2.5385,2.5598,2.5699,2.5871,2.5916,2.4957,2.4616,2.4541,2.3277,2.2544,2.2145,2.1832,2.1231,2.0605,2.7724,2.8855,0.0,0.0,0.0,0.0,0.0,3.0915,0.0,3.1758,0.0,3.3634,3.3634,3.4095,3.4414,3.4414,0.0,3.4182,3.3663,3.4109,3.3554,3.1698,3.1642,3.1047,2.9769,2.8609,2.8049,0.0,0.0,0.0,0.0,0.0,0.0,0.0,0.0,0.0,0.0,2.3487,2.415,2.4702,2.4101,2.4229,2.4702,2.4099,2.4292,2.4823,2.4709,2.4263,2.3763,2.3852,2.3852,2.3852,2.3793,2.3763,2.3734,2.3688,2.3704,2.3734,2.3688,2.3704,2.3734,2.3688,2.3628,2.3628,2.3658,2.3658,2.3517,2.3029,2.3289,2.326,0.0,0.0,0.0,0.0,0.0,0.0,0.0,0.0,0.0,0.0,0.0,0.0,0.0,0.0,0.0,0.0,0.0,0.0,0.0,0.0,0.0,2.1468,2.1958,2.2506,2.3208,2.3665,2.3665,2.3221,2.3678,2.3891,2.3904,2.4456,2.4996,2.5473,2.4988,2.5398,2.6302,2.5122,2.49,2.5194,2.4301,2.3891,2.3745,2.3368,2.2264,2.0934,2.8492,0.0,0.0,0.0,0.0,3.1496,3.1946,3.2162,3.2527,3.3097,3.379,3.424,3.424,3.4356,3.4414,3.4414,3.4414,0.0,0.0,0.0,0.0,3.2379,3.2419,3.19,3.063,3.0351,3.0002,0.0,0.0,0.0,0.0,0.0,0.0,0.0,0.0,0.0,2.4744,2.554,0.0,2.6024,2.5478,2.5645,2.6174,2.5619,2.5481,2.5591,2.5563,2.5119,2.4567,2.5063,2.5259,2.5189,2.485,2.4637,2.4436,2.4099,2.4261,2.4436,2.4099,2.4261,2.4436,2.4099,2.3806,2.3658,2.3966,2.392,2.3822,2.3732,2.3482,2.3288,2.3312,0.0,0.0,0.0,0.0,0.0,0.0,0.0,0.0,0.0,0.0,2.0813,0.0,0.0,0.0,0.0,0.0,0.0,0.0,0.0,0.0,0.0,2.1581,0.0,0.0,0.0,2.3446,2.3841,2.3434,2.3258,2.3283,2.3879,2.4443,2.4913,2.4825,2.5172,2.5737,2.5503,2.5382,2.5276,2.4933,2.4373,2.3781,2.3514,2.3147,2.2627,0.0,0.0,0.0,0.0,0.0,0.0,0.0,3.3542,3.3682,3.3536,3.3765,3.392,3.392,3.4326,3.4563,3.4563,3.4616,3.4635,3.4563,3.4616,3.4211,3.3165,3.2959,3.2423,3.1439,3.0778,3.0484,3.0529,0.0,0.0,0.0,0.0,0.0,0.0,0.0,2.5149,0.0,0.0,0.0,2.6972,2.6078,2.6299,2.7071,2.6158,2.5987,2.6256,2.6256,2.6041,2.5728,2.5701,2.5701,2.5687,2.5481,2.5356,2.5231,2.5034,2.5105,2.5245,2.5034,2.5133,2.5231,2.5034,2.4851,2.4766,2.495,2.4721,2.4563,2.4821,2.448,2.4146,2.4166,2.394,0.0,0.0,0.0,0.0,0.0,0.0,0.0,0.0,0.0,0.0,0.0,0.0,0.0,0.0,0.0,2.0281,1.9811,0.0,2.0747,0.0,0.0,0.0,2.3674,0.0,2.3547,2.3521,2.3233,2.3108,2.3108,2.3396,2.3822,2.4393,2.4393,2.4858,2.5624,2.5925,2.5996,2.5921,2.5804,2.5546,2.517,2.4957,2.4528,2.3781,0.0,3.2346,0.0,0.0,3.3343,0.0,3.3977,3.4522,3.4611,3.3882,3.3791,3.3791,3.3791,3.4357,3.4731,3.4731,3.4835,3.4883,3.4765,3.4835,3.4574,3.3797,3.3311,3.2756,3.2077,3.0925,3.0481,0.0,0.0,0.0,0.0,0.0,0.0,0.0,0.0,0.0,0.0,0.0,2.7286,2.8168,2.69,2.7086,2.7973,2.6676,2.6469,2.6893,2.6893,2.6893,2.6826,2.6336,2.6188,2.6162,2.6027,2.5987,2.5987,2.5837,2.5892,2.596,2.5837,2.5892,2.596,2.5837,2.5783,2.5783,2.5783,2.5481,2.5286,2.5715,2.5453,2.5118,2.4964,2.4593,0.0,0.0,0.0,0.0,0.0,0.0,0.0,0.0,0.0,0.0,2.0335,0.0,0.0,0.0,0.0,2.0563,1.9888,2.0495,2.1145,0.0,0.0,2.2782,2.3598,0.0,2.3683,2.3344,2.3158,2.3108,2.3108,2.3233,2.3597,2.4167,2.4167,2.4707,2.5636,2.6248,2.6499,2.6499,2.6499,2.6499,2.6499,2.6339,2.5758,2.4779,0.0,0.0,0.0,0.0,0.0,0.0,3.4009,3.4522,3.4872,3.478,3.478,3.478,3.478,3.4839,3.4868,3.4868,3.4902,3.4902,3.4868,3.4902,3.4607,3.3991,3.3454,3.291,3.2287,3.1575,3.0624,0.0,0.0,2.8316,0.0,0.0,0.0,0.0,0.0,0.0,0.0,2.9525,3.0131,3.0131,2.8851,2.8785,2.9286,2.795,2.7458,2.7524,2.7524,2.7524,2.7524,2.7458,2.7433,2.7331,2.6774,2.6616,2.651,2.596,2.6203,2.651,2.596,2.6203,2.6484,2.5933,2.5783,2.5783,2.5783,2.5755,2.5742,2.5783,2.5755,2.5715,2.5701,2.566,2.5632,0.0,0.0,0.0,0.0,0.0,2.2892,2.2326,0.0,0.0,0.0,2.0953,0.0,0.0,2.0144,2.0079,1.999,2.0562,2.1147,2.1678,2.239,2.3237,2.428,2.3738,2.3677,2.409,2.3407,2.3108,2.312,2.3678,2.4217,2.4713,2.4713,2.5071,2.5636,2.6248,2.6499,2.6499,2.6499,2.6499,2.6499,2.6499,2.6292,2.591,0.0,0.0,0.0,0.0,0.0,0.0,0.0,3.5115,3.5261,3.5261,3.5034,3.4902,3.4902,3.5001,3.5082,3.5082,3.518,3.5213,3.5082,3.518,3.5109,3.4744,3.4237,3.3676,3.3034,3.2363,3.1572,0.0,0.0,0.0,0.0,0.0,0.0,0.0,0.0,2.9122,2.9167,2.9729,2.9953,2.9864,2.8966,2.8757,2.8891,2.7959,2.76,2.76,2.76,2.76,2.76,2.76,2.76,2.7575,2.7306,2.7229,2.7203,2.6956,2.706,2.7203,2.6956,2.706,2.7178,2.6941,2.6864,2.6864,2.6864,2.6602,2.6443,2.6811,2.6575,2.6336,2.6336,2.6041,2.5783,2.5783,0.0,0.0,0.0,0.0,0.0,0.0,0.0,2.2255,0.0,0.0,0.0,0.0,0.0,1.9937,2.0118,2.0451,2.108,2.1981,0.0,2.3225,2.4094,2.3714,2.382,2.4369,2.4078,2.4111,2.4411,2.4589,2.4898,2.5285,2.5285,2.5598,2.6172,2.6399,2.6499,2.6499,2.6499,2.6499,2.6499,2.6499,2.6361,2.6131,3.5082,0.0,3.4614,0.0,3.4892,3.4793,3.5397,3.5504,3.5504,3.5504,3.5261,3.5082,3.5082,3.518,3.5294,3.5294,3.5439,3.5439,3.5294,3.5439,3.5439,3.5294,3.4588,0.0,3.3499,3.2662,3.1869,3.1212,3.0913,0.0,0.0,0.0,0.0,0.0,2.9564,2.9849,2.9849,2.9849,2.9968,3.0073,2.9235,2.8891,2.8816,2.8154,2.7764,2.76,2.76,2.76,2.7625,2.765,2.765,2.765,2.7625,2.76,2.76,2.76,2.76,2.76,2.76,2.76,2.76,2.76,2.76,2.76,2.76,2.728,2.71,2.7524,2.7255,2.6971,2.6971,2.6628,2.6322,2.6322,0.0,0.0,0.0,2.5712,0.0,0.0,2.4035,2.3146,2.1822,2.183,0.0,0.0,0.0,2.0498,2.099,2.1017,2.1432,0.0,0.0,0.0,2.4226,2.4021,2.4244,2.481,2.4767,2.5031,2.5582,2.56,2.5696,2.585,2.585,2.6122,2.6499,2.6499,2.6499,2.6499,2.6499,2.6499,2.6499,2.6499,2.6396,2.627,3.5504,3.5504,3.5489,3.5504,3.5504,3.5489,3.5504,3.5504,3.5504,3.5504,3.5504,3.5504,3.5504,3.5504,3.5504,3.5504,3.5504,3.5504,3.5504,3.5504,3.5504,0.0,0.0,3.3499,3.3499,3.2183,3.1182,3.0507,0.0,0.0,2.9606,0.0,2.9592,2.9621,3.0223,3.0492,3.0492,3.0492,3.0881,3.1376,3.0103,2.9592,2.9517,2.8831,2.8173,2.76,2.76,2.76,2.7625,2.7765,2.779,2.7765,2.765,2.76,2.76,2.76,2.76,2.76,2.76,2.76,2.76,2.76,2.76,2.76,2.76,2.76,2.76,2.76,2.76,2.76,2.76,2.7575,2.7575,2.7575,0.0,0.0,0.0,0.0,0.0,2.5876,2.534,2.4303,2.2551,2.2871,0.0,0.0,0.0,0.0,0.0,0.0,0.0,2.2972,2.3712,0.0,2.4979,2.4784,2.4978,2.5573,2.5389,2.5608,2.6205,2.6608,2.6658,2.6487,2.6487,2.6487,2.6499,2.6499,2.6499,2.6499,2.6499,2.6499,2.6499,2.6499,2.6499,2.6465,3.6716,3.6103,3.5654,3.6088,3.5804,3.5504,3.5504,3.5504,3.5504,3.5504,3.5504,3.5504,3.5504,3.5504,3.5504,0.0,3.5504,3.5504,0.0,3.5504,3.5504,3.5504,3.51,3.4442,3.3514,3.308,3.2317,3.1182,0.0,0.0,0.0,3.0883,3.0883,3.0898,3.1092,3.1182,3.1182,3.1182,3.1132,3.099,3.0596,3.0199,2.9796,2.9135,2.8742,2.8485,2.8047,2.788,2.788,2.793,2.793,2.793,2.7905,2.7815,2.774,2.774,2.774,2.7765,2.784,2.788,2.788,2.788,2.779,2.774,2.774,2.801,2.8143,2.769,2.8334,2.8828,2.8353,2.8263,2.8263,2.8263,2.7746,0.0,2.7575,0.0,2.6876,2.6416,2.6204,2.5569,2.4222,2.4248,0.0,0.0,0.0,0.0,0.0,0.0,0.0,0.0,2.4148,0.0,2.555,2.5897,2.6348,2.6889,2.7246,2.766,2.8088,2.728,2.7045,2.7224,2.6719,2.6499,2.6499,2.6499,2.6499,2.6499,2.6499,2.6499,2.6499,2.6499,2.6499,2.6465,3.6941,3.6222,3.5639,3.6043,3.5774,3.5504,3.5504,3.5504,3.5504,3.5504,3.5504,3.5504,3.5504,3.5504,0.0,3.5504,3.5504,3.5504,3.5504,3.5504,3.5504,3.5504,3.5026,3.4352,3.3514,3.3021,0.0,3.1511,3.1511,3.1511,3.1511,3.1511,3.1511,3.1511,3.1511,3.1539,3.1582,3.1356,3.1231,3.1233,3.0976,3.0667,3.0338,2.9902,2.9446,2.8961,2.8536,2.8192,2.802,2.8054,2.8079,2.8079,2.8079,2.8014,2.794,2.789,2.788,2.7905,2.798,2.7995,2.7995,2.7995,2.793,2.7941,2.8183,2.8499,2.8703,2.8544,2.9166,2.9606,2.9147,2.8835,2.867,2.8607,2.8049,2.76,2.76,0.0,2.745,0.0,0.0,0.0,0.0,2.5465,2.542,0.0,0.0,0.0,0.0,0.0,0.0,2.3509,2.4478,2.5371,2.6138,2.6523,2.7066,2.785,2.8203,2.8395,2.8339,2.7722,2.7396,2.7325,2.681,2.6589,2.6555,2.6521,2.6499,2.6499,2.6499,2.6499,2.6499,2.6499,2.6499,2.6499,3.6432,3.5983,3.5519,0.0,3.5534,0.0,3.5504,3.5504,3.5504,3.5504,3.5504,3.5504,3.5504,3.5504,3.5504,3.5504,0.0,0.0,0.0,3.5504,3.5489,3.5429,3.4233,3.3529,3.3425,3.2198,3.1555,3.1511,3.1511,3.1511,3.1511,3.1511,3.1511,3.1511,3.1524,3.1626,3.1768,3.1162,3.1321,3.1964,3.1341,3.1098,3.1083,3.1037,3.0217,2.9093,2.9047,2.8637,2.813,2.8238,2.8272,2.8272,2.8272,2.8256,2.8186,2.8054,2.8005,2.802,2.8044,2.8044,2.8044,2.8044,2.8005,2.8202,2.8915,2.9082,2.9249,2.9852,3.0076,3.0084,2.992,2.935,2.8845,2.8719,2.8105,2.7625,2.7625,2.7625,2.7615,0.0,0.0,0.0,2.6184,2.6538,2.6376,0.0,0.0,0.0,0.0,0.0,2.3704,2.4268,2.4942,2.5809,2.6823,2.6902,2.7446,2.8472,2.8394,2.8017,2.7444,2.7851,2.7696,2.7075,2.6807,2.6714,2.6679,2.6555,2.6499,2.6499,2.6499,2.6499,2.6499,2.6499,2.6499,2.6499,0.0,0.0,3.5669,3.6163,3.5833,3.5504,3.5504,3.5504,3.5504,3.5504,3.5504,3.5504,3.5504,3.5504,3.5504,3.5504,3.5504,3.5504,3.5504,3.5504,3.5265,3.4773,3.4444,3.3769,3.2766,3.2437,3.2004,3.1511,3.1511,3.1511,3.1511,3.167,3.1727,3.1727,3.1826,3.1912,3.1925,3.1786,3.1886,3.2135,3.1967,3.1989,3.1995,3.1516,3.0784,2.9991,2.9495,2.9204,2.9066,2.9116,2.9116,2.9116,2.9116,2.8762,2.8323,2.8186,2.8137,2.8162,2.829,2.8314,2.8314,2.8314,2.8226,2.8433,2.9514,2.9776,2.9811,2.9959,3.0809,3.1359,3.0831,3.0167,2.9713,2.966,2.8585,2.7765,2.7765,2.765,2.7794,0.0,2.8353,2.8267,2.7988,2.8081,2.7845,0.0,0.0,0.0,2.8036,2.6748,2.5993,2.6145,2.7728,2.8422,2.8085,2.9039,2.9373,2.9087,2.8164,2.809,2.8808,2.7915,2.761,2.7799,2.7191,2.6841,2.6679,2.6692,2.6589,2.6499,2.6499,2.6499,2.6499,2.6499,2.6499,2.6499,3.736,3.6387,3.5609,3.5968,3.5744,3.5504,3.5504,3.5504,3.5537,3.5572,3.5604,3.5604,3.5604,3.5604,3.5604,3.5604,3.5522,3.5504,3.5504,3.5504,3.5357,3.5048,3.47,3.407,3.3111,3.2751,3.23,3.1741,3.1741,3.1741,3.1726,3.1826,3.1898,3.1898,3.1968,3.2038,3.2094,3.2094,3.2178,3.2287,3.2287,3.2342,3.2351,3.1982,3.1443,3.0812,3.0443,2.992,2.9433,2.974,2.9433,2.9012,2.9294,2.895,2.8387,2.8323,2.8299,2.8323,2.8372,2.8627,2.8935,2.9258,2.9244,2.9455,3.0413,3.0632,3.0739,3.1014,3.1686,3.2056,3.1622,3.0754,3.0072,3.0008,2.8819,2.7905,2.7905,2.8072,2.8473,2.9087,2.9417,2.9555,2.9475,2.9475,2.9205,2.8596,2.8481,0.0,2.913,2.9029,2.857,2.7752,2.8725,2.9142,2.8967,2.9936,2.9915,2.893,2.8279,2.8152,2.8451,2.7722,2.7538,2.7811,2.7343,2.7079,2.6964,2.6794,2.6658,2.6589,2.6521,2.6499,2.6499,2.6499,2.6499,2.6499,3.7252,3.637,3.5587,3.5716,3.5619,3.5619,3.5829,3.5765,3.5765,3.5879,3.5864,3.5847,3.5752,3.5752,3.5752,3.5752,3.5636,3.5602,3.5602,3.5602,3.5559,3.5584,3.4961,3.4283,3.3683,3.2959,3.2399,3.1996,3.1996,3.1996,3.1996,3.2025,3.2038,3.2038,3.2038,3.2107,3.2247,3.2247,3.2302,3.2398,3.2398,3.2398,3.2398,3.2398,3.1967,3.1409,3.1409,3.0597,2.9648,3.0309,2.9735,2.8812,2.9356,2.9156,2.8688,2.8581,2.8627,2.8688,2.8581,2.9058,2.971,3.0371,3.0463,3.0586,3.1366,3.1563,3.1705,3.2275,3.2475,3.2493,3.2262,3.1117,3.0234,3.0209,2.8971,2.8075,2.8166,0.0,2.9319,2.9776,3.0513,3.0865,3.0578,3.0535,3.031,2.9786,3.0118,3.0268,3.0043,3.0881,3.0748,2.9398,2.9293,2.9428,2.98,3.0094,2.9716,2.8661,2.8546,2.8189,2.7656,2.7556,2.749,2.749,2.7369,2.7302,2.7268,2.6897,2.6726,2.6679,2.6555,2.6499,2.6499,2.6499,2.6499,2.6499,3.7064,3.6411,3.6085,3.6569,3.6258,3.6258,3.7294,3.7011,3.6692,3.6707,3.6707,3.6508,3.6005,3.5941,3.5941,3.5941,3.5941,3.591,3.591,3.591,3.5667,3.5123,3.5001,3.4349,3.3136,3.2469,3.2059,3.1996,3.1996,3.1996,3.1996,3.2122,3.2178,3.2163,3.2302,3.2342,3.237,3.237,3.237,3.2398,3.2398,3.2398,3.2398,3.2398,3.1967,3.1409,3.1409,3.0905,3.034,3.1012,3.0735,3.0109,3.0202,3.0171,2.9971,2.9402,2.9648,2.9956,2.9387,2.9725,3.0402,3.1074,3.0828,3.0709,3.1967,3.2228,3.2259,3.2367,3.2844,3.3075,3.2478,3.1267,3.0545,3.1098,2.9475,2.836,2.8925,0.0,2.9883,2.9966,3.1058,3.1518,3.0805,3.0744,3.0644,3.0372,2.9968,3.0417,3.1973,3.1165,3.105,3.1886,3.1931,3.1676,3.1185,3.0151,2.954,2.9331,2.8776,2.8449,2.832,2.7756,2.749,2.749,2.7503,2.7403,2.7268,2.7045,2.6841,2.6679,2.6555,2.6499,2.6499,2.6499,2.6499,2.6499,3.8584,3.7694,3.7071,3.7324,3.7474,3.7756,3.8307,3.8159,3.8153,3.867,3.8005,3.7405,3.7219,3.6817,3.6461,3.6148,3.6399,3.6646,3.6754,3.66,3.6384,3.6151,3.6362,3.5884,3.4591,3.3913,3.3271,3.2641,3.2641,3.2492,3.2219,3.2274,3.233,3.2315,3.237,3.2398,3.2398,3.2398,3.2398,3.2398,3.2398,3.2398,3.2398,3.2398,3.2198,3.1921,3.1921,3.1505,3.1043,3.1705,3.1259,3.0448,3.0828,3.0705,3.034,3.0017,3.0156,3.0402,3.0458,3.0705,3.1105,3.1767,3.1982,3.2182,3.2798,3.3244,3.3534,3.3534,3.3796,3.3767,3.3059,3.1844,3.1043,3.1362,2.9654,0.0,2.9695,3.0057,3.0464,3.1104,3.2048,3.2477,3.2031,3.1972,3.1779,3.1247,3.1234,3.1476,3.1929,3.1734,3.1704,3.1944,3.1959,3.1797,3.1501,3.0894,3.0389,3.0042,2.9362,2.8839,2.8481,2.7809,2.749,2.749,2.749,2.7469,2.7403,2.7248,2.7045,2.6841,2.6658,2.6555,2.6499,2.6499,2.6499,2.6499,4.0248,3.9275,3.8476,3.8621,3.8998,3.9382,3.9644,3.9557,3.9739,4.0453,3.9515,3.8769,3.8721,3.8062,3.7457,3.6986,3.7225,3.7458,3.7592,3.7488,3.7413,3.7383,3.7575,3.7158,3.597,3.5297,3.4432,3.3407,3.3407,3.3172,3.2776,3.2641,3.2602,3.2574,3.2453,3.2398,3.2398,3.2398,3.2398,3.2398,3.2398,3.2398,3.2398,3.2398,3.2398,3.2398,3.2398,3.1967,3.1516,3.2167,3.1613,3.0709,3.1228,3.1151,3.0817,3.0663,3.0725,3.0997,3.149,3.1736,3.1982,3.249,3.3152,3.366,3.366,3.4198,3.469,3.4536,3.4628,3.452,3.3783,3.2536,3.1674,3.1828,0.0,2.9335,3.0663,3.0986,3.139,3.2142,3.2997,3.3322,3.2872,3.2798,3.2514,3.1858,3.2236,3.2194,3.154,3.1989,3.2034,3.1525,3.1511,3.1511,3.1511,3.1511,3.1248,3.0718,3.0042,2.9456,2.8935,2.8274,2.7875,2.7723,2.7723,2.7656,2.749,2.7302,2.7146,2.699,2.6726,2.6589,2.6499,2.6499,2.6499,2.6499,4.1302,4.0774,4.0489,4.1024,4.0713,4.0758,4.189,4.1572,4.1236,4.1302,4.1203,4.0955,4.0391,3.9658,3.9224,3.9166,3.8581,3.8222,3.8222,3.8739,3.881,3.8222,3.7647,3.6978,3.6206,3.5445,3.469,3.3944,3.3944,3.3919,3.3869,3.3381,3.3145,3.3119,3.2614,3.2398,3.2398,3.2398,3.2398,3.2398,3.2398,3.2398,3.2398,3.2398,3.2398,3.2398,3.2398,3.1967,3.1516,3.2167,3.1905,3.1347,3.1366,3.1782,3.2121,3.1516,3.1767,3.2259,3.2305,3.2782,3.326,3.3306,3.3889,3.4428,3.4428,3.4951,3.526,3.4628,3.4998,3.5229,3.4551,3.3288,3.2521,3.3152,0.0,0.0,3.2059,3.2798,3.2982,3.2459,3.3583,3.3833,3.239,3.2267,3.2127,3.1813,3.1829,3.1743,3.1511,3.1555,3.1555,3.1511,3.1511,3.1511,3.1511,3.1511,3.1467,3.1409,3.0748,3.0389,3.0329,2.9673,2.9016,2.8417,2.8417,2.8072,2.7503,2.7146,2.7024,2.6956,2.6636,2.6499,2.6499,2.6499,2.6499,2.6499,4.2635,4.2083,4.1694,4.1919,4.215,4.2451,4.2898,4.2789,4.2819,4.3317,4.2561,4.1738,4.1115,4.0388,3.9624,3.8788,3.8792,3.8865,3.8865,3.9418,3.967,3.9428,3.9161,3.8678,3.7936,3.7661,3.6779,3.5243,3.5243,3.4799,3.4011,3.3793,3.3691,3.3691,3.3485,3.3381,3.3381,3.3381,3.3214,3.2895,3.2895,3.2695,3.2398,3.2398,3.2398,3.2398,3.2398,3.2228,3.2044,3.2305,3.2213,3.2013,3.2013,3.2182,3.2428,3.2582,3.3136,3.3704,3.3704,3.3537,3.3506,3.3981,3.4613,3.5136,3.5136,3.566,3.6045,3.5799,3.5922,3.5937,3.526,3.4351,3.3796,3.4058,0.0,3.2121,3.3519,3.3521,3.3306,3.3044,3.349,3.34,3.2407,3.2315,3.2247,3.2066,3.2433,3.2364,3.1713,3.1568,3.169,3.2108,3.2108,3.2108,3.2108,3.2108,3.2108,3.2123,3.1864,3.1527,3.1119,3.0853,3.0151,2.9122,2.9122,2.8491,2.7503,2.7268,2.7113,2.6977,2.6726,2.6555,2.6499,2.6499,2.6499,2.6499,4.3792,4.3369,4.3014,4.3014,4.3436,4.3792,4.3792,4.3792,4.3978,4.453,4.3684,4.2861,4.2456,4.1516,4.0552,3.9655,3.9508,3.947,3.947,3.9867,4.0096,4.0096,4.0096,3.9757,3.9005,3.8988,3.8216,3.6593,3.636,3.5791,3.4873,3.4431,3.426,3.4243,3.4086,3.4011,3.4011,3.4011,3.3921,3.382,3.382,3.3625,3.3266,3.3266,3.3126,3.2884,3.2722,3.2641,3.2614,3.2465,3.2536,3.2675,3.2459,3.2536,3.289,3.3783,3.4289,3.4597,3.5013,3.4599,3.4168,3.4705,3.5321,3.5799,3.5799,3.6153,3.6492,3.6492,3.6492,3.6353,3.5891,3.5275,3.4813,3.4813,3.3842,3.3488,3.4659,3.4397,3.406,3.406,3.406,3.3706,3.2798,3.2906,3.2911,3.2555,3.3138,3.3206,3.2461,3.2241,3.2333,3.2811,3.2826,3.2916,3.3125,3.2931,3.2826,3.2826,3.28,3.2585,3.2143,3.2142,3.1507,3.0434,3.0206,2.9381,2.8093,2.7768,2.7369,2.6977,2.6794,2.6624,2.6499,2.6499,2.6499,2.6499,4.4615,4.4615,4.4615,4.4615,4.4615,4.4615,4.4615,4.4615,4.4615,4.4615,4.4615,4.4615,4.4598,4.3244,4.2286,4.2286,4.0959,4.0113,4.0096,4.0096,4.0096,4.0096,4.0096,3.9757,3.9005,3.9005,3.865,3.7922,3.7161,3.6812,3.6755,3.5435,3.4809,3.4769,3.426,3.4011,3.4011,3.4011,3.4482,3.5214,3.5214,3.5214,3.5214,3.5214,3.4709,3.3935,3.3423,3.3224,3.3135,3.2602,3.2859,3.329,3.2628,3.2875,3.369,3.5076,3.5044,3.4813,3.6122,3.5999,3.5521,3.5521,3.5999,3.6492,3.6492,3.6492,3.6492,3.6492,3.6492,3.6492,3.6492,3.5953,3.5521,3.5521,3.4951,3.4751,3.5429,3.5521,3.5521,3.5506,3.5506,3.4937,3.3537,3.406,3.4154,3.329,3.3826,3.4105,3.3849,3.3606,3.3499,3.3514,3.3514,3.3829,3.4518,3.3844,3.3499,3.3499,3.3499,3.3499,3.3499,3.3499,3.313,3.2445,3.1789,3.0733,2.9454,2.8627,2.7789,2.7003,2.6794,2.6624,2.6499,2.6499,2.6499,2.6499,4.4615,4.4615,4.4615,4.4615,4.4615,4.4615,4.4615,4.4615,4.4615,4.4615,4.4615,4.4395,4.3826,4.3352,4.2658,4.1627,4.1119,4.0646,4.013,4.0096,4.0096,4.0096,4.0096,3.9994,3.9791,3.9774,3.9419,3.8667,3.7922,3.7297,3.6795,3.5801,3.5356,3.5339,3.5201,3.5131,3.5131,3.5131,3.5359,3.5745,3.5745,3.584,3.5971,3.5971,3.5877,3.5733,3.5578,3.5246,3.4859,3.4695,3.4423,3.415,3.395,3.4351,3.4953,3.5398,3.5706,3.5984,3.6384,3.6338,3.6184,3.6184,3.6338,3.6492,3.6492,3.6492,3.6492,3.6492,3.6492,3.6492,3.6492,3.6322,3.6184,3.6184,3.6014,3.5953,3.6153,3.6184,3.6014,3.5568,3.5506,3.5167,3.4274,3.4382,3.4383,3.4125,3.4161,3.4531,3.5305,3.4709,3.4733,3.5597,3.5145,3.522,3.5911,3.4788,3.4219,3.4219,3.4681,3.4651,3.4234,3.4681,3.4004,3.2506,3.2285,3.1144,2.9387,2.8595,2.8318,2.8276,2.7169,2.692,2.7224,2.6706,2.6738,2.7065,4.4615,4.4615,4.4615,4.4615,4.4615,4.4615,4.4615,4.4615,4.4615,4.4615,4.4615,4.4401,4.3927,4.3578,4.3037,4.2168,4.1542,4.1018,4.0544,4.0265,4.0096,4.0096,4.0096,4.0096,4.0096,4.0096,3.9893,3.9453,3.8396,3.7669,3.7195,3.6107,3.56,3.5616,3.5943,3.591,3.5633,3.6242,3.6585,3.6783,3.7067,3.7286,3.745,3.745,3.7344,3.717,3.6977,3.6629,3.6237,3.6023,3.5483,3.4903,3.5181,3.5428,3.5613,3.589,3.6322,3.6693,3.6693,3.6693,3.6677,3.6616,3.6554,3.6492,3.6492,3.6492,3.6492,3.6492,3.6492,3.6492,3.6492,3.6492,3.6492,3.6492,3.6492,3.6492,3.6492,3.6492,3.6338,3.5922,3.5891,3.5614,3.4967,3.5152,3.5306,3.5306,3.5094,3.5324,3.6054,3.5437,3.5565,3.6547,3.6121,3.6193,3.6851,3.6043,3.5385,3.4891,3.5026,3.5026,3.4906,3.531,3.4698,3.3282,3.3,3.1889,3.0113,2.9164,2.8739,2.8537,2.7379,2.7067,2.7183,2.675,2.6873,2.7281,4.4615,4.4615,4.4615,4.4615,4.4615,4.4615,4.4615,4.4615,4.4615,4.4615,4.4615,4.4615,4.4615,4.3944,4.3477,4.3392,4.2066,4.1204,4.1204,4.0493,4.0096,4.0096,4.0096,4.0096,4.0096,4.0096,4.0096,4.0096,3.8616,3.7905,3.7872,3.6309,3.5633,3.5735,3.6468,3.6417,3.5904,3.7313,3.7956,3.8075,3.8759,3.9137,3.9302,3.9302,3.8973,3.8446,3.7959,3.7667,3.7419,3.679,3.6098,3.5644,3.6306,3.6183,3.5948,3.6538,3.6862,3.7015,3.7015,3.7015,3.6969,3.6754,3.6631,3.6523,3.6492,3.6492,3.6492,3.6492,3.6492,3.6492,3.6492,3.6538,3.6569,3.6507,3.6538,3.6553,3.6507,3.6492,3.6492,3.6492,3.6492,3.6245,3.566,3.6122,3.6492,3.6492,3.6352,3.6258,3.6287,3.6002,3.6142,3.6755,3.6607,3.6746,3.7315,3.721,3.6656,3.5669,3.4981,3.4981,3.5594,3.5534,3.51,3.4384,3.3754,3.2696,3.1317,3.0105,2.9094,2.8239,2.765,2.7159,2.679,2.6802,2.7019,2.7369,4.4615,4.4615,4.4615,4.4615,4.4615,4.4615,4.4615,4.4615,4.4615,4.4615,4.4615,4.4615,4.4615,4.4445,4.4079,4.3443,4.2066,4.1204,4.1204,4.0493,4.0096,4.0096,4.0096,4.0096,4.0096,4.0096,4.0096,4.0096,3.8616,3.7905,3.7872,3.6309,3.5943,3.6558,3.6728,3.7009,3.7432,3.7872,3.8394,3.8931,3.9204,3.9685,4.0222,4.0222,4.0192,4.0168,4.0055,3.9613,3.8918,3.7645,3.6841,3.6442,3.66,3.6692,3.6751,3.6892,3.6969,3.7015,3.7015,3.7015,3.6984,3.6938,3.68,3.6631,3.6523,3.6492,3.6492,3.6492,3.6492,3.6492,3.6492,3.6923,3.7107,3.6584,3.6938,3.7092,3.6569,3.6492,3.6492,3.6492,3.6492,3.643,3.6292,3.6399,3.6492,3.6492,3.646,3.6613,3.696,3.6795,3.695,3.7481,3.6847,3.6552,3.6686,3.5639,3.5744,3.6985,3.6357,3.6133,3.6252,3.5744,3.4846,3.3709,3.3559,3.271,3.1332,3.0585,3.0097,2.9711,2.8552,2.7898,2.763,2.7468,2.7647,2.8047,4.4615,4.4615,4.4615,4.4615,4.4615,4.4615,4.4615,4.4615,4.4615,4.4615,4.4615,4.4615,4.4615,4.4615,4.4418,4.4012,4.2929,4.2269,4.2269,4.1221,4.0612,4.0612,4.0299,4.0096,4.0096,4.0163,4.0163,4.0096,3.8971,3.843,3.8396,3.7246,3.6924,3.733,3.7757,3.795,3.8034,3.8874,3.9245,3.933,3.9744,4.0192,4.06,4.06,4.0697,4.0793,4.0721,4.0229,3.9437,3.8379,3.7621,3.7103,3.6907,3.6908,3.6999,3.7075,3.7165,3.7241,3.7241,3.7241,3.7289,3.7574,3.7544,3.7328,3.6739,3.6554,3.6492,3.6492,3.6492,3.6492,3.6492,3.7046,3.7277,3.6599,3.7061,3.7261,3.6584,3.6492,3.6492,3.6492,3.6492,3.6492,3.6492,3.6492,3.6492,3.6492,3.6492,3.6614,3.6842,3.6697,3.6856,3.7373,3.6857,3.6678,3.6926,3.6222,3.6387,3.7404,3.6133,3.5699,3.6013,3.5669,3.4936,3.3948,3.3634,3.2876,3.1811,3.0886,3.0252,2.9754,2.8768,2.8093,2.7623,2.7685,2.8012,2.8624,4.4632,4.4699,4.475,4.4632,4.4615,4.4615,4.4615,4.4615,4.4615,4.4615,4.4615,4.4615,4.4615,4.4615,4.4615,4.4615,4.3859,4.3392,4.3392,4.2151,4.139,4.139,4.0781,4.0417,4.0307,4.0425,4.0374,4.0096,3.9368,3.9012,3.8971,3.8261,3.7973,3.8149,3.8897,3.8952,3.8608,3.9956,4.0175,3.9679,4.0302,4.0631,4.0721,4.0721,4.0817,4.0888,4.0769,4.0254,3.9542,3.8914,3.825,3.7605,3.718,3.706,3.7121,3.721,3.7359,3.751,3.751,3.748,3.7547,3.8009,3.8058,3.781,3.7064,3.6863,3.6862,3.6692,3.6661,3.6661,3.6661,3.7215,3.7492,3.6923,3.74,3.7615,3.6938,3.683,3.683,3.683,3.683,3.6799,3.6676,3.6661,3.6615,3.6507,3.6492,3.6492,3.6492,3.6305,3.6376,3.6823,3.6612,3.6703,3.7075,3.709,3.709,3.706,3.5429,3.5011,3.5669,3.5549,3.513,3.4474,3.3784,3.3086,3.2334,3.1139,3.0233,2.9539,2.9045,2.8352,2.7655,2.7842,2.8344,2.8963,4.4733,4.5111,4.5348,4.4716,4.4615,4.4615,4.4615,4.4615,4.4615,4.4615,4.4615,4.4615,4.4615,4.4615,4.4615,4.4615,4.3859,4.3392,4.3392,4.2625,4.2151,4.2151,4.2049,4.1773,4.1231,4.124,4.0866,4.0096,3.9483,3.9103,3.8971,3.8261,3.8292,3.904,3.9142,3.9562,4.0195,4.0538,4.0621,4.0559,4.0765,4.0864,4.0871,4.0871,4.0871,4.0912,4.0888,4.0385,3.9655,3.8941,3.8407,3.7927,3.7358,3.73,3.745,3.7435,3.748,3.751,3.751,3.7359,3.724,3.7334,3.7123,3.7018,3.7451,3.8024,3.8287,3.7509,3.7353,3.7353,3.7353,3.7923,3.8354,3.8246,3.88,3.9016,3.8323,3.8231,3.8231,3.8231,3.8231,3.8,3.7415,3.7353,3.7123,3.6538,3.6492,3.6492,3.6492,3.6305,3.6194,3.6142,3.5935,3.5819,3.5759,3.5774,3.5774,3.5759,3.5489,3.5714,3.6342,3.5759,3.513,3.4474,3.3784,3.3109,3.2437,3.1678,3.0955,3.0323,3.0251,2.9749,2.8986,2.8558,2.8627,2.89,4.475,4.5179,4.5466,4.4733,4.4615,4.4615,4.4615,4.4615,4.4615,4.4615,4.4615,4.4615,4.4615,4.4654,4.4709,4.4709,4.4387,4.4183,4.4183,4.3406,4.2912,4.2912,4.2586,4.2089,4.141,4.1545,4.1212,4.032,3.999,3.9787,3.9721,3.9374,3.9506,3.9934,4.0007,4.0243,4.0624,4.0769,4.0817,4.0817,4.0888,4.0912,4.0912,4.0912,4.0912,4.0912,4.0912,4.0427,3.9723,3.9146,3.859,3.8014,3.7522,3.7359,3.7359,3.748,3.751,3.748,3.7359,3.7537,3.7823,3.8122,3.8387,3.8695,3.9296,3.9683,3.9464,3.7832,3.78,3.7954,3.7569,3.8354,3.8954,3.8569,3.9077,3.9277,3.86,3.8508,3.8508,3.8508,3.8508,3.8246,3.7569,3.7507,3.7215,3.6538,3.6492,3.6492,3.6492,3.6305,3.6148,3.6005,3.5799,3.5653,3.5504,3.5504,3.5504,3.5504,3.5504,3.5654,3.5923,3.5639,3.534,3.5011,3.4337,3.4098,3.4098,3.3066,3.267,3.2664,3.1891,3.1251,3.0624,2.9925,2.9833,2.9958]}]]